[[{"header":{"parameterUnit":"m.s-1","parameterCategory":1,"la1":30.6,"la2":29.2853,"lo1":-89.7004,"lo2":-87.6739,"dy":0.0162,"dx":0.0183,"nx":112,"ny":82,"refTime":"2023-04-11T06:00:00:Z","depth":0,"parameterNumber":2,"parameterNumberName":"U-component_of_WINDS"},"data":[0.0,0.0,0.0,0.0,0.0,0.0,0.0,0.0,0.0,0.0,0.0,0.0,0.0,0.0,0.0,0.0,0.0,0.0,0.0,0.0,0.0,0.0,0.0,0.0,0.0,0.0,0.0,0.0,0.0,0.0,0.0,0.0,0.0,0.0,0.0,0.0,0.0,0.0,0.0,0.0,0.0,0.0,0.0,0.0,0.0,0.0,0.0,0.0,0.0,0.0,0.0,0.0,0.0,0.0,0.0,0.0,0.0,0.0,0.0,0.0,0.0,0.0,0.0,0.0,0.0,0.0,0.0,0.0,0.0,0.0,0.0,0.0,0.0,0.0,0.0,0.0,0.0,0.0,0.0,0.0,0.0,0.0,0.0,0.0,0.0,0.0,0.0,0.0,0.0,0.0,0.1019,0.094,0.0235,-0.047,-0.1257,-0.1335,-0.1021,-0.0235,0.0,0.0,0.0,0.0,0.0,0.0,0.0,0.0,0.0,0.0,0.0,0.0,0.0,0.0,0.0,0.0,0.0,0.0,0.0,0.0,0.0,0.0,0.0,0.0,0.0,0.0,0.0,0.0,0.0,0.0,0.0,0.0,0.0,0.0,0.0,0.0,0.0,0.0,0.0,0.0,0.0,0.0,0.0,0.0,0.0,0.0,0.0,0.0,0.0,0.0,0.0,0.0,0.0,0.0,0.0,0.0,0.0,0.0,0.0,0.0,0.0,0.0,0.0,0.0,0.0,0.0,0.0,0.0,0.0,0.0,0.0,0.0,0.0,0.0,0.0,0.0,0.0,0.0,0.0,0.0,0.0,0.0,0.0,0.0,0.0,0.0,0.0,0.0,0.0,0.0,0.0,0.0,0.0,0.0,0.0,0.0,0.0,0.0,0.0,0.0,0.0,0.0,0.0,0.0,-0.0078,-0.0864,-0.1021,-0.1178,-0.1257,-0.1335,-0.1257,-0.11,0.0,0.0,0.0,0.0,0.0,0.0,0.0,0.0,0.0,0.0,0.0,0.0,0.0,0.0,0.0,0.0,0.0,0.0,0.0,0.0,0.0,0.0,0.0,0.0,0.0,0.0,0.0,0.0,0.0,0.0,0.0,0.0,0.0,0.0,0.0,0.0,0.0,0.0,0.0,0.0,0.0,0.0,0.0,0.0,0.0,0.0,0.0,0.0,0.0,0.0,0.0,0.0,0.0,0.0,0.0,0.0,0.0,0.0,0.0,0.0,0.0,0.0,0.0,0.0,0.0,0.0,0.0,0.0,0.0,0.0,0.0,0.0,0.0,0.0,0.0,0.0,0.0,0.0,0.0,0.0,0.0,0.0,0.0,0.0,0.0,0.0,0.0,0.0,0.0,0.0,0.0,0.0,0.0,0.0,0.0,0.0,0.0,0.0,0.0,0.0,0.0,0.0,0.0,-0.0471,-0.0863,-0.1257,-0.1335,-0.1335,-0.1335,-0.1335,-0.1335,-0.1335,-0.1335,0.0,0.0,0.0,0.0,0.0,0.0,0.0,0.0,0.0,0.0,0.0,0.0,0.0,0.0,0.0,0.0,0.0,0.0,0.0,0.0,0.0,0.0,0.0,0.0,0.0,0.0,0.0,0.0,0.0,0.0,0.0,0.0,0.0,0.0,0.0,0.0,0.0,0.0,0.0,0.0,0.0,0.0,0.0,0.0,0.0,0.0,0.0,0.0,0.0,0.0,0.0,0.0,0.0,0.0,0.0,0.0,0.0,0.0,0.0,0.0,0.0,0.0,0.0,0.0,0.0,0.0,0.0,0.0,0.0,0.0,0.0,0.0,0.0,0.0,0.0,0.0,0.0,0.0,0.0,0.0,0.0,0.0,0.0,0.0,0.0,0.0,0.0,0.0,0.0,0.0,0.0,0.0,0.0,0.0,0.0,0.0,0.0,0.0,0.0,0.0,0.0,0.0,-0.1335,-0.1336,-0.1335,-0.1335,-0.1335,-0.1335,-0.1492,-0.1492,-0.1335,-0.1492,0.0,0.0,0.0,0.0,0.0,0.0,0.0,0.0,0.0,0.0,0.0,0.0,0.0,0.0,0.0,0.0,0.0,0.0,0.0,0.0,0.0,0.0,0.0,0.0,0.0,0.0,0.0,0.0,0.0,0.0,0.0,0.0,0.0,0.0,0.0,0.0,0.0,0.0,0.0,0.0,0.0,0.0,0.0,0.0,0.0,0.0,0.0,0.0,0.0,0.0,0.0,0.0,0.0,0.0,0.0,0.0,0.0,0.0,0.0,0.0,0.0,0.0,0.0,0.0,0.0,0.0,0.0,0.0,0.0,0.0,0.0,0.0,0.0,0.0,0.0,0.0,0.0,0.0,0.0,0.0,0.0,0.0,0.0,0.0,0.0,0.0,0.0,0.0,0.0,0.0,0.0,0.0,0.0,0.0,0.0,0.0,0.0,0.0,0.0,0.0,0.0,0.0,-0.1493,-0.1493,-0.1335,-0.1335,-0.1335,-0.1335,-0.1962,-0.2119,-0.1335,-0.2041,0.0,0.0,0.0,0.0,0.0,0.0,0.0,0.0,0.0,0.0,0.0,0.0,0.0,0.0,0.0,0.0,0.0,0.0,0.0,0.0,0.0,0.0,0.0,0.0,0.0,0.0,0.0,0.0,0.0,0.0,0.0,0.0,0.0,0.0,0.0,0.0,0.0,0.0,0.0,0.0,0.0,0.0,0.0,0.0,0.0,0.0,0.0,0.0,0.0,0.0,0.0,0.0,0.0,0.0,0.0,0.0,0.0,0.0,0.0,0.0,0.0,0.0,0.0,0.0,0.0,0.0,0.0,0.0,0.0,0.0,0.0,0.0,0.0,0.0,0.0,0.0,0.0,0.0,0.0,0.0,0.0,0.0,0.0,0.0,0.0,0.0,0.0,0.0,0.0,0.0,0.0,0.0,0.0,0.0,0.0,0.0,0.0,0.0,0.0,0.0,0.0,0.0,-0.1336,-0.1415,0.0,-0.1727,-0.2041,-0.2041,-0.2821,-0.2976,-0.2119,0.0,0.0,0.0,0.0,0.0,0.0,0.0,0.0,0.0,0.0,0.0,0.0,0.0,0.0,0.0,0.0,0.0,0.0,0.0,0.0,0.0,0.0,0.0,0.0,0.0,0.0,0.0,0.0,0.0,0.0,0.0,0.0,0.0,0.0,0.0,0.0,0.0,0.0,0.0,0.0,0.0,0.0,0.0,0.0,0.0,0.0,0.0,0.0,0.0,0.0,0.0,0.0,0.0,0.0,0.0,0.0,0.0,0.0,0.0,0.0,0.0,0.0,0.0,0.0,0.0,0.0,0.0,0.0,0.0,0.0,0.0,0.0,0.0,0.0,0.0,0.0,0.0,0.0,0.0,0.0,0.0,0.0,0.0,0.0,0.0,0.0,0.0,0.0,0.0,0.0,0.0,0.0,0.0,0.0,0.0,0.0,0.0,0.0,0.0,0.0,0.0,0.0,-0.157,-0.1884,-0.2041,0.0,-0.2665,-0.2978,-0.2978,-0.3754,-0.3908,-0.2978,0.0,0.0,0.0,0.0,0.0,0.0,0.0,0.0,0.0,0.0,0.0,0.0,0.0,0.0,0.0,0.0,0.0,0.0,0.0,0.0,0.0,0.0,0.0,0.0,0.0,0.0,0.0,0.0,0.0,0.0,0.0,0.0,0.0,0.0,0.0,0.0,0.0,0.0,0.0,0.0,0.0,0.0,0.0,0.0,0.0,0.0,0.0,0.0,0.0,0.0,0.0,0.0,0.0,0.0,0.0,0.0,0.0,0.0,0.0,0.0,0.0,0.0,0.0,0.0,0.0,0.0,0.0,0.0,0.0,0.0,0.0,0.0,0.0,0.0,0.0,0.0,0.0,0.0,0.0,0.0,0.0,0.0,0.0,0.0,0.0,0.0,0.0,0.0,0.0,0.0,0.0,0.0,0.0,0.0,0.0,0.0,0.0,0.0,0.0,0.0,0.0,0.0,-0.2433,-0.3057,-0.3602,-0.4068,-0.4146,-0.4146,-0.4146,-0.4841,-0.4916,0.0,0.0,0.0,0.0,0.0,0.0,0.0,0.0,0.0,0.0,0.0,0.0,0.0,0.0,0.0,0.0,0.0,0.0,0.0,0.0,0.0,0.0,0.0,0.0,0.0,0.0,0.0,0.0,0.0,0.0,0.0,0.0,0.0,0.0,0.0,0.0,0.0,0.0,0.0,0.0,0.0,0.0,0.0,0.0,0.0,0.0,0.0,0.0,0.0,0.0,0.0,0.0,0.0,0.0,0.0,0.0,0.0,0.0,0.0,0.0,0.0,0.0,0.0,0.0,0.0,0.0,0.0,0.0,0.0,0.0,0.0,0.0,0.0,0.0,0.0,0.0,0.0,0.0,0.0,0.0,0.0,0.0,0.0,0.0,0.0,0.0,0.0,0.0,0.0,0.0,0.0,0.0,0.0,0.0,0.0,0.0,0.0,0.0,0.0,0.0,0.0,0.0,0.0,-0.2899,-0.3599,-0.4142,-0.4295,-0.4844,-0.5157,-0.5157,-0.5931,-0.6009,-0.5154,0.0,0.0,0.0,0.0,0.0,0.0,0.0,0.0,0.0,0.0,0.0,0.0,0.0,0.0,0.0,0.0,0.0,0.0,0.0,0.0,0.0,0.0,0.0,0.0,0.0,0.0,0.0,0.0,0.0,0.0,0.0,0.0,0.0,0.0,0.0,0.0,0.0,0.0,0.0,0.0,0.0,0.0,0.0,0.0,0.0,0.0,0.0,0.0,0.0,0.0,0.0,0.0,0.0,0.0,0.0,0.0,0.0,0.0,0.0,0.0,0.0,0.0,0.0,0.0,0.0,0.0,0.0,0.0,0.0,0.0,0.0,0.0,0.0,0.0,0.0,0.0,0.0,0.0,0.0,0.0,0.0,0.0,0.0,0.0,0.0,0.0,0.0,0.0,0.0,0.0,0.0,0.0,0.0,0.0,0.0,0.0,0.0,0.0,0.0,0.0,0.0,0.0,-0.36,-0.453,-0.5229,-0.5461,-0.5931,-0.6244,-0.6244,-0.671,-0.6788,-0.6167,0.0,0.0,0.0,0.0,0.0,0.0,0.0,0.0,0.0,0.0,0.0,0.0,0.0,0.0,0.0,0.0,0.0,0.0,0.0,0.0,0.0,0.0,0.0,0.0,0.0,0.0,0.0,0.0,0.0,0.0,0.0,0.0,0.0,0.0,0.0,0.0,0.0,0.0,0.0,0.0,0.0,0.0,0.0,0.0,0.0,0.0,0.0,0.0,0.0,0.0,0.0,0.0,0.0,0.0,0.0,0.0,0.0,0.0,0.0,0.0,0.0,0.0,0.0,0.0,0.0,0.0,0.0,0.0,0.0,0.0,0.0,0.0,0.0,0.0,0.0,0.0,0.0,0.0,0.0,0.0,0.0,0.0,0.0,0.0,0.0,0.0,0.0,0.0,0.0,0.0,0.0,0.0,0.0,0.0,0.0,0.0,0.0,0.0,0.0,0.0,0.0,0.0,-0.4411,-0.5581,-0.6595,-0.7227,-0.7305,-0.7301,-0.7285,-0.7285,-0.7196,-0.6942,0.0,0.0,0.0,0.0,0.0,0.0,0.0,0.0,0.0,0.0,0.0,0.0,0.0,0.0,0.0,0.0,0.0,0.0,0.0,0.0,0.0,0.0,0.0,0.0,0.0,0.0,0.0,0.0,0.0,0.0,0.0,0.0,0.0,0.0,0.0,0.0,0.0,0.0,0.0,0.0,0.0,0.0,0.0,0.0,0.0,0.0,0.0,0.0,0.0,0.0,0.0,0.0,0.0,0.0,0.0,0.0,0.0,0.0,0.0,0.0,0.7473,0.0,0.0,0.0,0.0,0.0,0.0,0.0,0.0,0.0,0.0,0.0,0.0,0.0,0.0,0.0,0.0,0.0,0.0,0.0,0.0,0.0,0.0,0.0,0.0,0.0,0.0,0.0,0.0,0.0,0.0,0.0,0.0,0.0,0.0,0.0,0.0,0.0,0.0,0.0,0.0,0.0,-0.5199,-0.659,-0.7655,-0.7821,-0.7821,-0.7765,-0.7715,-0.7703,-0.756,-0.7411,-0.7334,0.0,0.0,0.0,0.0,0.0,0.0,0.0,0.0,0.0,0.0,0.0,0.0,0.0,0.0,0.0,0.0,0.0,0.0,0.0,0.0,0.0,0.0,0.0,0.0,0.0,0.0,0.0,0.0,0.0,0.0,0.0,0.0,0.0,0.0,0.0,0.0,0.0,0.0,0.0,0.0,0.0,0.0,0.0,0.0,0.0,0.0,0.0,0.0,0.0,0.0,0.0,0.0,0.0,0.0,0.0,0.0,0.0,0.0,0.0,0.0,0.6906,0.0,0.0,0.0,0.0,0.0,0.0,0.0,0.0,0.0,0.0,0.0,0.0,0.0,0.0,0.0,0.0,0.0,0.0,0.0,0.0,0.0,0.0,0.0,0.0,0.0,0.0,0.0,0.0,0.0,0.0,0.0,0.0,0.0,0.0,0.0,0.0,0.0,0.0,0.0,0.0,-0.6019,-0.7184,-0.8012,-0.8012,-0.8012,-0.7975,-0.789,-0.7882,-0.7805,-0.7626,-0.754,0.0,0.0,0.0,0.0,0.0,0.0,0.0,0.0,0.0,0.0,0.0,0.0,0.0,0.0,0.0,0.0,0.0,0.0,0.0,0.0,0.0,0.0,0.0,0.0,0.0,0.0,0.0,0.0,0.0,0.0,0.0,0.0,0.0,0.0,0.0,0.0,0.0,0.0,0.0,0.0,0.0,0.0,0.0,0.0,0.0,0.0,0.0,0.0,0.0,0.0,0.0,0.0,0.0,0.7893,0.8159,0.8777,0.7432,0.7269,0.8001,0.7086,0.6102,0.5162,0.0,0.0,0.0,0.0,0.0,0.0,0.0,0.0,0.0,0.0,0.0,0.0,0.0,0.0,0.0,0.0,0.0,0.0,0.0,0.0,0.0,0.0,0.0,0.0,0.0,-0.6244,-0.6687,0.0,0.0,0.0,0.0,0.0,0.0,0.0,0.0,0.0,0.0,0.0,0.0,-0.6766,-0.7605,-0.8109,-0.8109,-0.8109,-0.8097,-0.8065,-0.8061,-0.7988,-0.7813,-0.7776,-0.7691,0.0,0.0,0.0,0.0,0.0,0.0,0.0,0.0,0.0,0.0,0.0,0.0,0.0,0.0,0.0,0.0,0.0,0.0,0.0,0.0,0.0,0.0,0.0,0.0,0.0,0.0,0.0,0.0,0.0,0.0,0.0,0.0,1.3348,1.2713,0.0,0.0,0.0,0.0,0.0,0.0,0.0,0.0,0.0,0.0,0.0,0.0,0.0,0.0,0.8384,0.7603,0.7362,0.7665,0.6514,0.6088,0.6114,0.4304,0.4489,0.6042,0.5913,0.0,0.3212,0.2308,0.0,0.0,0.0,0.0,0.0,0.0,0.0,0.0,0.0,0.0,0.0,0.0,0.0,0.0,0.0,0.0,0.0,0.0,0.0,0.0,0.0,0.0,-0.7139,-0.7506,-0.7724,-0.7772,0.0,-0.6463,-0.5397,-0.5496,-0.5499,0.0,0.0,0.0,0.0,0.0,0.0,0.0,-0.7082,-0.7876,-0.8495,-0.8495,-0.8495,-0.843,-0.8268,-0.8256,-0.8174,-0.7992,-0.7841,-0.7748,-0.7724,-0.7569,0.0,0.0,0.0,0.0,0.0,0.0,0.0,0.0,0.0,0.0,0.0,0.0,0.0,0.0,0.0,0.0,0.0,0.0,0.0,0.0,0.0,0.0,0.0,0.0,0.0,0.0,0.0,0.0,0.0,1.3831,1.3253,1.3087,1.3259,1.341,0.0,0.0,0.0,0.0,0.0,0.0,0.0,0.0,0.0,0.7642,0.7556,0.733,0.6962,0.6529,0.6361,0.6548,0.4931,0.467,0.5679,0.486,0.4954,0.5695,0.5695,0.369,0.0448,0.0537,0.1073,0.17,0.0,0.0,0.0,0.0,0.2227,0.1604,0.1073,0.0358,0.0,0.0,0.0,0.0,0.0,0.0,0.0,0.0,0.0,0.0,0.0,0.0,0.0,-0.8072,-0.8319,-0.8303,-0.8337,-0.7718,-0.7175,0.0,-0.707,-0.6925,-0.6497,0.0,0.0,0.0,0.0,-0.7319,-0.7852,-0.83,-0.8568,-0.8568,-0.8568,-0.8536,-0.845,-0.8446,-0.8365,-0.8182,-0.8097,-0.8012,-0.7906,-0.7732,-0.7638,0.0,0.0,0.0,0.0,0.0,0.0,0.0,0.0,0.0,0.0,0.0,0.0,0.0,0.0,0.0,0.0,0.0,0.0,0.0,0.0,0.0,0.0,0.0,0.0,0.0,0.0,0.0,0.0,1.3526,1.3154,1.3487,1.3072,1.2817,0.0,0.0,0.0,0.0,0.0,0.0,0.8948,0.8448,0.7753,0.6789,0.67,0.6438,0.5735,0.5741,0.5657,0.5665,0.3765,0.3409,0.4232,0.4232,0.4234,0.424,0.3967,0.1799,-0.1348,-0.0538,-0.0627,-0.1075,0.0179,0.0896,0.1164,0.1161,0.0624,-0.0089,-0.009,-0.0628,-0.1436,-0.1436,0.0,-0.1436,-0.1436,0.0,0.0,0.0,0.0,-0.4926,-0.6062,-0.6669,-0.7197,-0.8292,-0.8568,-0.8568,-0.8568,-0.8568,-0.8528,0.0,-0.8361,-0.8229,-0.7566,0.0,0.0,0.0,0.0,-0.7764,-0.8476,-0.8568,-0.8568,-0.8568,-0.8568,-0.8568,-0.8568,-0.8568,-0.8507,-0.8369,-0.8316,-0.8227,-0.8089,-0.7914,-0.7885,-0.784,0.0,0.0,0.0,0.0,0.0,0.0,0.0,0.0,0.0,0.0,0.0,0.0,0.0,0.0,0.0,0.0,0.0,0.0,0.0,0.0,0.0,0.0,0.0,0.0,0.0,0.0,0.0,0.0,0.0,1.3322,1.2049,0.0,0.0,0.0,0.0,0.9712,0.963,0.8856,0.7312,0.7228,0.67,0.5822,0.5733,0.5738,0.5657,0.5738,0.5657,0.5684,0.3771,0.1973,0.027,0.027,0.027,0.027,-0.0809,-0.1349,-0.1529,-0.0899,-0.0719,-0.0809,-0.1166,-0.1257,-0.1258,-0.1256,-0.1255,-0.1345,-0.1345,-0.1345,-0.1436,-0.1436,-0.1436,-0.1436,-0.1436,-0.2057,0.0,0.0,-0.4433,-0.6042,-0.631,-0.7207,-0.8201,-0.8564,-0.8568,-0.8568,-0.8568,-0.8568,-0.8564,0.0,-0.8552,-0.8556,-0.8564,0.0,-0.8568,-0.8568,-0.8568,-0.8568,-0.8568,-0.8568,-0.8568,-0.8568,-0.8568,-0.8568,-0.8568,-0.8568,-0.8564,-0.8556,-0.839,-0.8284,-0.8276,-0.8097,-0.8004,-0.8074,-0.8062,0.0,0.0,0.0,0.0,0.0,0.0,0.0,0.0,0.0,0.0,0.0,0.0,0.0,0.0,0.0,0.0,0.0,0.0,0.0,0.0,0.0,0.0,0.0,0.0,0.0,0.0,0.0,0.0,1.2419,1.095,0.0,1.0428,0.9639,0.8773,0.8006,0.7394,0.6871,0.626,0.6171,0.6086,0.5733,0.5733,0.5738,0.5657,0.4538,0.4483,0.57,0.2504,0.065,-0.0,-0.0738,-0.1005,-0.0989,-0.1079,-0.1297,-0.1553,-0.1359,-0.1319,-0.1259,-0.1436,-0.1525,-0.1436,-0.1436,-0.1436,-0.1446,-0.143,-0.1455,-0.1449,-0.1506,-0.1493,-0.1586,-0.2326,-0.2701,-0.3258,-0.4629,-0.5628,-0.6536,-0.7353,-0.8087,-0.8621,-0.8852,-0.8939,-0.8923,-0.889,-0.8958,-0.8909,-0.8909,-0.8812,-0.8731,-0.8731,-0.8828,-0.8909,-0.8909,-0.8909,-0.8909,-0.8909,-0.8909,-0.8909,-0.8909,-0.8909,-0.8909,-0.8909,-0.88,-0.8731,-0.8731,-0.8564,-0.8471,-0.8471,-0.8292,-0.8246,-0.8429,-0.8474,-0.8635,0.0,0.0,0.0,0.0,0.0,0.0,0.0,0.0,0.0,0.0,0.0,0.0,0.0,0.0,0.0,0.0,0.0,0.0,0.0,0.0,0.0,0.0,0.0,0.0,0.0,0.0,1.0692,1.1278,0.967,0.8628,0.9026,0.8028,0.7071,0.6697,0.6086,0.5733,0.5733,0.5771,0.5703,0.5705,0.5743,0.5769,0.5689,0.38,0.3166,0.3719,0.2541,0.1228,-0.0,-0.0743,-0.1281,-0.1621,-0.1204,-0.1254,-0.1617,-0.1617,-0.157,-0.1593,-0.159,-0.1496,-0.1496,-0.1496,-0.1496,-0.1508,-0.149,-0.1508,-0.1491,-0.1453,-0.1532,-0.1716,-0.2755,-0.3328,-0.3905,-0.569,-0.6507,-0.7141,-0.808,-0.8539,-0.8812,-0.8995,-0.9064,-0.912,-0.9123,-0.9079,-0.9096,-0.9096,-0.8999,-0.8913,-0.8913,-0.9015,-0.9096,-0.9096,-0.9096,-0.9096,-0.9096,-0.9096,-0.9096,-0.9096,-0.9096,-0.9096,-0.9096,-0.8986,-0.8885,-0.8824,-0.8714,-0.8714,-0.8744,-0.8533,-0.8691,-0.9292,-0.9591,-0.9413,-0.872,0.0,0.0,0.0,0.0,0.0,0.0,0.0,0.0,0.0,0.0,0.0,0.0,0.0,0.0,0.0,0.0,0.0,0.0,0.0,0.0,0.0,0.0,0.0,1.0752,1.0423,1.0163,1.0129,0.8185,0.7221,0.7967,0.6477,0.5518,0.5725,0.5735,0.5738,0.5738,0.5847,0.582,0.5734,0.5847,0.5818,0.5736,0.3905,0.1987,-0.0,0.3748,0.3492,-0.0095,-0.0092,-0.0632,-0.1632,-0.1566,-0.1617,-0.1617,-0.1617,-0.1617,-0.1617,-0.1516,-0.1516,-0.1516,-0.1516,-0.1516,-0.1516,-0.1516,-0.1492,-0.1461,-0.1559,-0.1545,-0.1719,-0.2859,-0.3903,-0.4853,-0.5989,-0.7032,-0.798,-0.8262,-0.8539,-0.8753,-0.9052,-0.9099,-0.9145,-0.9155,-0.9095,-0.9116,-0.9116,-0.9116,-0.9112,-0.9104,-0.9108,-0.9116,-0.9116,-0.9116,0.0,-0.9116,-0.9116,-0.9116,-0.9116,-0.9116,-0.9116,-0.9116,-0.9108,-0.9031,-0.8848,-0.8832,-0.8841,-0.8928,-0.8748,-0.926,-1.0643,-1.1473,-1.102,-0.9414,0.0,0.0,0.0,0.0,0.0,0.0,0.0,0.0,0.0,0.0,0.0,0.0,0.0,0.0,0.0,0.0,0.0,0.0,0.0,0.0,0.0,0.0,0.9552,1.0067,0.8398,0.7253,0.7716,0.639,0.5681,0.6328,0.5963,0.5697,0.573,0.5809,0.5855,0.5855,0.5885,0.5951,0.5951,0.4553,0.436,0.5654,0.5184,0.3267,-0.0,0.0293,-0.0099,-0.1193,-0.1181,-0.1274,-0.157,-0.1603,-0.1617,-0.1617,-0.1617,-0.1617,-0.1617,-0.1617,-0.1617,-0.1617,-0.1617,-0.1617,-0.1617,-0.1617,-0.1609,-0.17,-0.2496,-0.2688,-0.3075,-0.4952,-0.5149,-0.5145,-0.7217,-0.7615,-0.7619,-0.8698,-0.9186,-0.9389,-0.9421,-0.9502,-0.949,-0.9421,-0.9502,-0.9482,-0.9482,-0.9482,-0.9441,-0.9307,-0.9393,-0.9482,-0.9482,-0.9482,0.0,-0.9482,-0.9482,-0.9482,-0.9482,-0.9482,-0.9482,-0.9482,-0.936,-0.9263,-0.921,-0.9092,-0.9029,-0.9114,-0.9106,-0.9632,-1.0893,-1.1155,-1.1359,0.0,0.0,0.0,0.0,0.0,0.0,0.0,0.0,0.0,0.0,0.0,0.0,0.0,0.0,0.0,0.0,0.0,0.0,0.0,0.0,0.0,0.0,0.8773,0.7731,0.799,0.6873,0.6078,0.6154,0.5619,0.5339,0.5633,0.5733,0.5754,0.5801,0.5823,0.589,0.5893,0.5431,0.4816,0.4336,0.3106,0.2527,0.2995,0.2943,0.187,-0.0391,-0.1,-0.1415,-0.1617,-0.1617,-0.1617,0.0,-0.1617,-0.1617,-0.1617,-0.1617,-0.1617,0.0,0.0,0.0,0.0,0.0,-0.1617,-0.1617,-0.1617,-0.1617,-0.1718,-0.2321,-0.2822,-0.3525,-0.5229,-0.5629,-0.5829,-0.7733,-0.7935,-0.7935,-0.8832,-0.9232,-0.943,-0.9529,-0.9628,-0.9628,-0.9628,-0.9628,-0.9628,-0.9628,-0.9628,0.0,-0.9486,-0.9555,-0.9628,-0.9628,-0.9628,-0.9628,-0.9628,-0.9628,-0.9628,-0.9628,-0.9628,-0.9628,-0.9628,-0.9628,0.0,0.0,0.0,-0.9677,-1.0117,-1.0561,0.0,0.0,0.0,-1.2206,-1.1954,0.0,0.0,0.0,-0.9727,-0.9322,0.0,0.0,0.0,0.0,0.0,0.0,0.0,0.0,0.0,0.0,0.0,0.0,0.0,0.0,0.0,0.0,0.6946,0.5371,0.5371,0.5649,0.583,0.5374,0.5372,0.5444,0.5652,0.5676,0.5727,0.5823,0.5761,0.5831,0.6024,0.0,0.0,0.0,0.0,0.0504,-0.0909,-0.0909,-0.0909,-0.0909,-0.0909,-0.1111,-0.1617,-0.1617,-0.1617,-0.1617,-0.1617,-0.1617,-0.1617,-0.1617,-0.1617,-0.1617,-0.1617,-0.1617,-0.1617,-0.1617,-0.1617,-0.1617,-0.1617,0.0,0.0,-0.1919,-0.2723,-0.3725,-0.4826,-0.5829,-0.6836,-0.7839,-0.8233,-0.8531,-0.8825,-0.9031,-0.9331,-0.9529,-0.9628,-0.9628,-0.9628,-0.9628,-0.9628,-0.9628,-0.9628,-0.9628,-0.9628,-0.9628,-0.9628,-0.9628,-0.9628,-0.9628,-0.9628,-0.9628,-0.9628,-0.9628,0.0,0.0,-0.9628,-0.9826,-0.9947,-0.9874,-1.0031,-1.0508,-1.1246,-1.2462,-1.2603,-1.172,-1.3305,-1.3417,-1.1796,-1.2272,-1.2589,-1.2662,-1.0632,-0.9635,0.0,0.0,0.0,0.0,0.0,0.0,0.0,0.0,0.0,0.0,0.0,0.0,0.0,0.0,0.0,0.7793,0.6325,0.5282,0.4926,0.4999,0.5022,0.4848,0.4821,0.4938,0.5221,0.5498,0.5751,0.5771,0.5981,0.6147,0.6149,0.5976,0.0,0.5532,0.1309,-0.1111,-0.1415,-0.1415,-0.1415,-0.1415,0.0,0.0,-0.1617,-0.1617,-0.1617,-0.1617,-0.1617,-0.1617,-0.1617,-0.1617,-0.1617,-0.1617,-0.1617,-0.1617,-0.1617,-0.1617,-0.1617,-0.1617,-0.1617,-0.212,-0.3022,-0.3924,-0.4926,-0.5932,-0.7036,-0.7537,0.0,-0.8432,-0.8726,-0.8825,-0.9327,-0.9529,-0.9529,-0.9628,-0.9628,-0.9628,-0.9628,-0.9628,-0.9628,-0.9628,-0.9628,-0.9628,-0.9628,-0.9628,-0.9628,-0.9628,-0.9628,-0.9628,-0.9628,-0.9628,-0.9628,-0.9628,-0.9628,-0.9628,-0.9628,-0.9826,-1.0006,-0.9968,-1.0215,-1.0491,-1.064,-1.2453,-1.3321,-1.314,-1.3937,-1.4581,-1.5033,-1.2709,-1.1997,-1.2674,-1.2234,-1.1601,0.0,0.0,0.0,0.0,0.0,0.0,0.0,0.0,0.0,0.0,0.0,1.2863,1.1107,0.0,0.8674,0.6584,0.545,0.4764,0.4544,0.4593,0.4697,0.5103,0.505,0.5101,0.5339,0.4961,0.4726,0.4726,0.4322,0.4074,0.3877,0.3413,0.2927,0.2422,-0.0202,-0.1617,-0.1617,-0.1617,-0.1617,-0.1617,-0.1617,-0.1617,-0.1617,-0.1617,-0.1617,-0.1617,-0.1617,-0.1617,-0.1617,-0.1617,-0.1617,-0.1617,-0.1617,-0.1617,-0.1617,-0.1617,-0.1919,-0.2422,-0.2422,-0.3123,-0.4124,-0.4624,-0.5529,-0.6537,-0.7036,-0.7637,-0.8237,-0.8531,-0.8829,-0.9031,-0.9331,-0.9529,-0.9628,-0.9628,-0.9628,-0.9628,-0.9628,-0.9628,-0.9628,-0.9628,-0.9628,-0.9628,-0.9628,-0.9628,-0.9628,-0.9628,-0.9628,-0.9628,-0.9628,-0.9628,-0.9628,-0.9628,-0.9628,-0.9628,-0.9628,-1.0404,-1.1277,-1.1868,-1.1763,-1.2086,-1.3126,-1.2983,-1.313,-1.3774,-1.3866,-1.4173,-1.4723,-1.3586,-1.3605,-1.4562,-1.4562,-1.3194,0.0,0.0,0.0,0.0,0.0,0.0,0.0,0.0,1.3802,1.3137,1.2881,1.2089,0.999,0.8852,0.7632,0.5633,0.4764,0.4351,0.4424,0.4278,0.4392,0.5139,0.5023,0.5072,0.5458,0.4378,0.3638,0.3342,0.3094,0.2519,0.1815,0.0403,-0.0706,-0.1617,-0.1617,-0.1617,-0.1617,-0.1617,-0.1718,-0.2022,-0.1718,-0.1718,-0.1921,-0.1718,-0.1718,-0.1921,-0.2123,-0.2123,-0.1921,-0.1921,-0.1921,-0.1921,-0.1921,-0.2022,-0.2224,-0.202,-0.2622,-0.3524,-0.3524,-0.4225,-0.5127,-0.5127,-0.5829,-0.6736,-0.6736,-0.7534,-0.8432,-0.8432,-0.8832,-0.9236,-0.9232,-0.943,-0.9628,-0.9628,-0.9628,-0.9628,-0.9628,-0.9628,-0.9628,-0.9628,-0.9628,-0.9628,-0.9628,-0.9628,-0.9628,-0.9628,-0.9628,-0.9628,-0.9628,-0.9628,-0.9628,-0.9628,-0.9628,-0.9628,-0.9723,-1.0984,-1.2247,-1.3607,-1.3022,-1.3494,-1.5412,-1.3874,-1.3297,-1.4054,-1.4056,-1.3822,-1.3562,-1.4224,-1.4917,-1.5555,-1.537,-1.3692,2.044,1.7971,1.6026,1.5861,1.472,1.3476,0.0,0.0,1.2448,1.1693,1.0901,0.9937,0.8615,0.7467,0.6239,0.5015,0.455,0.4424,0.4434,0.3713,0.3404,0.3697,0.3509,0.371,0.4692,0.3874,0.2911,0.1905,0.4338,0.4855,0.2422,-0.0101,-0.1515,-0.1617,-0.1617,-0.1617,-0.1617,-0.1617,-0.2224,-0.3542,-0.2224,-0.2123,-0.3034,-0.2022,-0.2123,-0.3035,-0.4051,-0.3949,-0.3035,-0.3035,-0.3035,-0.3035,-0.3035,-0.3644,-0.4354,-0.333,-0.3725,-0.4624,-0.4624,-0.5327,-0.6234,-0.6234,-0.6936,-0.7839,-0.7839,-0.8137,-0.8432,-0.8726,-0.8931,-0.9236,-0.9529,-0.9529,-0.9628,-0.9628,-0.9628,-0.9628,-0.9628,-0.9628,-0.9628,-0.9628,-0.9628,-0.9628,-0.9628,-0.9628,-0.9628,-0.9628,-0.9628,-0.9628,-0.9628,-0.9628,-0.9628,-0.9628,-0.9628,-0.9821,-1.0314,-1.0703,-1.1477,-1.2732,-1.2732,-1.321,-1.4459,-1.5095,-1.5082,-1.4321,-1.5742,-1.5593,-1.3728,-1.3683,-1.3211,-1.2392,-1.1574,-1.2188,1.8186,1.6511,1.5448,1.4629,1.3893,1.3222,1.2534,1.2363,1.2198,1.1435,1.0559,0.9593,0.8444,0.7207,0.6,0.0,0.4595,0.4471,0.4579,0.3684,0.3146,0.3282,0.2289,0.1991,0.2987,0.2005,0.1108,0.0705,0.1311,0.1211,0.0101,-0.101,-0.1516,-0.1314,-0.1516,-0.1617,-0.1617,-0.2325,-0.2933,-0.3543,-0.3723,-0.4028,-0.4356,-0.3949,-0.4038,-0.442,-0.4924,-0.4824,-0.442,-0.4448,-0.4457,-0.4455,-0.4429,-0.5127,-0.5839,-0.4628,-0.4826,-0.5729,-0.5729,-0.6431,-0.7338,-0.7338,-0.764,-0.8038,-0.8038,-0.8336,-0.8627,-0.8726,-0.9126,-0.943,-0.9529,-0.9628,-0.9628,-0.9628,-0.9628,-0.9628,-0.9628,-0.9628,-0.9628,-0.9628,-1.0109,-1.0301,-0.9727,-1.0113,-1.0306,-0.9723,-0.9628,-0.9628,-0.9628,-0.9628,-0.9628,-0.9826,-0.9821,-1.0216,-1.1292,-1.2155,-1.3113,-1.4178,-1.4459,-1.4937,-1.5988,-1.5317,-1.5032,-1.5127,-1.5302,-1.5236,-1.4948,-1.4278,-1.4036,-1.4123,-1.3185,-1.3291,1.6495,1.5372,1.4713,1.347,1.2966,1.2711,1.2198,1.2112,1.1854,1.1084,1.0207,0.9152,0.8097,0.6982,0.5882,0.5069,0.4756,0.4555,0.4296,0.3345,0.2579,0.2313,0.0907,0.0202,0.0907,0.0101,-0.0403,-0.0403,-0.1111,-0.1617,-0.1617,-0.1415,-0.1317,-0.1221,-0.1527,-0.1837,-0.2153,-0.2964,-0.3783,-0.4413,-0.5039,-0.548,-0.5728,-0.5728,-0.5707,-0.5772,-0.5982,-0.598,-0.567,-0.5606,-0.5622,-0.562,-0.5581,-0.6292,-0.7132,-0.6105,-0.6266,-0.7009,-0.7009,-0.7532,-0.8157,-0.8133,-0.8116,-0.8102,-0.8102,-0.8468,-0.8825,-0.8825,-0.9225,-0.9628,-0.9628,-0.9628,-0.9628,-0.9628,-0.9628,-0.9723,-1.0015,-1.0015,-1.0015,-1.0015,-1.0886,-1.1272,-1.0207,-1.069,-1.1077,-1.0502,-1.0207,-1.0015,-1.0015,-1.0306,-1.0502,-1.0502,-1.089,-1.1473,-1.2452,-1.3403,-1.4459,-1.5425,-1.5704,-1.6278,-1.7232,-1.5893,-1.5317,-1.5798,-1.5317,-1.5222,-1.5412,-1.4937,-1.4746,-1.493,-1.4364,-1.3992,1.5944,1.4629,1.3307,1.2619,1.186,1.1348,1.1354,1.1348,1.1089,1.012,0.9157,0.8281,0.7316,0.6274,0.5537,0.517,0.5054,0.4596,0.3328,0.2289,0.131,0.0202,-0.0908,-0.1516,0.0,-0.1516,-0.1516,-0.1516,-0.1617,-0.1617,-0.1617,-0.1111,-0.1121,-0.166,-0.1661,-0.2301,-0.3401,-0.346,-0.4614,-0.6809,-0.5791,-0.587,-0.6882,-0.6882,-0.6879,-0.6879,-0.7781,-0.7665,-0.6654,-0.6433,-0.6323,-0.6323,-0.632,-0.7105,-0.8232,-0.8232,-0.8334,-0.8436,-0.8436,-0.8498,-0.8455,-0.8467,-0.8405,-0.8262,-0.8262,-0.8557,-0.8825,-0.8825,-0.9225,-0.9628,-0.9628,-0.9628,-0.9628,-0.9628,-0.9628,-0.9916,-1.0886,-1.1175,-1.1175,-1.1175,-1.195,-1.2339,-1.1365,-1.1175,-1.156,-1.2436,-1.1755,-1.1175,-1.1175,-1.2242,-1.2727,-1.195,-1.3006,-1.3776,-1.3878,-1.4076,-1.4746,-1.5704,-1.5798,-1.6278,-1.7232,-1.7232,-1.6756,-1.5798,-1.6756,-1.6278,-1.4364,-1.5317,-1.474,-1.2829,-1.3318,-1.3232,1.4552,1.3598,1.2784,1.2096,1.1871,1.1811,1.1811,1.1811,1.1542,1.0538,1.0081,0.9345,0.7707,0.6827,0.6236,0.5465,0.4465,0.3638,0.3188,0.1605,0.0403,-0.0,-0.0908,0.0,0.0,0.0,0.0,-0.1617,-0.1617,-0.2133,-0.3184,-0.2773,-0.321,-0.4851,-0.4323,-0.4334,-0.4676,-0.5437,-0.6293,-0.7034,-0.7471,-0.7916,-0.8257,-0.8257,-0.8257,-0.8257,-0.8598,-0.8491,-0.813,-0.813,-0.8027,-0.8027,-0.8027,-0.8368,-0.8712,-0.8712,-0.8739,-0.874,-0.8517,-0.8515,-0.8476,-0.8549,-0.8472,-0.8394,-0.8431,-0.8788,-0.916,-0.916,-0.9571,-0.9953,-0.9831,-0.9799,-0.977,-0.9657,-0.9628,-0.9723,-1.0015,-1.069,-1.117,-1.117,-1.2635,-1.3414,-1.2339,-1.2829,-1.3414,-1.3986,-1.3017,-1.2242,-1.2242,-1.2732,-1.3022,-1.2926,-1.3494,-1.3974,-1.4172,-1.4841,-1.5412,-1.5798,-1.6466,-1.6943,-1.7326,-1.7326,-1.7138,-1.6756,-1.7138,-1.6943,-1.6278,-1.5988,-1.5127,-1.3788,-1.3216,-1.2937,1.3848,1.3138,1.258,1.198,1.1935,1.214,1.214,1.214,1.1676,1.0288,1.0001,0.944,0.7392,0.6392,0.5875,0.5669,0.443,0.3276,0.2815,0.1611,0.0403,-0.0504,-0.1212,-0.1617,0.0,0.0,0.0,-0.1633,-0.2129,-0.2849,-0.3935,-0.4038,-0.4592,-0.5953,-0.5561,-0.5485,-0.595,-0.6758,-0.7308,-0.7699,-0.8523,-0.894,-0.894,-0.894,-0.894,-0.894,-0.8826,-0.8831,-0.8791,-0.8788,-0.8788,-0.8788,-0.8788,-0.8817,-0.8826,-0.8826,-0.8826,-0.8826,-0.8712,-0.8696,-0.8645,-0.8645,-0.8652,-0.8541,-0.8584,-0.8952,-0.9328,-0.9328,-0.9746,-1.0136,-1.0014,-1.0288,-1.0459,-0.9944,-1.0362,-1.0902,-1.0807,-1.1624,-1.2339,-1.2339,-1.3703,-1.4484,-1.3414,-1.4094,-1.4771,-1.4758,-1.4274,-1.389,-1.3698,-1.4178,-1.4465,-1.437,-1.4841,-1.5216,-1.5317,-1.5988,-1.6372,-1.6372,-1.6943,-1.7326,-1.7326,-1.7326,-1.7326,-1.7326,-1.7326,-1.7326,-1.7326,-1.6662,-1.5609,-1.4268,-1.3788,-1.3323,1.3809,1.3197,1.2572,1.2188,1.2167,1.2178,1.2178,1.2086,1.1523,0.9571,0.9104,0.8543,0.0,0.0,0.4602,0.5684,0.4674,0.332,0.2114,0.1812,0.1007,0.0,0.0,0.0,0.0,0.0,0.0,-0.1766,0.0,-0.3867,-0.3938,-0.4765,-0.522,-0.532,-0.5411,-0.6051,-0.7152,-0.7152,-0.7823,-0.894,-0.894,-0.894,-0.894,-0.894,-0.894,-0.8937,-0.8712,-0.8712,-0.8712,-0.8598,-0.8484,-0.8484,-0.8484,-0.8598,-0.8712,-0.8712,-0.8826,-0.894,-0.894,-0.894,-0.894,-0.894,-0.8842,-0.8723,-0.8723,-0.9051,-0.9354,-0.9354,-0.977,-1.0289,-1.0281,-1.1101,-1.161,-1.0577,-1.1856,-1.3203,-1.3009,-1.3716,-1.4316,-1.4316,-1.507,-1.554,-1.4586,-1.5159,-1.5534,-1.4854,-1.5635,-1.6028,-1.5534,-1.64,-1.6683,-1.5893,-1.6749,-1.7326,-1.7326,-1.7326,-1.7326,-1.7326,-1.7326,-1.7326,-1.7326,-1.7326,-1.7326,-1.7326,-1.7326,-1.7326,-1.7326,-1.7326,-1.6271,-1.4268,-1.4854,-1.4292,1.3242,1.2756,1.2428,1.2307,1.2452,1.2581,1.2581,1.199,1.1019,0.9761,0.947,0.8788,0.0,0.0,0.0,0.4593,0.2507,0.0,0.0604,-0.0202,0.0,-0.1516,0.0,-0.1617,-0.1617,-0.2331,0.0,0.0,-0.3198,-0.4247,-0.6003,-0.6325,-0.6948,-0.7932,-0.7974,-0.8121,-0.8491,-0.8491,-0.8602,-0.894,-0.894,-0.894,-0.894,-0.894,-0.894,-0.894,-0.8826,-0.8826,-0.8826,-0.8826,-0.8826,-0.8826,-0.8826,-0.8826,-0.8826,-0.8826,-0.8826,-0.894,-0.894,-0.894,-0.894,-0.894,-0.8913,-0.8879,-0.8879,-0.929,-0.9689,-0.9689,-1.0124,-1.0741,-1.1451,-1.1939,-1.2207,-1.2658,-1.3083,-1.3447,-1.3447,-1.4067,-1.4588,-1.4588,-1.5204,-1.5737,-1.5445,-1.5635,-1.5825,-1.6103,-1.6298,-1.6494,-1.6298,-1.669,-1.6885,-1.6683,-1.7052,-1.7326,-1.7326,-1.7326,-1.7326,-1.7326,-1.7326,-1.7326,-1.7326,-1.7326,-1.7326,-1.7326,-1.7326,-1.7326,-1.7326,-1.7326,-1.6271,-1.4268,-1.4459,-1.3896,1.3058,1.267,1.2436,1.2544,1.2667,1.2662,1.2165,1.1668,1.0779,0.9209,0.8913,0.8418,0.6734,0.5222,0.0,0.0,0.0,0.0,0.0202,-0.0303,-0.0909,0.0,-0.2019,0.0,-0.2321,-0.3349,-0.418,0.0,-0.4735,-0.5417,-0.6782,-0.7372,-0.8012,-0.8832,-0.8903,-0.894,-0.894,-0.894,-0.894,-0.894,-0.894,-0.894,-0.894,-0.894,-0.894,-0.894,0.0,-0.894,-0.894,-0.894,-0.894,-0.894,-0.894,-0.894,-0.894,-0.894,-0.894,-0.894,-0.894,-0.894,-0.894,-0.894,-0.894,-0.894,-0.894,-0.9268,-0.9923,-1.0464,-1.1008,-1.1638,-1.2812,-1.3417,-1.3811,-1.3771,-1.4493,-1.5035,-1.4516,-1.504,-1.5524,-1.5404,-1.5641,-1.5832,-1.5832,-1.5832,-1.6015,-1.6487,-1.6588,-1.6676,-1.6864,-1.7059,-1.7153,-1.7153,-1.7239,-1.7326,-1.7326,-1.7326,-1.7326,-1.7326,-1.7326,-1.7326,-1.7326,-1.7326,-1.7326,-1.7326,-1.7326,-1.7326,-1.7326,-1.685,-1.5798,-1.4268,-1.3788,-1.3318,1.2989,1.2713,1.2506,1.2614,1.2565,1.2262,1.1272,1.0877,1.0288,0.8418,0.7922,0.7528,0.6534,0.4325,0.302,0.3925,0.0,0.0302,0.0202,0.0101,-0.0303,-0.1616,-0.2622,-0.3224,-0.3425,-0.4389,-0.5426,-0.6364,-0.6771,-0.699,-0.6887,-0.8087,-0.872,-0.874,-0.8869,-0.894,-0.894,-0.894,-0.894,-0.894,-0.894,-0.894,-0.894,-0.894,-0.894,-0.894,0.0,0.0,-0.894,-0.894,-0.894,-0.894,-0.894,-0.894,-0.894,-0.894,-0.894,-0.894,-0.894,-0.894,-0.894,-0.894,-0.894,-0.8937,-0.9047,-0.9592,-1.0249,-1.1437,-1.2177,-1.2803,-1.3981,-1.5056,-1.5589,-1.4731,-1.5872,-1.6995,-1.5933,-1.6215,-1.662,-1.6333,-1.6032,-1.5832,-1.5832,-1.5832,-1.6015,-1.6487,-1.6588,-1.677,-1.7239,-1.7326,-1.7326,-1.7326,-1.7326,-1.7326,-1.7326,-1.7326,-1.7326,-1.7326,-1.7326,-1.7326,-1.7326,-1.7326,-1.7326,-1.7326,-1.7326,-1.7232,-1.7138,-1.6278,-1.5222,-1.4076,-1.3113,-1.2743,1.258,1.2465,1.2517,1.1658,1.1468,1.1175,1.0096,0.9209,0.0,0.812,0.7329,0.6634,0.6434,0.5131,0.3725,0.2919,0.141,-0.0,-0.1111,-0.1212,-0.1716,0.0,-0.3123,-0.3524,-0.4425,0.0,0.0,0.0,0.0,-0.8138,-0.8164,-0.8518,-0.8767,-0.8896,-0.8923,-0.894,-0.894,-0.894,-0.894,-0.894,-0.894,-0.894,-0.894,-0.894,-0.894,-0.894,-0.894,0.0,-0.894,-0.894,-0.894,-0.894,-0.894,-0.894,-0.894,-0.894,-0.894,-0.894,-0.894,-0.894,-0.894,-0.894,-0.894,-0.9047,-1.0131,-1.0781,-1.1437,-1.2635,-1.3255,-1.3741,-1.4897,-1.5321,-1.5738,-1.6477,-1.7153,-1.7508,-1.7292,-1.6979,-1.662,-1.6333,-1.6032,-1.5832,-1.5832,-1.5832,-1.6015,-1.6487,-1.6588,-1.677,-1.7239,-1.7326,-1.7326,-1.7326,-1.7326,-1.7326,-1.7326,-1.7326,-1.7326,-1.7326,-1.7326,-1.7326,-1.7326,-1.7326,-1.7326,-1.7326,-1.7326,-1.685,-1.6082,-1.5893,-1.4835,-1.3017,-1.2823,-1.2549,1.2318,1.201,1.1868,1.137,1.0779,1.0096,0.9011,0.0,0.0,0.7329,0.6734,0.6437,0.6437,0.5331,0.4128,0.3224,0.1612,-0.0101,-0.1414,-0.212,-0.2622,-0.3123,-0.4227,-0.5029,0.0,0.0,0.0,0.0,0.0,-0.8516,-0.8598,-0.8747,-0.8862,-0.8937,-0.894,-0.894,-0.894,-0.894,-0.894,-0.894,-0.894,-0.894,-0.894,-0.894,-0.894,-0.894,-0.894,0.0,-0.894,-0.894,-0.894,-0.894,-0.894,-0.894,-0.894,-0.894,-0.894,-0.894,-0.894,-0.9265,-0.9805,-0.9805,-0.9805,-0.9915,-1.0566,-1.1542,-1.2611,-1.3683,-1.4301,-1.4804,-1.5813,-1.6088,-1.6228,-1.7005,-1.7368,-1.7582,-1.7582,-1.7241,-1.6854,-1.6553,-1.6259,-1.6012,-1.5852,-1.5927,-1.6116,-1.6494,-1.6683,-1.6965,-1.7239,-1.7326,-1.7326,-1.7326,-1.7326,-1.7326,-1.7326,-1.7326,-1.7326,-1.7326,-1.7326,-1.7326,-1.7326,-1.7326,-1.7037,-1.656,-1.7044,-1.656,-1.5032,-1.5032,-1.4268,-1.2727,-1.2155,-1.2068,1.1951,1.1527,1.1072,1.0676,0.9895,0.9011,0.7922,0.7624,0.7428,0.6534,0.6437,0.6437,0.6437,0.5536,0.4634,0.393,0.2217,0.0302,-0.1817,-0.2823,-0.3425,0.0,-0.5331,0.0,-0.6736,0.0,0.0,0.0,0.0,0.0,-0.8754,-0.8872,-0.894,-0.894,-0.894,-0.894,-0.894,-0.894,-0.894,-0.894,-0.894,-0.894,-0.894,-0.894,-0.894,-0.894,-0.894,0.0,0.0,-0.894,-0.894,-0.894,-0.894,-0.894,-0.894,-0.894,-0.894,-0.8937,-0.9154,-0.9915,-1.0781,-1.1,-1.1105,-1.1109,-1.1433,-1.2488,-1.3826,-1.4803,-1.5287,-1.5763,-1.6467,-1.6613,-1.67,-1.7068,-1.7321,-1.7508,-1.7569,-1.7355,-1.7061,-1.6767,-1.6473,-1.6179,-1.5885,-1.6028,-1.6312,-1.6683,-1.6878,-1.7066,-1.7239,-1.7326,-1.7326,-1.7326,-1.7326,-1.7326,-1.7326,-1.7326,-1.7326,-1.7326,-1.7326,-1.7326,-1.7326,-1.7138,-1.656,-1.5798,-1.6372,-1.5798,-1.398,-1.398,-1.3499,-1.2543,-1.158,-1.1683,1.0935,1.0958,1.0779,0.881,0.8219,0.7826,0.6833,0.0,0.6537,0.6437,0.6437,0.6437,0.6437,0.625,0.5651,0.4033,0.3328,0.1411,-0.3024,-0.3729,-0.4331,-0.5934,0.0,0.0,-0.7739,0.0,0.0,0.0,0.0,0.0,-0.8916,-0.893,-0.894,-0.894,-0.894,-0.894,-0.894,-0.894,-0.894,-0.894,-0.894,-0.894,-0.894,-0.894,-0.894,-0.894,-0.894,0.0,0.0,-0.894,-0.894,-0.894,-0.894,-0.894,-0.894,-0.894,-0.894,-0.9047,-1.0131,-1.0566,-1.0891,-1.1873,-1.22,-1.2521,-1.3819,-1.4316,-1.4775,-1.6122,-1.6364,-1.6248,-1.6319,-1.6313,-1.6453,-1.7014,-1.7174,-1.7261,-1.7522,-1.7355,-1.7061,-1.6767,-1.6473,-1.6283,-1.6177,-1.6218,-1.6414,-1.6885,-1.6979,-1.7066,-1.7239,-1.7326,-1.7326,-1.7326,-1.7326,-1.7326,-1.7326,-1.7326,-1.7326,-1.7326,-1.7326,-1.7326,-1.7326,-1.6466,-1.5893,-1.5798,-1.5032,-1.398,-1.2823,-1.2823,-1.2543,-1.2073,-1.1487,-1.1487,1.0624,0.9819,0.8975,0.8195,0.7528,0.6933,0.6534,0.6437,0.6437,0.6437,0.6437,0.6439,0.635,0.6358,0.6163,0.5461,0.4142,0.2118,-0.1109,-0.3226,-0.4861,-0.6134,-0.6897,0.0,0.0,0.0,0.0,0.0,0.0,0.0,-1.0025,-0.9265,-0.894,-0.894,-0.894,-0.894,-0.894,-0.894,-0.894,-0.894,-0.894,-0.894,-0.894,-0.894,-0.894,-0.894,-0.894,0.0,0.0,-0.894,-0.894,-0.894,-0.894,-0.894,-0.8937,-0.9699,-0.9851,-0.9873,-1.1052,-1.1829,-1.2355,-1.2885,-1.3519,-1.4074,-1.4206,-1.4821,-1.5522,-1.6079,-1.6262,-1.6233,-1.6052,-1.6139,-1.6333,-1.6567,-1.6894,-1.7181,-1.7295,-1.7368,-1.7268,-1.68,-1.6613,-1.6386,-1.6014,-1.6211,-1.6494,-1.6683,-1.6965,-1.7239,-1.7333,-1.7326,-1.7326,-1.7326,-1.7326,-1.7326,-1.7326,-1.7326,-1.7326,-1.7326,-1.7326,-1.7326,-1.7326,-1.6372,-1.5798,-1.5798,-1.4841,-1.3782,-1.2727,-1.2727,-1.2446,-1.198,-1.1487,-1.1683,0.9692,0.8687,0.7724,0.754,0.6907,0.6437,0.6437,0.6437,0.6437,0.6437,0.6439,0.6448,0.6361,0.6366,0.6374,0.6388,0.4045,0.1716,-0.0,-0.262,-0.476,0.0,0.0,0.0,0.0,0.0,0.0,0.0,0.0,0.0,0.0,-1.0241,-0.9809,-0.9482,-0.9047,-0.894,-0.894,-0.894,-0.9047,-0.9482,-0.9478,-0.9485,-0.9396,-0.9485,-0.9261,-0.8937,0.0,0.0,0.0,-0.9809,-0.9673,-0.9413,-0.9738,-0.9599,-0.9446,-1.0513,-1.086,-1.0856,-1.2016,-1.2858,-1.3448,-1.376,-1.4433,-1.4921,-1.4572,-1.5113,-1.5844,-1.5947,-1.6115,-1.6092,-1.5885,-1.5985,-1.6166,-1.6253,-1.6653,-1.7041,-1.7134,-1.7375,-1.7408,-1.682,-1.6707,-1.652,-1.6123,-1.6305,-1.6494,-1.6683,-1.6965,-1.7239,-1.7239,-1.7239,-1.7326,-1.7326,-1.7326,-1.7326,-1.7326,-1.7326,-1.7326,-1.7326,-1.7326,-1.7326,-1.7326,-1.6372,-1.5798,-1.5798,-1.4459,-1.3499,-1.2727,-1.2441,-1.216,-1.198,-1.1487,-1.1688,0.7898,0.757,0.7604,0.6557,0.6355,0.6437,0.6437,0.6437,0.6437,0.6437,0.635,0.6364,0.6364,0.6377,0.639,0.639,0.2829,-0.0202,-0.0704,-0.2211,-0.3919,0.0,0.0,0.0,0.0,0.0,0.0,0.0,0.0,0.0,0.0,-1.176,-1.1869,-1.0672,-0.9482,-0.894,-0.894,-0.894,-0.9478,-1.0672,-1.066,-1.0692,-1.0659,-1.0688,-1.001,0.0,0.0,0.0,0.0,-1.1873,-1.1652,-1.0527,-1.1584,-1.1252,-1.0248,-1.1169,-1.1578,-1.1784,-1.2931,-1.3346,-1.355,-1.4695,-1.4932,-1.4819,-1.5306,-1.5503,-1.5594,-1.6175,-1.6059,-1.5832,-1.5832,-1.5832,-1.5905,-1.6206,-1.65,-1.6794,-1.7088,-1.7375,-1.7408,-1.682,-1.6707,-1.6718,-1.6592,-1.6407,-1.6414,-1.6885,-1.6979,-1.6979,-1.6979,-1.7153,-1.7326,-1.7326,-1.7326,-1.7326,-1.7326,-1.7326,-1.7326,-1.7326,-1.7326,-1.7326,-1.7326,-1.6372,-1.5798,-1.5798,-1.3782,-1.2732,-1.2727,-1.1673,-1.1487,-1.198,-1.1487,-1.1487,0.7728,0.7017,0.6559,0.644,0.641,0.6439,0.6353,0.6445,0.6442,0.6361,0.6364,0.6366,0.638,0.6388,0.5471,0.2526,0.0909,-0.1111,0.0,0.0,0.0,0.0,0.0,0.0,0.0,0.0,0.0,0.0,0.0,0.0,0.0,-1.3398,-1.2743,-1.0781,-1.1114,-1.1328,-1.1328,-1.1328,-1.1437,-1.1869,-1.1837,-1.1833,-1.186,-1.1088,0.0,0.0,0.0,0.0,0.0,-1.2047,-1.1852,-1.1566,-1.1631,-1.1426,-1.1268,-1.2407,-1.2725,-1.2697,-1.3919,-1.4208,-1.405,-1.4454,-1.4601,-1.4727,-1.5114,-1.5216,-1.5306,-1.578,-1.5905,-1.5832,-1.5832,-1.5832,-1.5852,-1.5945,-1.6346,-1.6734,-1.6827,-1.7235,-1.7408,-1.682,-1.6707,-1.652,-1.6123,-1.6123,-1.6224,-1.6414,-1.6791,-1.6979,-1.6979,-1.7153,-1.7326,-1.7326,-1.7326,-1.7326,-1.7326,-1.7326,-1.7326,-1.7326,-1.7326,-1.7326,-1.7326,-1.6372,-1.5798,-1.5798,-1.3782,-1.2727,-1.2727,-1.1678,-1.1292,-1.1492,-1.1688,-1.1683,0.7063,0.6514,0.6132,0.6325,0.641,0.645,0.6361,0.5744,0.5438,0.6268,0.6374,0.6377,0.6388,0.5063,0.2626,-0.1718,-0.2426,-0.3132,0.0,0.0,0.0,0.0,0.0,0.0,0.0,0.0,0.0,0.0,0.0,0.0,0.0,-1.46,-1.3943,-1.21,-1.2309,-1.2417,-1.2417,-1.2417,-1.2635,-1.3073,-1.3038,-1.3131,-1.3028,-1.2394,0.0,0.0,0.0,0.0,0.0,-1.3131,-1.2883,-1.2481,-1.2649,-1.2435,-1.2158,-1.3274,-1.3584,-1.3554,-1.4258,-1.4443,-1.4298,-1.4298,-1.4592,-1.4885,-1.5172,-1.5267,-1.5458,-1.5737,-1.5832,-1.5832,-1.5832,-1.5832,-1.5832,-1.5832,-1.6279,-1.6707,-1.6707,-1.7081,-1.7275,-1.68,-1.6613,-1.6393,-1.6014,-1.6028,-1.6123,-1.6218,-1.6595,-1.6878,-1.6878,-1.7145,-1.7326,-1.7326,-1.7326,-1.7326,-1.7326,-1.7326,-1.7326,-1.7326,-1.7326,-1.7326,-1.7326,-1.6662,-1.6177,-1.5798,-1.4166,-1.3113,-1.2727,-1.1678,-1.1194,-1.1194,-1.1585,-1.1487,0.0,0.5999,0.6119,0.6249,0.6374,0.6364,0.6364,0.474,0.0,0.556,0.6181,0.6287,0.5982,0.2424,-0.1718,-0.5785,-0.6292,0.0,0.0,0.0,0.0,0.0,0.0,0.0,0.0,0.0,0.0,0.0,0.0,0.0,0.0,-1.5357,-1.5357,-1.4299,-1.3186,-1.2635,-1.2635,-1.2635,-1.3181,-1.4272,-1.4272,-1.4272,-1.4277,-1.4277,0.0,0.0,0.0,0.0,0.0,-1.4771,-1.4312,-1.3281,-1.4283,-1.3929,-1.2926,-1.3902,-1.4298,-1.4298,-1.4298,-1.4298,-1.4298,-1.4298,-1.4694,-1.5172,-1.5452,-1.5635,-1.5832,-1.5832,-1.5832,-1.5832,-1.5832,-1.5832,-1.5832,-1.5832,-1.6279,-1.6707,-1.6707,-1.6941,-1.7061,-1.6767,-1.6473,-1.6276,-1.6177,-1.5927,-1.5927,-1.613,-1.6407,-1.6588,-1.6588,-1.7052,-1.7326,-1.7326,-1.7326,-1.7326,-1.7326,-1.7326,-1.7326,-1.7326,-1.7326,-1.7232,-1.7232,-1.7232,-1.6655,-1.5602,-1.4555,-1.3596,-1.2635,-1.1678,-1.1194,-1.1194,-1.1194,-1.1194,0.6103,0.0,0.6138,0.6361,0.6342,0.6366,0.0,0.4746,0.2922,0.1716,0.4145,0.537,0.2121,-0.2019,-0.5267,-0.6189,0.0,0.0,0.0,0.0,0.0,0.0,0.0,0.0,0.0,0.0,0.0,0.0,0.0,0.0,0.0,-1.5785,-1.5785,-1.5464,-1.5244,-1.5125,-1.5125,-1.5125,-1.5238,-1.5458,-1.5458,-1.5458,-1.5458,-1.46,0.0,0.0,0.0,0.0,-1.4759,-1.4813,-1.457,-1.4289,-1.4376,-1.4159,-1.3908,-1.4196,-1.4298,-1.4298,-1.4298,-1.4298,-1.4298,-1.4496,-1.479,-1.5172,-1.5452,-1.5635,-1.5832,-1.5832,-1.5832,-1.5832,-1.5832,-1.5832,-1.5832,-1.5832,-1.6279,-1.6707,-1.6707,-1.6941,-1.7061,-1.6767,-1.6473,-1.6179,-1.598,-1.5832,-1.5825,-1.5927,-1.6305,-1.6588,-1.6588,-1.7052,-1.7326,-1.7326,-1.7326,-1.7326,-1.7326,-1.7326,-1.7326,-1.7326,-1.7326,-1.6943,-1.6177,-1.6177,-1.5317,-1.3494,-1.2441,-1.177,-1.158,-1.1292,-1.1194,-1.1194,-1.1194,-1.1194,0.6056,0.6132,0.6222,0.6315,0.6369,0.6377,0.6388,0.394,0.1412,0.0202,0.0303,-0.0202,-0.2524,-0.5046,-0.6667,0.0,-0.6753,0.0,0.0,0.0,0.0,0.0,0.0,0.0,0.0,0.0,0.0,0.0,0.0,0.0,0.0,-1.5891,-1.5891,-1.5891,-1.5891,-1.5891,-1.5891,-1.5891,-1.5891,-1.5891,-1.5891,-1.5891,-1.5885,-1.5122,-1.51,0.0,0.0,0.0,-1.4908,-1.4636,-1.4521,-1.4509,-1.4358,-1.4298,-1.4298,-1.4298,-1.4298,-1.4298,-1.4298,-1.4298,-1.4394,-1.479,-1.4987,-1.5178,-1.5547,-1.573,-1.5832,-1.5832,-1.5832,-1.5832,-1.5832,-1.5832,-1.5832,-1.5832,-1.6279,-1.6707,-1.6707,-1.6834,-1.6901,-1.6734,-1.6359,-1.6019,-1.5858,-1.5832,-1.5832,-1.5832,-1.6116,-1.6407,-1.6407,-1.6871,-1.7153,-1.7153,-1.7239,-1.7326,-1.7326,-1.7326,-1.7138,-1.6655,-1.656,-1.6177,-1.5127,-1.5127,-1.4358,-1.2727,-1.1673,-1.1194,-1.1194,-1.1194,-1.1194,-1.1194,-1.1194,-1.1194,0.5973,0.5615,0.5436,0.6237,0.5866,0.5262,0.4551,0.1917,-0.0505,-0.0505,-0.3334,-0.6181,-0.6891,-0.7059,0.0,0.0,0.0,0.0,0.0,0.0,0.0,0.0,0.0,0.0,0.0,0.0,0.0,0.0,0.0,0.0,0.0,-1.5891,-1.5891,-1.5891,-1.5891,-1.5867,-1.5831,-1.5867,-1.5891,-1.5891,-1.5849,-1.5831,-1.5819,-1.5559,-1.5421,0.0,0.0,0.0,-1.463,-1.4395,-1.4298,-1.4298,-1.4298,-1.4298,-1.4298,-1.4298,-1.4298,-1.4298,-1.4298,-1.4298,-1.44,-1.4885,-1.5077,-1.5274,-1.5642,-1.5737,-1.5832,-1.5832,-1.5832,-1.5832,-1.5832,-1.5832,-1.5838,-1.5885,-1.6313,-1.6707,-1.6707,-1.6707,-1.6693,-1.6647,-1.6199,-1.5832,-1.5832,-1.5832,-1.5832,-1.5832,-1.6028,-1.6224,-1.6218,-1.6697,-1.6979,-1.7066,-1.7246,-1.7326,-1.7326,-1.7138,-1.6655,-1.5609,-1.5704,-1.5317,-1.4076,-1.3884,-1.3403,-1.2538,-1.1678,-1.1194,-1.1194,-1.1194,-1.1194,-1.1194,-1.1194,-1.1194,0.5997,0.3512,0.1804,0.5459,0.3632,-0.0,-0.3635,-0.3531,-0.272,-0.272,-0.3225,-0.4939,-0.8996,-0.7979,-0.6956,0.0,0.0,0.0,0.0,0.0,0.0,0.0,0.0,0.0,0.0,0.0,0.0,0.0,0.0,0.0,0.0,0.0,-1.5891,-1.5891,-1.5891,-1.5783,-1.5559,-1.5777,-1.5891,-1.5885,-1.5662,-1.5559,-1.5553,-1.5288,-1.5046,0.0,0.0,-1.4582,-1.4358,-1.4316,-1.4298,-1.4298,-1.4298,-1.4298,-1.4298,-1.4298,-1.4298,-1.4298,-1.4298,-1.449,-1.4688,-1.4688,-1.507,-1.5445,-1.554,-1.5642,-1.5832,-1.5832,-1.5832,-1.5832,-1.5832,-1.5832,-1.5892,-1.6146,-1.646,-1.6707,-1.6707,-1.6707,-1.6633,-1.6386,-1.6059,-1.5832,-1.5832,-1.5832,-1.5832,-1.5832,-1.6028,-1.6312,-1.6494,-1.6784,-1.7073,-1.7239,-1.7232,-1.7326,-1.7326,-1.656,-1.5609,-1.4555,-1.5317,-1.4937,-1.3017,-1.2155,-1.158,-1.1385,-1.1292,-1.1194,-1.1194,-1.1194,-1.1194,-1.1194,-1.1194,-1.1194,0.4662,0.2247,-0.0101,-0.0403,-0.1108,-0.2517,-0.5665,-0.6266,-0.5949,-0.5148,-0.534,0.0,0.0,0.0,-0.9308,-1.1575,0.0,0.0,0.0,0.0,0.0,0.0,0.0,0.0,0.0,0.0,0.0,0.0,0.0,0.0,0.0,0.0,-1.5469,-1.5469,-1.5488,-1.5427,-1.5288,-1.5409,-1.5469,-1.5469,-1.5348,-1.5288,-1.5276,-1.5016,-1.4829,-1.4708,0.0,-1.4419,-1.4298,-1.4298,-1.4298,-1.4298,-1.4298,-1.4298,-1.4298,-1.4298,-1.4298,-1.4298,-1.4496,-1.4592,-1.4783,-1.507,-1.5261,-1.554,-1.5635,-1.573,-1.5832,-1.5832,-1.5832,-1.5832,-1.5832,-1.5832,-1.5905,-1.6206,-1.6373,-1.6513,-1.6673,-1.6587,-1.6433,-1.6299,-1.6032,-1.5832,-1.5832,-1.5832,-1.5832,-1.5832,-1.5927,-1.6123,-1.6312,-1.6595,-1.6878,-1.7153,-1.7239,-1.7326,-1.7326,-1.685,-1.5697,-1.3596,-1.3403,-1.2926,-1.1965,-1.1482,-1.1194,-1.1194,-1.1194,-1.1194,-1.1194,-1.1194,-1.1194,-1.1194,-1.1194,-1.1194,0.285,0.0684,-0.161,-0.5461,-0.5153,-0.4435,-0.6366,-0.7679,-0.8179,-0.7169,0.0,0.0,0.0,-1.0199,0.0,0.0,0.0,0.0,0.0,0.0,0.0,0.0,0.0,0.0,0.0,0.0,0.0,0.0,0.0,0.0,0.0,0.0,-1.5052,-1.5052,-1.5075,-1.5056,-1.5016,-1.5016,-1.5046,-1.5107,-1.5046,-1.5016,-1.501,-1.4739,-1.4618,-1.4606,-1.4389,-1.4298,-1.4298,-1.4298,-1.4298,-1.4298,-1.4298,-1.4298,-1.4298,-1.4298,-1.4298,-1.4298,-1.4496,-1.4688,-1.4885,-1.5261,-1.5445,-1.5635,-1.5737,-1.5832,-1.5832,-1.5832,-1.5832,-1.5832,-1.5832,-1.5879,-1.5992,-1.6219,-1.6326,-1.642,-1.6573,-1.6426,-1.6253,-1.6186,-1.5985,-1.5832,-1.5832,-1.5832,-1.5832,-1.5832,-1.5832,-1.6028,-1.6218,-1.6501,-1.6777,-1.7066,-1.7239,-1.7138,-1.6655,-1.656,-1.5412,-1.2538,-1.1678,-1.1194,-1.1194,-1.1194,-1.1194,-1.1194,-1.1194,-1.1194,-1.1194,-1.1194,-1.1194,-1.1194,-1.1194,-1.1194,0.095,-0.1564,-0.3527,-0.5856,-0.6263,-0.6458,-0.7659,-0.7746,-0.7832,-0.8528,0.0,0.0,0.0,-1.1175,0.0,0.0,0.0,0.0,0.0,0.0,0.0,0.0,0.0,0.0,0.0,0.0,0.0,0.0,0.0,0.0,0.0,0.0,0.0,-1.5089,-1.5123,-1.498,-1.4745,-1.4745,-1.4865,-1.5107,-1.4859,-1.4745,-1.4739,-1.4455,-1.4328,-1.4328,-1.4304,-1.4298,-1.4298,-1.4298,-1.4298,-1.4298,-1.4298,-1.4298,-1.4298,-1.4298,-1.4298,-1.4298,-1.4298,-1.4688,-1.5083,-1.5083,-1.5458,-1.5737,-1.5832,-1.5832,-1.5832,-1.5832,-1.5832,-1.5832,-1.5832,-1.6032,-1.6246,-1.6266,-1.648,-1.6607,-1.6359,-1.6286,-1.6192,-1.5912,-1.5845,-1.5832,-1.5832,-1.5832,-1.5832,-1.5832,-1.6042,-1.6245,-1.6494,-1.6784,-1.7066,-1.7239,-1.7333,-1.656,-1.4651,-1.4555,-1.3596,-1.1482,-1.1194,-1.1194,-1.1194,-1.1194,-1.1194,-1.1194,-1.1194,-1.1194,-1.1194,-1.1194,-1.1194,-1.1194,-1.1194,-1.1194,-0.0,-0.322,-0.6245,-0.6361,-0.6753,-0.7244,-0.764,-0.8031,-0.8425,-0.8726,-0.932,0.0,0.0,0.0,0.0,0.0,0.0,0.0,0.0,0.0,0.0,0.0,0.0,0.0,0.0,0.0,0.0,0.0,0.0,0.0,0.0,0.0,0.0,-1.4613,-1.457,-1.4558,-1.4455,-1.4455,-1.4503,-1.46,-1.4503,-1.4455,-1.4455,-1.4346,-1.4298,-1.4298,-1.4298,-1.4298,-1.4298,-1.4298,-1.4298,-1.4298,-1.4298,-1.4298,-1.4298,-1.4298,-1.4298,-1.4394,-1.4688,-1.4885,-1.5178,-1.5458,-1.5642,-1.5832,-1.5832,-1.5832,-1.5832,-1.5832,-1.5832,-1.5832,-1.5832,-1.5912,-1.6046,-1.6226,-1.6213,-1.6179,-1.6259,-1.6126,-1.5965,-1.5852,-1.5832,-1.5832,-1.5832,-1.5832,-1.5832,-1.5832,-1.6035,-1.6333,-1.6609,-1.6791,-1.7066,-1.7232,-1.7326,-1.6943,-1.6278,-1.5602,-1.4651,-1.3216,-1.1868,-1.1194,-1.1194,-1.1194,-1.1194,-1.1194,-1.1194,-1.1194,-1.1194,-1.1194,-1.1194,-1.1194,-1.1194,-1.1194,-0.2841,-0.5538,-0.8199,-0.7344,-0.754,-0.8028,-0.8326,-0.8627,-0.8924,-0.9414,-1.0015,-1.0699,-1.1658,0.0,0.0,0.0,0.0,0.0,0.0,0.0,0.0,0.0,0.0,0.0,0.0,0.0,0.0,0.0,0.0,0.0,0.0,0.0,0.0,0.0,-1.4298,-1.4298,-1.4298,-1.4298,-1.4298,-1.4298,-1.4298,-1.4298,-1.4298,-1.4298,-1.4298,-1.4298,-1.4298,-1.4298,-1.4298,-1.4298,-1.4298,-1.4298,-1.4298,-1.4298,-1.4298,-1.4394,-1.4394,-1.449,-1.4981,-1.5178,-1.5267,-1.5642,-1.5737,-1.5832,-1.5832,-1.5832,-1.5832,-1.5832,-1.5832,-1.5832,-1.5832,-1.5899,-1.5999,-1.6106,-1.6046,-1.5999,-1.6112,-1.5972,-1.5832,-1.5832,-1.5832,-1.5832,-1.5832,-1.5832,-1.5832,-1.5832,-1.6123,-1.6407,-1.6602,-1.6885,-1.7153,-1.7333,-1.7326,-1.7138,-1.685,-1.6183,-1.5222,-1.3884,-1.2446,-1.1482,-1.1194,-1.1194,-1.1194,-1.1194,-1.1194,-1.1194,-1.1194,-1.1194,-1.1194,-1.1194,-1.1194,-1.1194,-0.8164,-0.8501,-0.915,-0.889,-0.8825,-0.9023,-0.9821,-0.9422,-0.9217,-1.09,-1.1194,-1.177,-1.359,0.0,0.0,0.0,0.0,0.0,0.0,0.0,0.0,0.0,0.0,0.0,0.0,0.0,0.0,0.0,0.0,0.0,0.0,0.0,0.0,0.0,-1.4298,-1.4298,-1.4298,-1.4298,-1.4298,-1.4298,-1.4298,-1.4298,-1.4298,-1.4298,-1.4298,-1.4298,-1.4298,-1.4298,-1.4298,-1.4298,-1.4298,-1.4298,-1.4298,-1.4298,-1.4298,-1.4592,-1.4688,-1.479,-1.4987,-1.5267,-1.554,-1.554,-1.5635,-1.5832,-1.5832,-1.5832,-1.5832,-1.5832,-1.5832,-1.5832,-1.5832,-1.6046,-1.6192,-1.5899,-1.6052,-1.6186,-1.5892,-1.5832,-1.5832,-1.5832,-1.5832,-1.5832,-1.5832,-1.5832,-1.5832,-1.5832,-1.6204,-1.6588,-1.6588,-1.7052,-1.7326,-1.7326,-1.7326,-1.6943,-1.5893,-1.5798,-1.493,-1.2823,-1.2727,-1.2252,-1.1194,-1.1194,-1.1194,-1.1194,-1.1194,-1.1194,-1.1194,-1.1194,-1.1194,-1.1194,-1.1194,-1.1194,-0.6759,-0.779,0.0,-0.8117,0.0,0.0,0.0,-1.0301,-0.9916,0.0,-1.177,-1.2441,-1.321,0.0,0.0,0.0,0.0,0.0,0.0,0.0,0.0,0.0,0.0,0.0,0.0,0.0,0.0,0.0,0.0,0.0,0.0,0.0,0.0,0.0,-1.4298,-1.4298,-1.4298,-1.4298,-1.4298,-1.4298,-1.4298,-1.4298,-1.4298,-1.4298,-1.4298,-1.4298,-1.4298,-1.4298,-1.4298,-1.4298,-1.4298,-1.4298,-1.4298,-1.4394,-1.4592,-1.449,-1.4688,-1.4987,-1.5083,-1.5267,-1.554,-1.5635,-1.5737,-1.5832,-1.5832,-1.5832,-1.5832,-1.5832,-1.5832,-1.5832,-1.5832,-1.5892,-1.5939,-1.5852,-1.5899,-1.5939,-1.5845,-1.5832,-1.5832,-1.5832,-1.5832,-1.5832,-1.5832,-1.5832,-1.5832,-1.5832,-1.6123,-1.6407,-1.6784,-1.6972,-1.7153,-1.7232,-1.7326,-1.7138,-1.685,-1.685,-1.6271,-1.493,-1.4268,-1.3017,-1.1292,-1.1194,-1.1194,-1.1194,-1.1194,-1.1194,-1.1194,-1.1194,-1.1194,-1.1194,-1.1194,-1.1194,-0.746,-0.8482,0.0,-0.9083,-0.9715,-1.0699,-1.1755,0.0,0.0,0.0,-1.292,-1.359,-1.4358,0.0,0.0,0.0,0.0,0.0,0.0,0.0,0.0,0.0,0.0,0.0,0.0,0.0,0.0,0.0,0.0,0.0,0.0,0.0,0.0,0.0,-1.4298,-1.4298,-1.4298,-1.4298,-1.4298,-1.4298,-1.4298,-1.4298,-1.4298,-1.4298,-1.4298,-1.4298,-1.4298,-1.4298,-1.4298,-1.4298,-1.4298,-1.4298,-1.4298,-1.4394,-1.4496,-1.4496,-1.4688,-1.5083,-1.5172,-1.5452,-1.5635,-1.573,-1.5832,-1.5832,-1.5832,-1.5832,-1.5832,-1.5832,-1.5832,-1.5832,-1.5832,-1.5832,-1.5832,-1.5832,-1.5832,-1.5832,-1.5832,-1.5832,-1.5832,-1.5832,-1.5832,-1.5832,-1.5832,-1.5832,-1.5832,-1.5832,-1.6116,-1.6501,-1.6979,-1.7066,-1.7153,-1.7333,-1.7326,-1.7326,-1.7326,-1.7326,-1.685,-1.5893,-1.5222,-1.3974,-1.1868,-1.1385,-1.1194,-1.1194,-1.1194,-1.1194,-1.1194,-1.1194,-1.1194,-1.1194,-1.1194,-1.1194,-0.9129,-0.993,-1.0599,-1.1094,-1.1385,0.0,-1.2727,-1.3788,-1.4555,-1.4364,0.0,-1.4937,0.0,0.0,0.0,0.0,0.0,0.0,0.0,0.0,0.0,0.0,0.0,0.0,0.0,0.0,0.0,0.0,0.0,0.0,0.0,0.0,0.0,0.0,-1.4298,-1.4298,-1.4298,-1.4298,-1.4298,0.0,-1.4298,-1.4298,-1.4298,-1.4298,-1.4298,-1.4298,-1.4298,-1.4298,-1.4298,-1.4298,-1.4298,-1.4298,-1.4298,-1.4298,-1.4394,-1.4592,-1.4885,-1.5178,-1.5452,-1.573,-1.592,-1.5832,-1.5832,-1.592,-1.5832,-1.5832,-1.5832,-1.5832,-1.5832,-1.5832,-1.5832,-1.5832,-1.5832,-1.5832,-1.5832,-1.5832,-1.5832,-1.5832,-1.5832,-1.5832,-1.5832,-1.5832,-1.5832,-1.5832,-1.5832,-1.5832,-1.6298,-1.6683,-1.6979,-1.7153,-1.7232,-1.7326,-1.7326,-1.7326,-1.7326,-1.7326,-1.6943,-1.5988,-1.5893,-1.4937,-1.292,-1.1868,-1.1292,-1.1194,-1.1194,-1.1194,-1.1194,-1.1194,-1.1194,-1.1194,-1.1194,-1.1194,-0.7719,-0.8804,0.0,-1.121,-1.3102,-1.4835,-1.5127,-1.5893,-1.6177,-1.4651,-1.5134,0.0,0.0,0.0,0.0,0.0,0.0,0.0,0.0,0.0,0.0,0.0,0.0,0.0,0.0,0.0,0.0,0.0,0.0,0.0,0.0,0.0,0.0,-1.5153,-1.458,-1.4298,-1.4298,-1.4298,-1.4298,0.0,-1.4298,-1.4298,-1.4298,-1.4298,-1.4298,-1.4298,-1.4298,-1.4298,-1.4298,-1.4298,-1.4298,-1.4298,-1.4298,-1.4592,-1.4885,-1.479,-1.507,-1.5642,-1.554,-1.6109,-1.6857,-1.6015,-1.6298,-1.6864,-1.6015,-1.5832,-1.5832,-1.5832,-1.5832,-1.5832,-1.5832,-1.5832,-1.5832,-1.5832,-1.5832,-1.5832,-1.5832,-1.5832,-1.5832,-1.5832,-1.5832,-1.5832,-1.5832,-1.5832,-1.5832,-1.6123,-1.64,-1.6683,-1.6979,-1.7066,-1.716,-1.7232,-1.7326,-1.7326,-1.7326,-1.7326,-1.7232,-1.6943,-1.6271,-1.5222,-1.398,-1.292,-1.196,-1.1194,-1.1194,-1.1194,-1.1194,-1.1194,-1.1194,-1.1194,-1.1194,-1.1194,-0.8247,-0.9243,0.0,-1.1773,0.0,-1.5798,-1.5798,-1.656,-1.7037,-1.5988,0.0,0.0,0.0,0.0,0.0,0.0,0.0,0.0,0.0,0.0,0.0,0.0,0.0,0.0,0.0,0.0,0.0,0.0,0.0,0.0,0.0,-1.6202,-1.5647,-1.5647,-1.475,-1.4298,-1.4298,-1.4298,-1.4298,-1.4298,-1.4675,-1.4867,-1.4771,-1.4484,-1.4484,-1.4771,-1.4484,-1.449,-1.4867,-1.4867,-1.4867,-1.4867,-1.5248,-1.554,-1.5838,-1.5642,-1.6103,-1.6662,-1.6567,-1.6857,-1.7232,-1.6669,-1.6857,-1.7145,-1.6109,-1.6109,-1.6393,-1.5927,-1.5832,-1.5927,-1.6393,-1.6204,-1.592,-1.6393,-1.6109,-1.5832,-1.5832,-1.5832,-1.5832,-1.5832,-1.5832,-1.5832,-1.5832,-1.5832,-1.5832,-1.6028,-1.6218,-1.6501,-1.6784,-1.6885,-1.7066,-1.7232,-1.7326,-1.7326,-1.7326,-1.7326,-1.7326,-1.7326,-1.685,-1.6082,-1.5032,-1.3974,-1.2732,-1.1194,-1.1194,-1.1194,-1.1194,-1.1194,-1.1194,-1.1194,-1.1194,-1.1194,-0.8993,-1.019,-1.1548,-1.2907,-1.4644,0.0,-1.6082,-1.6662,-1.7326,0.0,0.0,0.0,0.0,0.0,0.0,0.0,0.0,0.0,0.0,0.0,0.0,0.0,0.0,0.0,0.0,0.0,0.0,0.0,0.0,0.0,-1.7822,-1.6801,-1.6283,-1.6283,-1.5274,-1.4675,-1.4675,-1.4675,-1.4675,-1.4675,-1.5343,-1.5629,-1.5629,-1.4962,-1.4962,-1.5337,-1.4867,-1.5057,-1.5629,-1.5629,-1.5629,-1.5629,-1.6298,-1.6588,-1.6676,-1.677,-1.7232,-1.7777,-1.787,-1.787,-1.7785,-1.7598,-1.7692,-1.7598,-1.6662,-1.6943,-1.7419,-1.6574,-1.6292,-1.648,-1.7326,-1.6951,-1.648,-1.7138,-1.6669,-1.6015,-1.5832,-1.5832,-1.5832,-1.5832,-1.5832,-1.5832,-1.5832,-1.5832,-1.5832,-1.5832,-1.6123,-1.6312,-1.6581,-1.6784,-1.6972,-1.7239,-1.7239,-1.7239,-1.7326,-1.7326,-1.7326,-1.7326,-1.7326,-1.685,-1.5798,-1.5032,-1.3692,-1.1775,-1.1389,-1.1292,-1.1482,-1.1292,-1.1194,-1.1194,-1.1194,-1.1194,-0.8246,0.0,-1.3806,0.0,-1.6278,-1.7138,0.0,0.0,-1.7326,0.0,0.0,0.0,0.0,0.0,0.0,0.0,0.0,0.0,0.0,0.0,0.0,0.0,0.0,0.0,0.0,0.0,0.0,0.0,0.0,0.0,-1.8699,-1.7882,-1.7471,-1.7471,-1.669,-1.6298,-1.6298,-1.6298,-1.6298,-1.6298,-1.6393,-1.6487,-1.6487,-1.6298,-1.6008,-1.5439,-1.6008,-1.6393,-1.6487,-1.6487,-1.6487,-1.6487,-1.6581,-1.677,-1.7044,-1.7412,-1.7777,-1.8141,-1.8511,-1.9155,-1.9795,-1.888,-1.9155,-1.9704,-1.8696,-1.8519,-1.8603,-1.8419,-1.8419,-1.8419,-1.8519,-1.8511,-1.8234,-1.7512,-1.7232,-1.6864,-1.6015,-1.5832,-1.5832,-1.5832,-1.5832,-1.5832,-1.5832,-1.6028,-1.6123,-1.6123,-1.6407,-1.6588,-1.6588,-1.6588,-1.6777,-1.6972,-1.7066,-1.7066,-1.7333,-1.7326,-1.7326,-1.7326,-1.7326,-1.685,-1.5798,-1.5697,-1.5032,-1.3884,-1.2155,-1.1678,-1.2538,-1.158,-1.1194,-1.1194,-1.1194,-1.1194,-0.9872,-1.2108,-1.4322,0.0,-1.656,-1.7326,-1.7326,0.0,0.0,0.0,0.0,0.0,0.0,0.0,0.0,0.0,0.0,0.0,0.0,0.0,0.0,0.0,0.0,0.0,0.0,0.0,0.0,0.0,0.0,-1.9574,-1.9415,-1.8548,-1.7968,-1.7968,-1.7044,-1.6588,-1.6588,-1.6588,-1.677,-1.7232,-1.7232,-1.7232,-1.7225,-1.7606,-1.7419,-1.6655,-1.6676,-1.6864,-1.7232,-1.7232,-1.7232,-1.7232,-1.7699,-1.8071,-1.8527,-1.8711,-1.9163,-1.9704,-1.9985,-2.0167,-2.0249,-1.9795,-1.9977,-2.0068,-1.9063,-1.9155,-1.9521,-1.8972,-1.8788,-1.8972,-1.9521,-1.8756,-1.801,-1.8141,-1.7318,-1.6298,-1.592,-1.5832,-1.5832,-1.5832,-1.5832,-1.5832,-1.5832,-1.6028,-1.6224,-1.6224,-1.6407,-1.6683,-1.6784,-1.6784,-1.6871,-1.7153,-1.7153,-1.7239,-1.7333,-1.7326,-1.7326,-1.7326,-1.7326,-1.7138,-1.6655,-1.6082,-1.5893,-1.5988,-1.3403,-1.2252,-1.2727,-1.1678,-1.1194,-1.1194,-1.1194,-1.1194,-1.1276,0.0,-1.3853,-1.5317,-1.6261,-1.6944,0.0,0.0,0.0,0.0,0.0,0.0,0.0,0.0,0.0,0.0,0.0,0.0,0.0,0.0,0.0,0.0,0.0,0.0,0.0,0.0,0.0,0.0,0.0,-1.9606,-1.9606,-1.8773,-1.835,-1.835,-1.7551,-1.7145,-1.7145,-1.7145,-1.7426,-1.7971,-1.7971,-1.7971,-1.7971,-1.8542,-1.8542,-1.7971,-1.7419,-1.7512,-1.7971,-1.7971,-1.7971,-1.8064,-1.8542,-1.9004,-1.9363,-1.9554,-2.0093,-2.0817,-2.0997,-2.0808,-2.0628,-2.0628,-2.0628,-2.0529,-1.9795,-2.0076,-2.0529,-1.9712,-1.953,-1.9712,-2.0439,-1.9389,-1.818,-1.8688,-1.7498,-1.6109,-1.5832,-1.5832,-1.5832,-1.5832,-1.5832,-1.5927,-1.5927,-1.6116,-1.6312,-1.6312,-1.6494,-1.6683,-1.6878,-1.6885,-1.6972,-1.7239,-1.7239,-1.7239,-1.7326,-1.7326,-1.7326,-1.7326,-1.7326,-1.7326,-1.7326,-1.656,-1.656,-1.7326,-1.4835,-1.3403,-1.3113,-1.2058,-1.1482,-1.1194,-1.1194,-1.1194,0.0,-1.1882,0.0,-1.4884,-1.5582,-1.5934,0.0,0.0,0.0,0.0,0.0,0.0,0.0,0.0,0.0,0.0,0.0,0.0,0.0,0.0,0.0,0.0,0.0,0.0,0.0,0.0,0.0,0.0,0.0,-1.8883,-1.8883,-1.8775,-1.8759,-1.8759,-1.8743,-1.8735,-1.8735,-1.8735,-1.8735,-1.8735,-1.8735,-1.8735,-1.8735,-1.8735,-1.8735,-1.8735,-1.8735,-1.8735,-1.8735,-1.8735,-1.8735,-1.8735,-1.8827,-1.8827,-1.892,-1.9363,-1.992,-2.0374,-2.0817,-2.1275,-2.1642,-2.1642,-2.1642,-2.1642,-2.1553,-2.1553,-2.1642,-2.1553,-2.1553,-2.1553,-2.1642,-2.0898,-1.9886,-1.8972,-1.7963,-1.6958,-1.6015,-1.5832,-1.5832,-1.5832,-1.6028,-1.6224,-1.6224,-1.6407,-1.6588,-1.6588,-1.6581,-1.6588,-1.6588,-1.6581,-1.6683,-1.6979,-1.6979,-1.7066,-1.7232,-1.7326,-1.7326,-1.7326,-1.7326,-1.7326,-1.7326,-1.7232,-1.7232,-1.7326,-1.6177,-1.5127,-1.4172,-1.3113,-1.2155,-1.1194,-1.1194,-1.1194,0.0,0.0,0.0,-1.4804,-1.5784,-1.6514,-1.6904,0.0,0.0,0.0,0.0,0.0,0.0,0.0,0.0,0.0,0.0,0.0,0.0,0.0,0.0,0.0,0.0,0.0,0.0,0.0,0.0,0.0,0.0,0.0,-1.8827,-1.8827,-1.8827,-1.8827,-1.8827,-1.8827,-1.8827,-1.8827,-1.8827,-1.8827,-1.8827,-1.8827,-1.8827,-1.8827,-1.8827,-1.8827,-1.8827,-1.8827,-1.8827,-1.8827,-1.8827,-1.8827,-1.8827,-1.9004,-1.9371,-1.9828,-2.0374,-2.0826,-2.1275,-2.1553,-2.1741,-2.1741,-2.1741,-2.1741,-2.1741,-2.1741,-2.1741,-2.1741,-2.1741,-2.1553,-2.0997,-2.0116,-1.8891,-1.7296,-1.6574,-1.6204,-1.5927,-1.5832,-1.5832,-1.5832,-1.6028,-1.6224,-1.6224,-1.6595,-1.6878,-1.6878,-1.6965,-1.7052,-1.7052,-1.7052,-1.7052,-1.7145,-1.7153,-1.7239,-1.7326,-1.7326,-1.7326,-1.7326,-1.7326,-1.7326,-1.7326,-1.7326,-1.7326,-1.7326,-1.6943,-1.5988,-1.4268,-1.321,-1.2155,-1.1194,-1.1194,-1.1194,-1.134,-1.2079,0.0,0.0,0.0,-1.6221,-1.6806,0.0,0.0,0.0,0.0,0.0,0.0,0.0,0.0,0.0,0.0,0.0,0.0,0.0,0.0,0.0,0.0,0.0,0.0,0.0,0.0,0.0,0.0,0.0,-1.8827,-1.8827,-1.8827,-1.8827,-1.8827,-1.8827,-1.8827,-1.8827,-1.8827,-1.8827,-1.8827,-1.8827,-1.8827,-1.8827,-1.8827,-1.8827,-1.8827,-1.8827,-1.8827,-1.8827,-1.8827,-1.8827,-1.8827,-1.9004,-1.9371,-1.992,-2.0374,-2.0817,-2.1275,-2.1553,-2.1741,-2.1741,-2.1741,-2.1741,-2.1741,-2.1741,-2.1741,-2.1741,-2.1741,-2.1553,-2.0898,-2.0025,-1.88,-1.6741,-1.6298,-1.6204,-1.5825,-1.5832,-1.5832,-1.5832,-1.6028,-1.6224,-1.6224,-1.6595,-1.6878,-1.6878,-1.7059,-1.7246,-1.7246,-1.7239,-1.7326,-1.7326,-1.7326,-1.7326,-1.7326,-1.7326,-1.7326,-1.7326,-1.7326,-1.7326,-1.7326,-1.7326,-1.7326,-1.7326,-1.7326,-1.6466,-1.4841,-1.3788,-1.2732,-1.1673,-1.1389,-1.1236,0.0,0.0,0.0,0.0,0.0,0.0,-1.6501,0.0,0.0,0.0,0.0,0.0,0.0,0.0,0.0,0.0,0.0,0.0,0.0,0.0,0.0,0.0,0.0,0.0,0.0,0.0,0.0,0.0,0.0,-1.8827,-1.8827,-1.8827,-1.8827,-1.8827,-1.8827,-1.8827,-1.8827,-1.8827,-1.8827,-1.8827,-1.8827,-1.8827,-1.8827,-1.8827,-1.8827,-1.8827,-1.8827,-1.8827,-1.8827,-1.8827,-1.8827,-1.8827,-1.8827,-1.8827,-1.8827,-1.9371,-1.992,-2.0382,-2.0817,-2.1275,-2.1741,-2.1741,-2.1741,-2.1741,-2.1741,-2.1741,-2.1741,-2.1741,-2.1741,-2.1731,-2.1642,-2.0997,-1.9795,-1.7785,-1.7326,-1.7044,-1.6015,-1.5832,-1.5832,-1.5832,-1.6028,-1.6224,-1.6224,-1.6407,-1.6588,-1.6588,-1.6784,-1.6979,-1.6979,-1.7153,-1.7326,-1.7326,-1.7326,-1.7326,-1.7326,-1.7326,-1.7326,-1.7326,-1.7326,-1.7326,-1.7326,-1.7326,-1.7326,-1.7326,-1.7326,-1.685,-1.5798,-1.4841,-1.3788,-1.2727,-1.1775,-1.1415,-1.1241,0.0,0.0,0.0,0.0,0.0,0.0,0.0,0.0,0.0,0.0,0.0,0.0,0.0,0.0,0.0,0.0,0.0,0.0,0.0,0.0,0.0,0.0,0.0,0.0,0.0,0.0,0.0,-1.8827,-1.8827,-1.8827,-1.8827,-1.8827,-1.8827,-1.8827,-1.8827,-1.8827,-1.8827,-1.8827,-1.8827,-1.8827,-1.8827,-1.8827,-1.8827,-1.8827,-1.8827,-1.8827,-1.8827,-1.8827,-1.8827,-1.8827,-1.8827,-1.8827,-1.8827,-1.8827,-1.9371,-1.992,-2.0382,-2.0817,-2.1275,-2.1741,-2.1741,-2.1741,-2.1741,-2.1741,-2.1741,-2.1741,-2.1741,-2.1741,-2.1553,-2.0898,-1.9977,-1.888,-1.7606,-1.7326,-1.7044,-1.6015,-1.5832,-1.5832,-1.5832,-1.6028,-1.6224,-1.6224,-1.6407,-1.6588,-1.6588,-1.6683,-1.6777,-1.6979,-1.7073,-1.716,-1.7232,-1.7326,-1.7326,-1.7326,-1.7326,-1.7326,-1.7326,-1.7326,-1.7326,-1.7326,-1.7326,-1.7326,-1.7326,-1.7326,-1.7138,-1.685,-1.5893,-1.4841,-1.3884,-1.3785,-1.3916,-1.2345,-1.3288,-1.4223,0.0,0.0,0.0,-1.5884,-1.6052,0.0,0.0,0.0,0.0,0.0,0.0,0.0,0.0,0.0,0.0,0.0,0.0,0.0,0.0,0.0,0.0,0.0,0.0,0.0,-1.8827,-1.8827,-1.8827,-1.8827,-1.8827,-1.8827,-1.8827,-1.8827,-1.8827,-1.8827,-1.8827,-1.8827,-1.8827,-1.8827,-1.8827,-1.8827,-1.8827,-1.8827,-1.8827,-1.8827,-1.8827,-1.8827,-1.8827,-1.8827,-1.8827,-1.8827,-1.8827,-1.8827,-1.9371,-1.9737,-2.0102,-2.0555,-2.1015,-2.1392,-2.1427,-2.1526,-2.1741,-2.1741,-2.1741,-2.1741,-2.1741,-2.1741,-2.1553,-2.0997,-2.0439,-1.9803,-1.8788,-1.8241,-1.7692,-1.6669,-1.6109,-1.5832,-1.5832,-1.5927,-1.6028,-1.6028,-1.6116,-1.6305,-1.6305,-1.64,-1.6501,-1.6784,-1.6958,-1.7052,-1.7153,-1.7239,-1.7232,-1.7217,-1.7225,-1.7326,-1.7326,-1.7326,-1.7326,-1.7326,-1.7326,-1.7326,-1.7326,-1.7326,-1.7326,-1.7326,-1.6278,-1.5376,-1.4534,-1.4692,-1.4977,-1.388,-1.4139,-1.4398,0.0,0.0,0.0,-1.5796,-1.5862,-1.595,0.0,0.0,0.0,0.0,0.0,0.0,0.0,0.0,0.0,0.0,0.0,0.0,0.0,0.0,0.0,0.0,-1.8796,-1.8772,-1.8772,-1.8772,-1.8788,-1.8827,-1.8827,-1.8827,-1.8827,-1.8827,-1.8827,-1.8827,-1.8827,-1.8827,-1.8827,-1.8827,-1.8827,-1.8827,-1.8827,-1.8827,-1.8827,-1.8827,-1.8827,-1.8827,-1.8827,-1.8827,-1.8827,-1.8827,-1.8827,-1.8827,-1.9371,-1.9554,-1.9745,-2.0119,-2.0598,-2.1068,-2.1114,-2.1391,-2.1741,-2.1741,-2.1741,-2.1741,-2.1741,-2.1741,-2.1741,-2.1741,-2.1741,-2.1454,-2.0529,-1.9521,-1.8519,-1.7512,-1.6487,-1.5832,-1.5832,-1.5832,-1.5832,-1.5832,-1.5832,-1.5832,-1.5832,-1.6028,-1.6218,-1.6494,-1.6749,-1.6936,-1.6979,-1.7153,-1.7225,-1.7016,-1.7217,-1.7326,-1.7326,-1.7326,-1.7326,-1.7326,-1.7326,-1.7326,-1.7326,-1.7326,-1.7355,-1.7305,-1.6427,-1.5691,-1.5158,-1.522,-1.5513,0.0,0.0,0.0,0.0,0.0,0.0,-1.5511,-1.5526,-1.5613,0.0,0.0,0.0,0.0,0.0,0.0,0.0,0.0,0.0,0.0,0.0,0.0,0.0,0.0,0.0,0.0,-1.8565,-1.8398,-1.8398,-1.8398,-1.8526,-1.8812,-1.8827,-1.8827,-1.8827,-1.8827,-1.8827,-1.8827,-1.8827,-1.8827,-1.8827,-1.8827,-1.8827,-1.8827,-1.8827,-1.8827,-1.8827,-1.8827,-1.8827,-1.8827,-1.8827,-1.8827,-1.8827,-1.8827,-1.8827,-1.8827,-1.892,-1.9496,-2.0169,-2.0261,-2.0849,-2.1527,-2.1571,-2.1633,-2.1741,-2.1741,-2.1741,-2.1741,-2.1741,-2.1741,-2.1741,-2.1741,-2.1741,-2.1454,-2.0529,-1.9521,-1.8519,-1.7512,-1.6487,-1.5832,-1.5832,-1.5832,-1.5832,-1.5832,-1.5832,-1.5832,-1.5832,-1.5832,-1.5927,-1.6218,-1.6312,-1.6494,-1.6979,-1.7073,-1.7153,-1.7225,-1.7326,-1.7326,-1.7326,-1.7326,-1.7326,-1.7326,-1.7326,-1.7326,-1.7326,-1.7326,-1.7399,-1.7734,-1.7469,-1.7359,-1.7237,-1.7747,-1.8044,0.0,0.0,0.0,-1.5431,0.0,0.0,0.0,-1.5431,-1.5474,0.0,0.0,0.0,0.0,0.0,0.0,0.0,0.0,0.0,0.0,0.0,0.0,0.0,0.0,0.0,0.0,-1.8406,-1.8224,-1.8049,-1.8033,-1.8192,-1.8541,-1.8565,-1.8645,-1.8819,-1.8827,-1.8827,-1.8827,-1.8827,-1.8827,-1.8827,-1.8827,-1.8827,-1.8827,-1.8827,-1.8827,-1.8827,-1.8827,-1.8827,-1.8827,-1.8827,-1.8827,-1.8827,-1.8827,-1.8827,-1.8827,-1.8827,-1.9296,-1.9928,-1.9968,-2.04,-2.1048,-2.1311,-2.1383,-2.1401,-2.1651,-2.1741,-2.1741,-2.1741,-2.1741,-2.1741,-2.1741,-2.1741,-2.1553,-2.1087,-2.0257,-1.9247,-1.8241,-1.7225,-1.6393,-1.592,-1.5832,-1.5832,-1.5832,-1.5832,-1.5832,-1.5832,-1.5832,-1.5927,-1.613,-1.6224,-1.6319,-1.6784,-1.6958,-1.7044,-1.7153,-1.7239,-1.7326,-1.7326,-1.7326,-1.7326,-1.7326,-1.7326,-1.7326,-1.7326,-1.7326,-1.7443,-1.7761,-1.7923,-1.8138,-1.8306,-1.8692,-1.8934,0.0,0.0,0.0,0.0,0.0,-1.5431,0.0,0.0,0.0,0.0,0.0,0.0,0.0,0.0,0.0,0.0,0.0,0.0,0.0,0.0,0.0,0.0,0.0,0.0,0.0,-1.8144,-1.7985,-1.7699,-1.7676,-1.7826,-1.8184,-1.82,-1.8359,-1.8716,-1.8724,-1.8756,-1.8827,-1.8827,-1.8827,-1.8827,-1.8827,-1.8827,-1.8827,-1.8827,-1.8827,-1.8827,-1.8827,-1.8827,-1.8827,-1.8827,-1.8827,-1.8827,-1.8827,-1.8827,-1.8827,-1.8827,-1.9096,-1.9629,-1.9637,-1.9968,-2.0542,-2.0843,-2.1032,-2.1239,-2.1571,-2.1741,-2.1741,-2.1741,-2.1741,-2.1741,-2.1741,-2.1741,-2.1741,-2.1741,-2.0997,-2.0068,-1.9247,-1.8149,-1.7052,-1.6204,-1.592,-1.5832,-1.5832,-1.5832,-1.5832,-1.5832,-1.5832,-1.5927,-1.6123,-1.6123,-1.6218,-1.6501,-1.6749,-1.6842,-1.6885,-1.716,-1.7239,-1.7239,-1.7232,-1.7326,-1.7326,-1.7326,-1.7326,-1.7326,-1.7348,-1.7523,-1.786,-1.8265,-1.8581,-1.8789,-1.8883,-1.9052,0.0,0.0,0.0,0.0,-1.5431,0.0,0.0,0.0,0.0,0.0,0.0,0.0,0.0,0.0,0.0,0.0,0.0,0.0,0.0,0.0,0.0,0.0,0.0,0.0,0.0,0.0,-1.7374,-1.7334,-1.7334,-1.7477,-1.7811,-1.7834,-1.7993,-1.8351,-1.8359,-1.851,-1.8827,-1.8827,-1.8827,-1.8827,-1.8827,-1.8827,-1.8827,-1.8827,-1.8827,-1.8827,-1.8827,-1.8827,-1.8827,-1.8827,-1.8827,-1.8827,-1.8827,-1.8827,-1.8827,-1.8827,-1.9152,-1.9586,-1.9578,-2.0195,-2.0896,-2.0978,-2.132,-2.1651,-2.1651,-2.1741,-2.1741,-2.1741,-2.1741,-2.1741,-2.1741,-2.1741,-2.1741,-2.1741,-2.0997,-2.0249,-2.0158,-1.8611,-1.7232,-1.7138,-1.6393,-1.5832,-1.5832,-1.5832,-1.5832,-1.5832,-1.5832,-1.5832,-1.5832,-1.5832,-1.5933,-1.6252,-1.6305,-1.6393,-1.6616,-1.6885,-1.7073,-1.7073,-1.7246,-1.7326,-1.7326,-1.7326,-1.7326,-1.7326,-1.7563,-1.7933,-1.8285,-1.8574,-1.881,-1.8796,-1.9074,-1.9228,0.0,0.0,0.0,0.0,0.0,0.0,-1.5551,0.0,-1.5431,0.0,0.0,0.0,0.0,0.0,0.0,0.0,0.0,0.0,0.0,0.0,0.0,0.0,0.0,0.0,0.0,0.0,0.0,0.0,0.0,-1.7028,-1.7461,-1.7485,-1.7636,-1.7985,-1.8192,-1.8367,-1.8518,-1.8724,-1.8827,-1.8827,-1.8827,-1.8827,-1.8827,-1.8827,-1.8827,-1.8827,-1.8827,-1.8827,-1.8827,-1.8827,-1.8827,-1.8827,-1.8827,-1.8827,-1.8827,-1.8827,-1.916,-1.9602,-1.962,-2.0044,-2.068,-2.0942,-2.1293,-2.1741,-2.1741,-2.1741,-2.1741,-2.1741,-2.1741,-2.1741,-2.1741,-2.1741,-2.1741,-2.1741,-2.1365,-2.0997,-2.0439,-1.9613,-1.8703,-1.7512,-1.7412,-1.7124,-1.6015,-1.5832,-1.5832,-1.5832,-1.5832,-1.5832,-1.5832,-1.5832,-1.5933,-1.6143,-1.6218,-1.6305,-1.6602,-1.669,-1.6784,-1.6979,-1.7153,-1.7326,-1.7326,-1.7326,-1.7326,-1.7326,-1.7604,-1.7969,-1.8338,-1.8615,-1.8935,-1.9074,-1.9213,-1.9279,-1.627,0.0,0.0,0.0,0.0,0.0,0.0,0.0,0.0,0.0,0.0,0.0,0.0,0.0,0.0,0.0,0.0,0.0,0.0,0.0,0.0,0.0,0.0,0.0,0.0,0.0,0.0,-1.6246,-1.6254,-1.6492,-1.7111,-1.7127,-1.7286,-1.762,-1.789,-1.8065,-1.8152,-1.851,-1.8684,-1.8684,-1.878,-1.8827,-1.8827,-1.8827,-1.8827,-1.8827,-1.8827,-1.8827,-1.8827,-1.8827,-1.8827,-1.8827,-1.8827,-1.8827,-1.8827,-1.8827,-1.9052,-1.9369,-1.9546,-1.9894,-2.0382,-2.0817,-2.1266,-2.1553,-2.1651,-2.1741,-2.1741,-2.1741,-2.1741,-2.1741,-2.1741,-2.1741,-2.1741,-2.1741,-2.1741,-2.1553,-2.0808,-2.0439,-1.9886,-1.8427,-1.8519,-1.8326,-1.6842,-1.6386,-1.6204,-1.6204,-1.6204,-1.6204,-1.6204,-1.6204,-1.6211,-1.6123,-1.6123,-1.6218,-1.6393,-1.6494,-1.6588,-1.6878,-1.7059,-1.7138,-1.7138,-1.7225,-1.7225,-1.7225,-1.772,-1.804,-1.831,-1.8783,-1.9034,-1.9279,-1.9279,-1.9279,0.0,0.0,0.0,-1.6529,0.0,0.0,0.0,0.0,-1.5899,0.0,0.0,0.0,0.0,0.0,-1.5328,-1.4932,0.0,0.0,0.0,0.0,0.0,0.0,0.0,0.0,0.0,0.0,0.0,-1.5872,-1.5895,-1.6124,-1.6648,-1.6754,-1.6921,-1.7286,-1.731,-1.7469,-1.7787,-1.8144,-1.8319,-1.8319,-1.8661,-1.8827,-1.8827,-1.8827,-1.8827,-1.8827,-1.8827,-1.8827,-1.8827,-1.8827,-1.8827,-1.8827,-1.8827,-1.8827,-1.8827,-1.8827,-1.8827,-1.892,-1.943,-1.9894,-2.0382,-2.0817,-2.0997,-2.1087,-2.1553,-2.1741,-2.1741,-2.1741,-2.1741,-2.1741,-2.1741,-2.1741,-2.1741,-2.1741,-2.1741,-2.1731,-2.1651,-2.0907,-2.0249,-2.0249,-1.943,-1.8788,-1.8696,-1.7878,-1.7232,-1.7232,-1.7232,-1.7232,-1.7232,-1.7232,-1.6857,-1.5927,-1.5832,-1.5832,-1.5825,-1.6028,-1.6312,-1.6588,-1.6581,-1.6574,-1.6648,-1.6828,-1.7008,-1.7008,-1.7843,-1.8254,-1.831,-1.8916,-1.9272,-1.9279,-1.9279,-1.9279,0.0,0.0,-1.9554,-1.8419,0.0,0.0,0.0,0.0,0.0,0.0,0.0,0.0,0.0,0.0,-1.522,-1.5202,-1.5191,-1.522,0.0,0.0,0.0,0.0,0.0,0.0,0.0,0.0,0.0,-1.5625,-1.5816,-1.6124,0.0,-1.673,-1.6786,-1.6913,-1.7151,-1.7334,-1.7445,-1.7779,-1.8065,-1.8295,-1.8422,-1.8597,-1.8827,-1.8827,-1.8827,-1.8827,-1.8827,-1.8827,-1.8827,-1.8827,-1.8827,-1.8827,-1.8827,-1.8827,-1.8827,-1.8827,-1.8827,-1.892,-1.9455,-1.9911,-2.0382,-2.0817,-2.1177,-2.1463,-2.1642,-2.1741,-2.1741,-2.1741,-2.1741,-2.1741,-2.1741,-2.1741,-2.1741,-2.1741,-2.1741,-2.1741,-2.1741,-2.1463,-2.1087,-2.0439,-2.0529,-2.0357,-1.9063,-1.9063,-1.9063,-1.8427,-1.8334,-1.8334,-1.8334,-1.7692,-1.7138,-1.6864,-1.6204,-1.5832,-1.5832,-1.6028,-1.6224,-1.6312,-1.6494,-1.6683,-1.6871,-1.6958,-1.7044,-1.7217,-1.7941,-1.8335,-1.8259,-1.9008,-1.9279,-1.9279,-1.9279,-1.9279,-1.9512,-2.0155,0.0,-1.9592,-1.9443,0.0,-1.8692,0.0,0.0,0.0,0.0,0.0,0.0,0.0,-1.5658,-1.5748,-1.5423,-1.5094,0.0,-1.4728,0.0,0.0,0.0,0.0,0.0,0.0,-1.456,-1.5272,-1.5381,-1.574,0.0,0.0,-1.6603,-1.673,-1.6961,-1.7088,-1.7088,-1.7421,-1.7707,-1.7938,-1.8184,-1.8414,-1.8645,-1.8772,-1.8827,-1.8827,-1.8827,-1.8827,-1.8827,-1.8827,-1.8827,-1.8827,-1.8827,-1.8827,-1.8827,-1.8827,-1.892,-1.9104,-1.9279,-1.9737,-2.0382,-2.0645,-2.1096,-2.1454,-2.1642,-2.1741,-2.1796,-2.2089,-2.1961,-2.1805,-2.2007,-2.1951,-2.1741,-2.1741,-2.1741,-2.1741,-2.1741,-2.1741,-2.1553,-2.0907,-2.1365,-2.1365,-2.0076,-2.0439,-2.0529,-1.9521,-1.9338,-1.9338,-1.9338,-1.8796,-1.8056,-1.7419,-1.6763,-1.6204,-1.5832,-1.5927,-1.6123,-1.6224,-1.6407,-1.6595,-1.6878,-1.6979,-1.7124,-1.7312,-1.7941,-1.8331,-1.8455,-1.9074,-1.9279,-1.9279,-1.9279,-1.9279]},{"header":{"parameterUnit":"m.s-1","parameterCategory":1,"la1":30.6,"la2":29.2853,"lo1":-89.7004,"lo2":-87.6739,"dy":0.0162,"dx":0.0183,"nx":112,"ny":82,"refTime":"2023-04-11T06:00:00:Z","depth":0,"parameterNumber":3,"parameterNumberName":"V-component_of_WINDS"},"data":[0.0,0.0,0.0,0.0,0.0,0.0,0.0,0.0,0.0,0.0,0.0,0.0,0.0,0.0,0.0,0.0,0.0,0.0,0.0,0.0,0.0,0.0,0.0,0.0,0.0,0.0,0.0,0.0,0.0,0.0,0.0,0.0,0.0,0.0,0.0,0.0,0.0,0.0,0.0,0.0,0.0,0.0,0.0,0.0,0.0,0.0,0.0,0.0,0.0,0.0,0.0,0.0,0.0,0.0,0.0,0.0,0.0,0.0,0.0,0.0,0.0,0.0,0.0,0.0,0.0,0.0,0.0,0.0,0.0,0.0,0.0,0.0,0.0,0.0,0.0,0.0,0.0,0.0,0.0,0.0,0.0,0.0,0.0,0.0,0.0,0.0,0.0,0.0,0.0,0.0,-3.5903,-3.5906,-3.5917,-3.5934,-3.5994,-3.5991,-3.5982,-3.5917,0.0,0.0,0.0,0.0,0.0,0.0,0.0,0.0,0.0,0.0,0.0,0.0,0.0,0.0,0.0,0.0,0.0,0.0,0.0,0.0,0.0,0.0,0.0,0.0,0.0,0.0,0.0,0.0,0.0,0.0,0.0,0.0,0.0,0.0,0.0,0.0,0.0,0.0,0.0,0.0,0.0,0.0,0.0,0.0,0.0,0.0,0.0,0.0,0.0,0.0,0.0,0.0,0.0,0.0,0.0,0.0,0.0,0.0,0.0,0.0,0.0,0.0,0.0,0.0,0.0,0.0,0.0,0.0,0.0,0.0,0.0,0.0,0.0,0.0,0.0,0.0,0.0,0.0,0.0,0.0,0.0,0.0,0.0,0.0,0.0,0.0,0.0,0.0,0.0,0.0,0.0,0.0,0.0,0.0,0.0,0.0,0.0,0.0,0.0,0.0,0.0,0.0,0.0,0.0,-3.5918,-3.5986,-3.5982,-3.5996,-3.5994,-3.5991,-3.5994,-3.5999,0.0,0.0,0.0,0.0,0.0,0.0,0.0,0.0,0.0,0.0,0.0,0.0,0.0,0.0,0.0,0.0,0.0,0.0,0.0,0.0,0.0,0.0,0.0,0.0,0.0,0.0,0.0,0.0,0.0,0.0,0.0,0.0,0.0,0.0,0.0,0.0,0.0,0.0,0.0,0.0,0.0,0.0,0.0,0.0,0.0,0.0,0.0,0.0,0.0,0.0,0.0,0.0,0.0,0.0,0.0,0.0,0.0,0.0,0.0,0.0,0.0,0.0,0.0,0.0,0.0,0.0,0.0,0.0,0.0,0.0,0.0,0.0,0.0,0.0,0.0,0.0,0.0,0.0,0.0,0.0,0.0,0.0,0.0,0.0,0.0,0.0,0.0,0.0,0.0,0.0,0.0,0.0,0.0,0.0,0.0,0.0,0.0,0.0,0.0,0.0,0.0,0.0,0.0,-3.5954,-3.5966,-3.5994,-3.5991,-3.5991,-3.5991,-3.5991,-3.5991,-3.5991,-3.5991,0.0,0.0,0.0,0.0,0.0,0.0,0.0,0.0,0.0,0.0,0.0,0.0,0.0,0.0,0.0,0.0,0.0,0.0,0.0,0.0,0.0,0.0,0.0,0.0,0.0,0.0,0.0,0.0,0.0,0.0,0.0,0.0,0.0,0.0,0.0,0.0,0.0,0.0,0.0,0.0,0.0,0.0,0.0,0.0,0.0,0.0,0.0,0.0,0.0,0.0,0.0,0.0,0.0,0.0,0.0,0.0,0.0,0.0,0.0,0.0,0.0,0.0,0.0,0.0,0.0,0.0,0.0,0.0,0.0,0.0,0.0,0.0,0.0,0.0,0.0,0.0,0.0,0.0,0.0,0.0,0.0,0.0,0.0,0.0,0.0,0.0,0.0,0.0,0.0,0.0,0.0,0.0,0.0,0.0,0.0,0.0,0.0,0.0,0.0,0.0,0.0,0.0,-3.5991,-3.601,-3.5991,-3.5991,-3.5991,-3.5991,-3.5985,-3.5985,-3.5991,-3.5985,0.0,0.0,0.0,0.0,0.0,0.0,0.0,0.0,0.0,0.0,0.0,0.0,0.0,0.0,0.0,0.0,0.0,0.0,0.0,0.0,0.0,0.0,0.0,0.0,0.0,0.0,0.0,0.0,0.0,0.0,0.0,0.0,0.0,0.0,0.0,0.0,0.0,0.0,0.0,0.0,0.0,0.0,0.0,0.0,0.0,0.0,0.0,0.0,0.0,0.0,0.0,0.0,0.0,0.0,0.0,0.0,0.0,0.0,0.0,0.0,0.0,0.0,0.0,0.0,0.0,0.0,0.0,0.0,0.0,0.0,0.0,0.0,0.0,0.0,0.0,0.0,0.0,0.0,0.0,0.0,0.0,0.0,0.0,0.0,0.0,0.0,0.0,0.0,0.0,0.0,0.0,0.0,0.0,0.0,0.0,0.0,0.0,0.0,0.0,0.0,0.0,0.0,-3.6004,-3.6004,-3.5991,-3.5991,-3.5991,-3.5991,-3.5942,-3.5934,-3.5991,-3.5938,0.0,0.0,0.0,0.0,0.0,0.0,0.0,0.0,0.0,0.0,0.0,0.0,0.0,0.0,0.0,0.0,0.0,0.0,0.0,0.0,0.0,0.0,0.0,0.0,0.0,0.0,0.0,0.0,0.0,0.0,0.0,0.0,0.0,0.0,0.0,0.0,0.0,0.0,0.0,0.0,0.0,0.0,0.0,0.0,0.0,0.0,0.0,0.0,0.0,0.0,0.0,0.0,0.0,0.0,0.0,0.0,0.0,0.0,0.0,0.0,0.0,0.0,0.0,0.0,0.0,0.0,0.0,0.0,0.0,0.0,0.0,0.0,0.0,0.0,0.0,0.0,0.0,0.0,0.0,0.0,0.0,0.0,0.0,0.0,0.0,0.0,0.0,0.0,0.0,0.0,0.0,0.0,0.0,0.0,0.0,0.0,0.0,0.0,0.0,0.0,0.0,0.0,-3.601,-3.6007,0.0,-3.5955,-3.5938,-3.5938,-3.5846,-3.5814,-3.5934,0.0,0.0,0.0,0.0,0.0,0.0,0.0,0.0,0.0,0.0,0.0,0.0,0.0,0.0,0.0,0.0,0.0,0.0,0.0,0.0,0.0,0.0,0.0,0.0,0.0,0.0,0.0,0.0,0.0,0.0,0.0,0.0,0.0,0.0,0.0,0.0,0.0,0.0,0.0,0.0,0.0,0.0,0.0,0.0,0.0,0.0,0.0,0.0,0.0,0.0,0.0,0.0,0.0,0.0,0.0,0.0,0.0,0.0,0.0,0.0,0.0,0.0,0.0,0.0,0.0,0.0,0.0,0.0,0.0,0.0,0.0,0.0,0.0,0.0,0.0,0.0,0.0,0.0,0.0,0.0,0.0,0.0,0.0,0.0,0.0,0.0,0.0,0.0,0.0,0.0,0.0,0.0,0.0,0.0,0.0,0.0,0.0,0.0,0.0,0.0,0.0,0.0,-3.5962,-3.5947,-3.5938,0.0,-3.5858,-3.5833,-3.5833,-3.5721,-3.5685,-3.5833,0.0,0.0,0.0,0.0,0.0,0.0,0.0,0.0,0.0,0.0,0.0,0.0,0.0,0.0,0.0,0.0,0.0,0.0,0.0,0.0,0.0,0.0,0.0,0.0,0.0,0.0,0.0,0.0,0.0,0.0,0.0,0.0,0.0,0.0,0.0,0.0,0.0,0.0,0.0,0.0,0.0,0.0,0.0,0.0,0.0,0.0,0.0,0.0,0.0,0.0,0.0,0.0,0.0,0.0,0.0,0.0,0.0,0.0,0.0,0.0,0.0,0.0,0.0,0.0,0.0,0.0,0.0,0.0,0.0,0.0,0.0,0.0,0.0,0.0,0.0,0.0,0.0,0.0,0.0,0.0,0.0,0.0,0.0,0.0,0.0,0.0,0.0,0.0,0.0,0.0,0.0,0.0,0.0,0.0,0.0,0.0,0.0,0.0,0.0,0.0,0.0,0.0,-3.5914,-3.5846,-3.5776,-3.5706,-3.5697,-3.5697,-3.5697,-3.557,-3.554,0.0,0.0,0.0,0.0,0.0,0.0,0.0,0.0,0.0,0.0,0.0,0.0,0.0,0.0,0.0,0.0,0.0,0.0,0.0,0.0,0.0,0.0,0.0,0.0,0.0,0.0,0.0,0.0,0.0,0.0,0.0,0.0,0.0,0.0,0.0,0.0,0.0,0.0,0.0,0.0,0.0,0.0,0.0,0.0,0.0,0.0,0.0,0.0,0.0,0.0,0.0,0.0,0.0,0.0,0.0,0.0,0.0,0.0,0.0,0.0,0.0,0.0,0.0,0.0,0.0,0.0,0.0,0.0,0.0,0.0,0.0,0.0,0.0,0.0,0.0,0.0,0.0,0.0,0.0,0.0,0.0,0.0,0.0,0.0,0.0,0.0,0.0,0.0,0.0,0.0,0.0,0.0,0.0,0.0,0.0,0.0,0.0,0.0,0.0,0.0,0.0,0.0,0.0,-3.584,-3.5737,-3.5659,-3.5621,-3.559,-3.5566,-3.5566,-3.5445,-3.5432,-3.5546,0.0,0.0,0.0,0.0,0.0,0.0,0.0,0.0,0.0,0.0,0.0,0.0,0.0,0.0,0.0,0.0,0.0,0.0,0.0,0.0,0.0,0.0,0.0,0.0,0.0,0.0,0.0,0.0,0.0,0.0,0.0,0.0,0.0,0.0,0.0,0.0,0.0,0.0,0.0,0.0,0.0,0.0,0.0,0.0,0.0,0.0,0.0,0.0,0.0,0.0,0.0,0.0,0.0,0.0,0.0,0.0,0.0,0.0,0.0,0.0,0.0,0.0,0.0,0.0,0.0,0.0,0.0,0.0,0.0,0.0,0.0,0.0,0.0,0.0,0.0,0.0,0.0,0.0,0.0,0.0,0.0,0.0,0.0,0.0,0.0,0.0,0.0,0.0,0.0,0.0,0.0,0.0,0.0,0.0,0.0,0.0,0.0,0.0,0.0,0.0,0.0,0.0,-3.5757,-3.5611,-3.5516,-3.5481,-3.5445,-3.5411,-3.5411,-3.5345,-3.533,-3.5424,0.0,0.0,0.0,0.0,0.0,0.0,0.0,0.0,0.0,0.0,0.0,0.0,0.0,0.0,0.0,0.0,0.0,0.0,0.0,0.0,0.0,0.0,0.0,0.0,0.0,0.0,0.0,0.0,0.0,0.0,0.0,0.0,0.0,0.0,0.0,0.0,0.0,0.0,0.0,0.0,0.0,0.0,0.0,0.0,0.0,0.0,0.0,0.0,0.0,0.0,0.0,0.0,0.0,0.0,0.0,0.0,0.0,0.0,0.0,0.0,0.0,0.0,0.0,0.0,0.0,0.0,0.0,0.0,0.0,0.0,0.0,0.0,0.0,0.0,0.0,0.0,0.0,0.0,0.0,0.0,0.0,0.0,0.0,0.0,0.0,0.0,0.0,0.0,0.0,0.0,0.0,0.0,0.0,0.0,0.0,0.0,0.0,0.0,0.0,0.0,0.0,0.0,-3.5922,-3.5739,-3.5585,-3.5522,-3.5506,-3.5487,-3.5411,-3.5411,-3.5369,-3.53,0.0,0.0,0.0,0.0,0.0,0.0,0.0,0.0,0.0,0.0,0.0,0.0,0.0,0.0,0.0,0.0,0.0,0.0,0.0,0.0,0.0,0.0,0.0,0.0,0.0,0.0,0.0,0.0,0.0,0.0,0.0,0.0,0.0,0.0,0.0,0.0,0.0,0.0,0.0,0.0,0.0,0.0,0.0,0.0,0.0,0.0,0.0,0.0,0.0,0.0,0.0,0.0,0.0,0.0,0.0,0.0,0.0,0.0,0.0,0.0,-3.8003,0.0,0.0,0.0,0.0,0.0,0.0,0.0,0.0,0.0,0.0,0.0,0.0,0.0,0.0,0.0,0.0,0.0,0.0,0.0,0.0,0.0,0.0,0.0,0.0,0.0,0.0,0.0,0.0,0.0,0.0,0.0,0.0,0.0,0.0,0.0,0.0,0.0,0.0,0.0,0.0,0.0,-3.7591,-3.7373,-3.7209,-3.7194,-3.7194,-3.6927,-3.6298,-3.6241,-3.5952,-3.5245,-3.5261,0.0,0.0,0.0,0.0,0.0,0.0,0.0,0.0,0.0,0.0,0.0,0.0,0.0,0.0,0.0,0.0,0.0,0.0,0.0,0.0,0.0,0.0,0.0,0.0,0.0,0.0,0.0,0.0,0.0,0.0,0.0,0.0,0.0,0.0,0.0,0.0,0.0,0.0,0.0,0.0,0.0,0.0,0.0,0.0,0.0,0.0,0.0,0.0,0.0,0.0,0.0,0.0,0.0,0.0,0.0,0.0,0.0,0.0,0.0,0.0,-3.8189,0.0,0.0,0.0,0.0,0.0,0.0,0.0,0.0,0.0,0.0,0.0,0.0,0.0,0.0,0.0,0.0,0.0,0.0,0.0,0.0,0.0,0.0,0.0,0.0,0.0,0.0,0.0,0.0,0.0,0.0,0.0,0.0,0.0,0.0,0.0,0.0,0.0,0.0,0.0,0.0,-3.8003,-3.784,-3.7693,-3.7693,-3.7693,-3.7521,-3.712,-3.7082,-3.6719,-3.5878,-3.5856,0.0,0.0,0.0,0.0,0.0,0.0,0.0,0.0,0.0,0.0,0.0,0.0,0.0,0.0,0.0,0.0,0.0,0.0,0.0,0.0,0.0,0.0,0.0,0.0,0.0,0.0,0.0,0.0,0.0,0.0,0.0,0.0,0.0,0.0,0.0,0.0,0.0,0.0,0.0,0.0,0.0,0.0,0.0,0.0,0.0,0.0,0.0,0.0,0.0,0.0,0.0,0.0,0.0,-3.9233,-3.9658,-4.0425,-4.0595,-4.0704,-4.0686,-3.9189,-3.9077,-3.9882,0.0,0.0,0.0,0.0,0.0,0.0,0.0,0.0,0.0,0.0,0.0,0.0,0.0,0.0,0.0,0.0,0.0,0.0,0.0,0.0,0.0,0.0,0.0,0.0,0.0,-3.7313,-3.6978,0.0,0.0,0.0,0.0,0.0,0.0,0.0,0.0,0.0,0.0,0.0,0.0,-3.8373,-3.8235,-3.8151,-3.8151,-3.8151,-3.8094,-3.7941,-3.7922,-3.7578,-3.6757,-3.6585,-3.6184,0.0,0.0,0.0,0.0,0.0,0.0,0.0,0.0,0.0,0.0,0.0,0.0,0.0,0.0,0.0,0.0,0.0,0.0,0.0,0.0,0.0,0.0,0.0,0.0,0.0,0.0,0.0,0.0,0.0,0.0,0.0,0.0,-3.4772,-3.5901,0.0,0.0,0.0,0.0,0.0,0.0,0.0,0.0,0.0,0.0,0.0,0.0,0.0,0.0,-3.987,-4.0046,-4.021,-4.0372,-4.0554,-4.0739,-4.0913,-4.0946,-4.0985,-4.1042,-4.0784,0.0,-4.0811,-4.0638,0.0,0.0,0.0,0.0,0.0,0.0,0.0,0.0,0.0,0.0,0.0,0.0,0.0,0.0,0.0,0.0,0.0,0.0,0.0,0.0,0.0,0.0,-3.9477,-3.8613,-3.8391,-3.8202,0.0,-3.7613,-3.78,-3.7904,-3.7924,0.0,0.0,0.0,0.0,0.0,0.0,0.0,-4.0162,-4.0053,-3.9966,-3.9966,-3.9966,-3.9661,-3.8897,-3.8839,-3.8457,-3.7597,-3.6891,-3.6451,-3.6337,-3.5611,0.0,0.0,0.0,0.0,0.0,0.0,0.0,0.0,0.0,0.0,0.0,0.0,0.0,0.0,0.0,0.0,0.0,0.0,0.0,0.0,0.0,0.0,0.0,0.0,0.0,0.0,0.0,0.0,0.0,-3.4667,-3.5685,-3.6203,-3.6182,-3.6106,0.0,0.0,0.0,0.0,0.0,0.0,0.0,0.0,0.0,-3.978,-3.9797,-4.0038,-4.0519,-4.0651,-4.0737,-4.0766,-4.0895,-4.0985,-4.1054,-4.1061,-4.1089,-4.117,-4.117,-4.1143,-4.1091,-4.0992,-4.0962,-4.1,0.0,0.0,0.0,0.0,-4.0799,-4.0828,-4.0962,-4.1014,0.0,0.0,0.0,0.0,0.0,0.0,0.0,0.0,0.0,0.0,0.0,0.0,0.0,-3.9675,-3.9564,-3.9488,-3.9221,-3.9248,-3.9192,0.0,-3.8616,-3.8781,-3.935,0.0,0.0,0.0,0.0,-4.0476,-4.0396,-4.0346,-4.031,-4.031,-4.031,-4.0157,-3.9756,-3.9737,-3.9355,-3.8495,-3.8094,-3.7693,-3.7196,-3.6375,-3.5935,0.0,0.0,0.0,0.0,0.0,0.0,0.0,0.0,0.0,0.0,0.0,0.0,0.0,0.0,0.0,0.0,0.0,0.0,0.0,0.0,0.0,0.0,0.0,0.0,0.0,0.0,0.0,0.0,-3.5937,-3.6636,-3.6806,-3.6914,-3.6962,0.0,0.0,0.0,0.0,0.0,0.0,-3.9948,-4.0176,-4.0356,-4.0569,-4.0583,-4.0646,-4.081,-4.0848,-4.09,-4.0958,-4.098,-4.103,-4.113,-4.113,-4.115,-4.1208,-4.1196,-4.1211,-4.1189,-4.109,-4.105,-4.106,-4.1035,-4.1045,-4.1038,-4.0921,-4.0874,-4.0898,-4.1054,-4.1108,-4.1108,-4.1108,0.0,-4.1108,-4.1108,0.0,0.0,0.0,0.0,-4.0856,-4.0565,-4.0391,-4.03,-4.0308,-4.031,-4.031,-4.031,-4.031,-4.0119,0.0,-3.9336,-3.9563,-4.0332,0.0,0.0,0.0,0.0,-4.0413,-4.031,-4.031,-4.031,-4.031,-4.031,-4.031,-4.031,-4.031,-4.0024,-3.9374,-3.9126,-3.8706,-3.8056,-3.7234,-3.6702,-3.6491,0.0,0.0,0.0,0.0,0.0,0.0,0.0,0.0,0.0,0.0,0.0,0.0,0.0,0.0,0.0,0.0,0.0,0.0,0.0,0.0,0.0,0.0,0.0,0.0,0.0,0.0,0.0,0.0,0.0,-3.8689,-3.9104,0.0,0.0,0.0,0.0,-3.9688,-3.9728,-3.9948,-4.0438,-4.0473,-4.0583,-4.0778,-4.079,-4.0829,-4.09,-4.0829,-4.09,-4.1093,-4.1038,-4.1066,-4.119,-4.119,-4.119,-4.119,-4.1203,-4.1208,-4.1202,-4.1182,-4.1185,-4.1183,-4.1116,-4.1133,-4.1172,-4.1114,-4.1074,-4.1091,-4.1091,-4.1091,-4.1108,-4.1108,-4.1108,-4.1108,-4.1108,-4.0964,0.0,0.0,-4.0481,-4.043,-4.0409,-4.0358,-4.0307,-4.0291,-4.031,-4.031,-4.031,-4.031,-4.0291,0.0,-4.0234,-4.0253,-4.0291,0.0,-4.031,-4.031,-4.031,-4.031,-4.031,-4.031,-4.031,-4.031,-4.031,-4.031,-4.031,-4.031,-4.0291,-4.0253,-3.947,-3.8973,-3.8935,-3.8094,-3.7255,-3.642,-3.6363,0.0,0.0,0.0,0.0,0.0,0.0,0.0,0.0,0.0,0.0,0.0,0.0,0.0,0.0,0.0,0.0,0.0,0.0,0.0,0.0,0.0,0.0,0.0,0.0,0.0,0.0,0.0,0.0,-3.909,-3.9486,0.0,-3.9607,-3.9766,-3.9986,-4.0247,-4.0383,-4.0515,-4.0673,-4.0687,-4.072,-4.079,-4.079,-4.0829,-4.09,-4.1432,-4.1772,-4.1879,-4.2465,-4.2573,-4.2285,-4.2298,-4.1882,-4.1199,-4.1197,-4.2441,-4.4484,-4.4471,-4.3183,-4.1192,-4.1127,-4.1104,-4.1127,-4.1108,-4.1108,-4.142,-4.3668,-4.4449,-4.4254,-4.3138,-4.2767,-4.2744,-4.2612,-4.2629,-4.259,-4.2267,-4.1357,-4.0689,-4.17,-4.1126,-4.0559,-4.1648,-4.1609,-4.1533,-4.2278,-4.2144,-4.1915,-4.1915,-4.1457,-4.1074,-4.1074,-4.1533,-4.1915,-4.1915,-4.1915,-4.1915,-4.1915,-4.1915,-4.1915,-4.1915,-4.1915,-4.1915,-4.1915,-4.1399,-4.1074,-4.1074,-4.0291,-3.9852,-3.9852,-3.9011,-3.8382,-3.8022,-3.7452,-3.6673,0.0,0.0,0.0,0.0,0.0,0.0,0.0,0.0,0.0,0.0,0.0,0.0,0.0,0.0,0.0,0.0,0.0,0.0,0.0,0.0,0.0,0.0,0.0,0.0,0.0,0.0,-3.9557,-3.9333,-3.9518,-3.9738,-3.989,-3.9904,-4.0104,-4.0564,-4.072,-4.079,-4.079,-4.1061,-4.1228,-4.1248,-4.1519,-4.1712,-4.1802,-4.2369,-4.2597,-4.2513,-4.3089,-4.3283,-4.3144,-4.2572,-4.1914,-4.1257,-4.2424,-4.4201,-4.63,-4.63,-4.4953,-4.292,-4.2861,-4.2845,-4.2845,-4.2845,-4.2845,-4.3177,-4.5503,-4.6049,-4.5542,-4.439,-4.386,-4.3677,-4.3487,-4.3506,-4.3536,-4.3221,-4.2276,-4.1559,-4.256,-4.1972,-4.1457,-4.2775,-4.2641,-4.2449,-4.3387,-4.3177,-4.2794,-4.2794,-4.2335,-4.1934,-4.1934,-4.2412,-4.2794,-4.2794,-4.2794,-4.2794,-4.2794,-4.2794,-4.2794,-4.2794,-4.2794,-4.2794,-4.2794,-4.2278,-4.18,-4.1514,-4.0998,-4.0559,-4.0273,-3.9719,-3.9204,-3.8705,-3.7766,-3.7065,-3.6673,0.0,0.0,0.0,0.0,0.0,0.0,0.0,0.0,0.0,0.0,0.0,0.0,0.0,0.0,0.0,0.0,0.0,0.0,0.0,0.0,0.0,0.0,0.0,-3.9439,-3.9588,-3.9656,-3.9523,-3.9353,-3.9442,-4.0055,-3.9769,-3.9894,-4.0732,-4.081,-4.0829,-4.0829,-4.1603,-4.208,-4.2131,-4.2963,-4.346,-4.3569,-4.3536,-4.3333,-4.293,-4.2844,-4.316,-4.373,-4.2109,-4.1362,-4.153,-4.4855,-4.63,-4.63,-4.63,-4.63,-4.63,-4.6303,-4.6303,-4.6303,-4.6303,-4.6303,-4.6303,-4.6303,-4.5581,-4.4644,-4.4641,-4.425,-4.3755,-4.3617,-4.3517,-4.3441,-4.3299,-4.3181,-4.3056,-4.3003,-4.2928,-4.3025,-4.3522,-4.3272,-4.3023,-4.354,-4.3253,-4.2889,-4.2889,-4.2889,-4.287,-4.2832,-4.2851,-4.2889,-4.2889,-4.2889,0.0,-4.2889,-4.2889,-4.2889,-4.2889,-4.2889,-4.2889,-4.2889,-4.2851,-4.2488,-4.1628,-4.1552,-4.1151,-4.0272,-4.0292,-3.9716,-3.8376,-3.7237,-3.6906,-3.7408,0.0,0.0,0.0,0.0,0.0,0.0,0.0,0.0,0.0,0.0,0.0,0.0,0.0,0.0,0.0,0.0,0.0,0.0,0.0,0.0,0.0,0.0,-3.9787,-3.964,-3.9508,-3.9615,-4.0164,-3.9783,-3.9792,-4.0524,-4.0501,-4.0539,-4.0771,-4.1332,-4.1661,-4.1661,-4.2544,-4.3028,-4.3028,-4.3316,-4.3297,-4.295,-4.3796,-4.3961,-4.3496,-4.4726,-4.541,-4.557,-4.5102,-4.4904,-4.4953,-4.589,-4.63,-4.63,-4.63,-4.63,-4.63,-4.63,-4.63,-4.63,-4.63,-4.63,-4.63,-4.63,-4.6085,-4.5828,-4.5713,-4.5585,-4.5404,-4.5218,-4.5196,-4.5157,-4.4932,-4.4906,-4.4925,-4.4748,-4.4651,-4.4648,-4.4801,-4.4704,-4.4647,-4.4801,-4.4704,-4.4609,-4.4609,-4.4609,-4.4418,-4.3787,-4.4188,-4.4609,-4.4609,-4.4609,0.0,-4.4609,-4.4609,-4.4609,-4.4609,-4.4609,-4.4609,-4.4609,-4.4036,-4.3577,-4.3329,-4.2775,-4.2029,-4.1111,-4.1073,-4.0511,-3.9279,-3.8271,-3.7742,0.0,0.0,0.0,0.0,0.0,0.0,0.0,0.0,0.0,0.0,0.0,0.0,0.0,0.0,0.0,0.0,0.0,0.0,0.0,0.0,0.0,0.0,-3.9986,-4.0241,-4.017,-4.0,-4.0069,-4.0571,-3.9978,-3.9879,-4.0725,-4.079,-4.0945,-4.1274,-4.2099,-4.2583,-4.2602,-4.3451,-4.3975,-4.4025,-4.4423,-4.4499,-4.4215,-4.4904,-4.5098,-4.4803,-4.5829,-4.6306,-4.63,-4.63,-4.63,0.0,-4.63,-4.63,-4.63,-4.63,-4.63,0.0,0.0,0.0,0.0,0.0,-4.63,-4.63,-4.63,-4.63,-4.6296,-4.6211,-4.6144,-4.6076,-4.5894,-4.5847,-4.5822,-4.5599,-4.5584,-4.5584,-4.5438,-4.5379,-4.5338,-4.5317,-4.5297,-4.5297,-4.5297,-4.5297,-4.5297,-4.5297,-4.5297,0.0,-4.4628,-4.4953,-4.5297,-4.5297,-4.5297,-4.5297,-4.5297,-4.5297,-4.5297,-4.5297,-4.5297,-4.5297,-4.5297,-4.4817,0.0,0.0,0.0,-4.2766,-4.174,-4.1207,0.0,0.0,0.0,-3.842,-3.8499,0.0,0.0,0.0,-3.761,-3.739,0.0,0.0,0.0,0.0,0.0,0.0,0.0,0.0,0.0,0.0,0.0,0.0,0.0,0.0,0.0,0.0,-4.0423,-4.08,-4.08,-4.0842,-4.0836,-4.082,-4.013,-4.0002,-4.0861,-4.1035,-4.1403,-4.2099,-4.3034,-4.3557,-4.355,0.0,0.0,0.0,0.0,-4.6247,-4.63,-4.63,-4.63,-4.63,-4.63,-4.6295,-4.63,-4.63,-4.63,-4.63,-4.63,-4.63,-4.63,-4.63,-4.63,-4.63,-4.63,-4.63,-4.63,-4.63,-4.63,-4.63,-4.63,0.0,0.0,-4.6269,-4.617,-4.6041,-4.5919,-4.5822,-4.5742,-4.562,-4.5531,-4.5476,-4.54,-4.54,-4.5359,-4.5317,-4.5297,-4.5297,-4.5297,-4.5297,-4.5297,-4.5297,-4.5297,-4.5297,-4.5297,-4.5297,-4.5297,-4.5297,-4.5297,-4.5297,-4.5297,-4.5297,-4.5297,-4.5297,0.0,0.0,-4.5297,-4.5254,-4.4868,-4.4083,-4.3888,-4.3354,-4.234,-4.1081,-4.0588,-4.0872,-3.9478,-3.8966,-3.9507,-3.9219,-3.9036,-3.8971,-3.8014,-3.7593,0.0,0.0,0.0,0.0,0.0,0.0,0.0,0.0,0.0,0.0,0.0,0.0,0.0,0.0,0.0,-4.0089,-4.0505,-4.0812,-4.0856,-4.1457,-4.1651,-4.0964,-4.0731,-4.0953,-4.1765,-4.2478,-4.2957,-4.3111,-4.395,-4.444,-4.4459,-4.5389,0.0,-4.5879,-4.6134,-4.6295,-4.6306,-4.6306,-4.6306,-4.6306,0.0,0.0,-4.63,-4.63,-4.63,-4.63,-4.63,-4.63,-4.63,-4.63,-4.63,-4.63,-4.63,-4.63,-4.63,-4.63,-4.63,-4.63,-4.63,-4.624,-4.6112,-4.6005,-4.5908,-4.5829,-4.5712,-4.5651,0.0,-4.5495,-4.5419,-4.54,-4.5339,-4.5317,-4.5317,-4.5297,-4.5297,-4.5297,-4.5297,-4.5297,-4.5297,-4.5297,-4.5297,-4.5297,-4.5297,-4.5297,-4.5297,-4.5297,-4.5297,-4.5297,-4.5297,-4.5297,-4.5297,-4.5297,-4.5297,-4.5297,-4.5297,-4.5254,-4.5135,-4.4963,-4.4246,-4.37,-4.3483,-4.2042,-4.1303,-4.1361,-4.0191,-3.9525,-3.9418,-3.9407,-3.9242,-3.9008,-3.8801,-3.8852,0.0,0.0,0.0,0.0,0.0,0.0,0.0,0.0,0.0,0.0,0.0,-3.9008,-3.9382,0.0,-3.9948,-4.0424,-4.0711,-4.1013,-4.149,-4.1937,-4.2043,-4.1563,-4.1884,-4.2311,-4.2714,-4.3546,-4.4044,-4.4044,-4.489,-4.5423,-4.546,-4.5928,-4.6196,-4.6206,-4.6269,-4.63,-4.63,-4.63,-4.63,-4.63,-4.63,-4.63,-4.63,-4.63,-4.63,-4.63,-4.63,-4.63,-4.63,-4.63,-4.63,-4.63,-4.63,-4.63,-4.63,-4.63,-4.6269,-4.6206,-4.6206,-4.6105,-4.5987,-4.592,-4.5859,-4.5786,-4.5712,-4.5635,-4.555,-4.5476,-4.5419,-4.54,-4.5359,-4.5317,-4.5297,-4.5297,-4.5297,-4.5297,-4.5297,-4.5297,-4.5297,-4.5297,-4.5297,-4.5297,-4.5297,-4.5297,-4.5297,-4.5297,-4.5297,-4.5297,-4.5297,-4.5297,-4.5297,-4.5297,-4.5297,-4.5297,-4.5297,-4.5065,-4.4814,-4.4681,-4.4285,-4.3954,-4.3614,-4.2801,-4.2286,-4.208,-4.1144,-4.0585,-4.0451,-4.0311,-4.0078,-3.974,-3.974,-3.9721,0.0,0.0,0.0,0.0,0.0,0.0,0.0,0.0,-3.8707,-3.8979,-3.9064,-3.9234,-3.97,-3.9929,-4.02,-4.0725,-4.1013,-4.1393,-4.2092,-4.248,-4.2685,-4.2621,-4.3244,-4.3671,-4.3664,-4.4453,-4.497,-4.4974,-4.5676,-4.6142,-4.6195,-4.6209,-4.6245,-4.63,-4.63,-4.63,-4.63,-4.63,-4.6296,-4.6303,-4.6296,-4.6296,-4.6308,-4.6296,-4.6296,-4.6308,-4.6299,-4.6299,-4.6308,-4.6308,-4.6308,-4.6308,-4.6308,-4.6303,-4.6294,-4.6264,-4.6176,-4.6057,-4.6057,-4.5978,-4.5886,-4.5886,-4.5822,-4.5757,-4.5757,-4.5632,-4.5495,-4.5495,-4.5438,-4.5398,-4.5379,-4.5338,-4.5297,-4.5297,-4.5297,-4.5297,-4.5297,-4.5297,-4.5297,-4.5297,-4.5297,-4.5297,-4.5297,-4.5297,-4.5297,-4.5297,-4.5297,-4.5297,-4.5297,-4.5297,-4.5297,-4.5297,-4.5297,-4.5297,-4.5256,-4.4887,-4.4538,-4.4162,-4.4318,-4.4136,-4.3523,-4.3341,-4.3154,-4.2934,-4.2008,-4.1612,-4.1739,-4.1311,-4.0983,-4.0787,-4.0836,-4.0626,-3.5582,-3.6847,-3.7755,-3.7825,-3.8346,-3.8862,0.0,0.0,-3.9183,-3.9476,-3.9642,-3.9854,-4.0101,-4.029,-4.0538,-4.0846,-4.1548,-4.2092,-4.2189,-4.3533,-4.4499,-4.4495,-4.4589,-4.4651,-4.4637,-4.5421,-4.5943,-4.5937,-4.6105,-4.6191,-4.6206,-4.6269,-4.6284,-4.63,-4.63,-4.63,-4.63,-4.63,-4.6294,-4.629,-4.6294,-4.6299,-4.6287,-4.6303,-4.6299,-4.6307,-4.6307,-4.6297,-4.6307,-4.6307,-4.6307,-4.6307,-4.6307,-4.6302,-4.628,-4.6169,-4.6041,-4.592,-4.592,-4.5863,-4.5808,-4.5808,-4.5727,-4.562,-4.562,-4.5568,-4.5495,-4.5419,-4.5419,-4.5398,-4.5317,-4.5317,-4.5297,-4.5297,-4.5297,-4.5297,-4.5297,-4.5297,-4.5297,-4.5297,-4.5297,-4.5297,-4.5297,-4.5297,-4.5297,-4.5297,-4.5297,-4.5297,-4.5297,-4.5297,-4.5297,-4.5297,-4.5297,-4.5235,-4.5125,-4.5014,-4.4783,-4.4402,-4.4402,-4.4242,-4.3849,-4.3531,-4.3494,-4.3751,-4.2386,-4.1983,-4.2567,-4.1802,-4.1585,-4.1836,-4.209,-4.1815,-3.6676,-3.7524,-3.7995,-3.836,-3.8695,-3.895,-3.9156,-3.921,-3.9283,-3.9552,-3.9754,-3.9958,-4.0157,-4.0358,-4.0752,0.0,-4.1956,-4.2539,-4.3569,-4.4339,-4.4988,-4.5507,-4.5587,-4.5601,-4.5566,-4.5913,-4.6158,-4.6166,-4.6212,-4.6254,-4.6269,-4.6278,-4.6303,-4.6309,-4.6303,-4.63,-4.63,-4.6289,-4.6294,-4.631,-4.6021,-4.6035,-4.6299,-4.6297,-4.6152,-4.5901,-4.5889,-4.5899,-4.5901,-4.6192,-4.629,-4.627,-4.5998,-4.5886,-4.5899,-4.5959,-4.5919,-4.5835,-4.5835,-4.5761,-4.5684,-4.5684,-4.5654,-4.5586,-4.5586,-4.5532,-4.5438,-4.5419,-4.5361,-4.5338,-4.5317,-4.5297,-4.5297,-4.5297,-4.5297,-4.5297,-4.5297,-4.5297,-4.5297,-4.5297,-4.5132,-4.5068,-4.5275,-4.5151,-4.5087,-4.5256,-4.5297,-4.5297,-4.5297,-4.5297,-4.5297,-4.5254,-4.5235,-4.5148,-4.487,-4.4584,-4.427,-4.3962,-4.3849,-4.3689,-4.3336,-4.3557,-4.3656,-4.3623,-4.321,-4.3026,-4.3107,-4.2984,-4.2878,-4.2829,-4.3127,-4.3135,-3.7488,-3.8047,-3.8328,-3.8844,-3.9036,-3.912,-3.9283,-3.9309,-3.9388,-3.9631,-3.9826,-4.0041,-4.0248,-4.0635,-4.1203,-4.2039,-4.2567,-4.3335,-4.4618,-4.5013,-4.5415,-4.6055,-4.6182,-4.621,-4.6163,-4.6191,-4.6229,-4.6229,-4.6276,-4.63,-4.63,-4.6306,-4.6407,-4.6644,-4.6655,-4.6761,-4.6962,-4.6781,-4.6761,-4.6902,-4.6957,-4.7183,-4.7507,-4.7507,-4.7333,-4.701,-4.7023,-4.7004,-4.7023,-4.7365,-4.75,-4.7481,-4.7151,-4.7002,-4.7021,-4.7165,-4.6809,-4.621,-4.621,-4.6246,-4.6259,-4.6124,-4.6028,-4.5951,-4.5951,-4.5687,-4.54,-4.54,-4.5341,-4.5297,-4.5297,-4.5297,-4.5297,-4.5297,-4.5297,-4.5256,-4.5173,-4.5173,-4.5173,-4.5173,-4.491,-4.4795,-4.5109,-4.4957,-4.4843,-4.5042,-4.5109,-4.5173,-4.5173,-4.5087,-4.5042,-4.5042,-4.4929,-4.4764,-4.4522,-4.4184,-4.3849,-4.356,-4.344,-4.3249,-4.292,-4.3371,-4.3557,-4.3406,-4.3557,-4.359,-4.3523,-4.3689,-4.3754,-4.367,-4.3881,-4.4042,-3.779,-3.836,-3.8921,-3.9129,-3.9406,-3.9577,-3.9596,-3.9577,-3.965,-3.9848,-4.006,-4.0251,-4.0457,-4.1363,-4.2059,-4.2106,-4.3516,-4.4666,-4.4779,-4.5587,-4.6173,-4.6191,-4.6261,-4.6303,0.0,-4.6303,-4.6303,-4.6303,-4.63,-4.63,-4.63,-4.6295,-4.6686,-4.753,-4.7569,-4.7894,-4.8631,-4.7981,-4.7923,-4.845,-4.986,-5.0539,-5.0569,-5.0569,-5.055,-5.055,-5.0557,-5.0535,-5.054,-5.0569,-5.0583,-5.0583,-5.0563,-5.0558,-5.0545,-5.0545,-4.9142,-4.7241,-4.7241,-4.7587,-4.7952,-4.7414,-4.7068,-4.6855,-4.6855,-4.6167,-4.54,-4.54,-4.5341,-4.5297,-4.5297,-4.5297,-4.5297,-4.5297,-4.5297,-4.5194,-4.491,-4.4819,-4.4819,-4.4819,-4.4599,-4.4493,-4.4751,-4.4819,-4.4701,-4.4465,-4.465,-4.4819,-4.4819,-4.4519,-4.4383,-4.4599,-4.4261,-4.4028,-4.4016,-4.3974,-4.3754,-4.344,-4.3406,-4.3249,-4.292,-4.292,-4.3087,-4.3406,-4.3087,-4.3249,-4.3881,-4.3557,-4.3735,-4.4374,-4.425,-4.4317,-3.841,-3.9213,-3.9937,-4.0192,-4.0727,-4.1191,-4.1191,-4.1191,-4.1268,-4.1495,-4.1589,-4.172,-4.2093,-4.2502,-4.3007,-4.3722,-4.4346,-4.497,-4.5592,-4.5968,-4.6209,-4.6191,-4.6261,0.0,0.0,0.0,0.0,-4.63,-4.63,-4.6514,-4.7002,-4.7028,-4.7391,-4.8174,-4.8205,-4.8322,-4.8564,-4.8662,-4.8618,-4.8516,-4.9992,-5.0694,-5.0699,-5.0699,-5.0699,-5.0699,-5.0702,-4.9412,-4.7314,-4.7314,-4.7332,-4.7332,-4.7332,-4.87,-5.0702,-5.0702,-5.0202,-4.9567,-4.9566,-4.8913,-4.8067,-4.7875,-4.8048,-4.822,-4.7817,-4.7415,-4.7126,-4.7126,-4.7044,-4.6825,-4.6252,-4.6099,-4.5965,-4.543,-4.5297,-4.5256,-4.5173,-4.4957,-4.48,-4.48,-4.443,-4.4221,-4.4493,-4.4374,-4.4221,-4.4023,-4.4299,-4.4519,-4.4519,-4.4402,-4.4318,-4.4346,-4.4136,-4.3986,-4.3943,-4.3721,-4.3523,-4.3406,-4.3178,-4.3014,-4.2882,-4.2882,-4.2957,-4.3087,-4.2957,-4.3014,-4.3249,-4.3336,-4.3623,-4.4065,-4.426,-4.4383,-3.9105,-3.9843,-4.0514,-4.1102,-4.1623,-4.1991,-4.1991,-4.1991,-4.2102,-4.2443,-4.2471,-4.2579,-4.3022,-4.3419,-4.3886,-4.4563,-4.4978,-4.5429,-4.6027,-4.6144,-4.619,-4.6228,-4.6273,-4.63,0.0,0.0,0.0,-4.6768,-4.6435,-4.6573,-4.7356,-4.7348,-4.7689,-4.8483,-4.8805,-4.9089,-4.935,-4.9659,-4.9641,-4.9305,-5.0259,-5.0702,-5.0702,-5.0702,-5.0702,-5.0702,-5.0702,-4.9452,-4.7434,-4.7415,-4.7415,-4.7415,-4.7415,-4.876,-5.0702,-5.0702,-5.0702,-5.0702,-5.0702,-4.9952,-4.9029,-4.9029,-4.9067,-4.9067,-4.8682,-4.8298,-4.7988,-4.7988,-4.7905,-4.7685,-4.7111,-4.6892,-4.6694,-4.6287,-4.5795,-4.5409,-4.5451,-4.4947,-4.4493,-4.4493,-4.4132,-4.3923,-4.4221,-4.403,-4.3828,-4.3791,-4.3931,-4.4053,-4.4114,-4.3962,-4.3868,-4.3899,-4.3721,-4.3572,-4.3557,-4.3336,-4.3213,-4.3213,-4.3014,-4.2882,-4.2882,-4.2882,-4.2882,-4.2882,-4.2882,-4.2882,-4.2882,-4.3124,-4.3474,-4.3912,-4.4065,-4.4269,-3.9822,-4.0317,-4.0802,-4.1815,-4.2085,-4.2123,-4.2123,-4.2149,-4.2266,-4.273,-4.2832,-4.2948,0.0,0.0,-4.4725,-4.4679,-4.5424,-4.6033,-4.6104,-4.6117,-4.6161,0.0,0.0,0.0,0.0,0.0,0.0,-4.7584,0.0,-4.6539,-4.7395,-4.7319,-4.7664,-4.8577,-4.9411,-5.0183,-5.0887,-5.0887,-5.0827,-5.0702,-5.0702,-5.0702,-5.0702,-5.0702,-5.0702,-5.0683,-5.0702,-5.0702,-5.0702,-5.0702,-5.0701,-5.0701,-5.0701,-5.0702,-5.0702,-5.0702,-5.0702,-5.0702,-5.0702,-5.0702,-5.0702,-5.0702,-5.0144,-4.9471,-4.9471,-4.8836,-4.8123,-4.8123,-4.802,-4.7892,-4.7853,-4.761,-4.7448,-4.7709,-4.6682,-4.5669,-4.5745,-4.4864,-4.4061,-4.4061,-4.3767,-4.3582,-4.391,-4.3716,-4.3563,-4.3758,-4.3548,-4.3446,-4.3563,-4.3286,-4.3178,-4.3371,-4.3069,-4.2882,-4.2882,-4.2882,-4.2882,-4.2882,-4.2882,-4.2882,-4.2882,-4.2882,-4.2882,-4.2882,-4.2882,-4.2882,-4.2882,-4.2882,-4.3231,-4.3912,-4.3758,-4.3986,-4.0158,-4.14,-4.264,-4.2919,-4.3426,-4.3876,-4.3876,-4.3981,-4.4194,-4.4489,-4.4551,-4.4691,0.0,0.0,0.0,-4.5609,-4.5928,0.0,-4.6168,-4.621,0.0,-4.6303,0.0,-4.63,-4.63,-4.6406,0.0,0.0,-4.7216,-4.7349,-4.8025,-4.8042,-4.8667,-5.0079,-5.0349,-5.0563,-5.074,-5.074,-5.0721,-5.0702,-5.0702,-5.0702,-5.0702,-5.0702,-5.0702,-5.0702,-5.0702,-5.0702,-5.0702,-5.0702,-5.0702,-5.0702,-5.0702,-5.0702,-5.0702,-5.0702,-5.0702,-5.0702,-5.0702,-5.0702,-5.0702,-5.0702,-5.0548,-5.0356,-5.0356,-5.0123,-4.9848,-4.9848,-4.9762,-4.9472,-4.8631,-4.8332,-4.8064,-4.724,-4.6779,-4.6513,-4.6513,-4.5655,-4.4896,-4.4896,-4.4155,-4.3532,-4.3615,-4.3548,-4.3479,-4.3356,-4.3304,-4.3251,-4.3304,-4.3196,-4.3141,-4.3178,-4.3013,-4.2882,-4.2882,-4.2882,-4.2882,-4.2882,-4.2882,-4.2882,-4.2882,-4.2882,-4.2882,-4.2882,-4.2882,-4.2882,-4.2882,-4.2882,-4.3231,-4.3912,-4.3849,-4.4072,-4.0793,-4.2099,-4.3369,-4.3745,-4.4177,-4.4524,-4.4621,-4.4714,-4.4896,-4.5264,-4.5323,-4.5418,-4.5737,-4.5836,0.0,0.0,0.0,0.0,-4.6191,-4.6229,-4.628,0.0,-4.6245,0.0,-4.6211,-4.6442,-4.661,0.0,-4.7028,-4.7544,-4.8256,-4.8604,-4.9195,-5.0087,-5.0491,-5.0702,-5.0702,-5.0702,-5.0702,-5.0702,-5.0702,-5.0702,-5.0702,-5.0702,-5.0702,-5.0702,0.0,-5.0702,-5.0702,-5.0702,-5.0702,-5.0702,-5.0702,-5.0702,-5.0702,-5.0702,-5.0702,-5.0702,-5.0702,-5.0702,-5.0702,-5.0702,-5.0702,-5.0702,-5.0702,-5.0623,-5.0459,-5.031,-5.0174,-4.9911,-4.9098,-4.8794,-4.8563,-4.8025,-4.7404,-4.6969,-4.7111,-4.629,-4.5408,-4.5057,-4.4168,-4.3497,-4.3497,-4.3497,-4.341,-4.3232,-4.3214,-4.316,-4.3087,-4.3031,-4.2994,-4.2994,-4.2938,-4.2882,-4.2882,-4.2882,-4.2882,-4.2882,-4.2882,-4.2882,-4.2882,-4.2882,-4.2882,-4.2882,-4.2882,-4.2882,-4.2882,-4.305,-4.3406,-4.3912,-4.4065,-4.425,-4.1511,-4.2576,-4.3613,-4.4354,-4.4551,-4.4595,-4.4795,-4.4872,-4.5011,-4.5418,-4.5507,-4.5594,-4.5766,-4.5969,-4.6073,-4.6024,0.0,-4.621,-4.621,-4.6211,-4.6229,-4.628,-4.6176,-4.6098,-4.6084,-4.6649,-4.6717,-4.6007,-4.6699,-4.7476,-4.8241,-4.8985,-4.9452,-4.9567,-5.0298,-5.0702,-5.0702,-5.0702,-5.0702,-5.0702,-5.0702,-5.0702,-5.0702,-5.0702,-5.0702,-5.0702,0.0,0.0,-5.0702,-5.0702,-5.0702,-5.0702,-5.0702,-5.0702,-5.0702,-5.0702,-5.0702,-5.0702,-5.0702,-5.0702,-5.0702,-5.0702,-5.0702,-5.0683,-5.0663,-5.0523,-5.0374,-5.0038,-4.9762,-4.9504,-4.9164,-4.8866,-4.8699,-4.8945,-4.8134,-4.7334,-4.762,-4.676,-4.5663,-4.4874,-4.4048,-4.3497,-4.3497,-4.3497,-4.341,-4.3232,-4.3214,-4.3123,-4.2938,-4.2882,-4.2882,-4.2882,-4.2882,-4.2882,-4.2882,-4.2882,-4.2882,-4.2882,-4.2882,-4.2882,-4.2882,-4.2882,-4.2882,-4.2882,-4.2882,-4.292,-4.2957,-4.3249,-4.359,-4.3974,-4.427,-4.4439,-4.18,-4.3117,-4.4382,-4.4676,-4.4745,-4.4819,-4.5074,-4.5264,0.0,-4.5472,-4.5626,-4.5752,-4.578,-4.5925,-4.6041,-4.6079,-4.615,-4.6211,-4.6276,-4.6273,-4.6257,0.0,-4.6105,-4.6057,-4.5959,0.0,0.0,0.0,0.0,-4.7987,-4.8141,-4.8932,-4.9721,-5.0452,-5.0606,-5.0702,-5.0702,-5.0702,-5.0702,-5.0702,-5.0702,-5.0702,-5.0702,-5.0702,-5.0702,-5.0702,-5.0702,0.0,-5.0702,-5.0702,-5.0702,-5.0702,-5.0702,-5.0702,-5.0702,-5.0702,-5.0702,-5.0702,-5.0702,-5.0702,-5.0702,-5.0702,-5.0702,-5.0663,-5.0358,-5.0183,-5.0038,-4.9749,-4.9041,-4.8318,-4.7975,-4.7862,-4.7726,-4.7517,-4.7776,-4.8104,-4.8162,-4.6967,-4.5663,-4.4874,-4.4048,-4.3497,-4.3497,-4.3497,-4.341,-4.3232,-4.3214,-4.3123,-4.2938,-4.2882,-4.2882,-4.2882,-4.2882,-4.2882,-4.2882,-4.2882,-4.2882,-4.2882,-4.2882,-4.2882,-4.2882,-4.2882,-4.2882,-4.2882,-4.2882,-4.305,-4.3301,-4.3371,-4.3703,-4.4299,-4.4355,-4.4495,-4.1919,-4.3307,-4.4681,-4.477,-4.4896,-4.5074,-4.5304,0.0,0.0,-4.5626,-4.5737,-4.58,-4.58,-4.5902,-4.6026,-4.6098,-4.6163,-4.6211,-4.6287,-4.624,-4.6176,-4.6105,-4.5998,-4.5917,0.0,0.0,0.0,0.0,0.0,-4.8298,-4.8759,-4.9606,-5.026,-5.0683,-5.0702,-5.0702,-5.0702,-5.0702,-5.0702,-5.0702,-5.0702,-5.0702,-5.0702,-5.0702,-5.0702,-5.0702,-5.0702,0.0,-5.0702,-5.0702,-5.0702,-5.0702,-5.0702,-5.0702,-5.0702,-5.0702,-5.0702,-5.0702,-5.0702,-5.0604,-5.0442,-5.0442,-5.0442,-5.0421,-5.0249,-4.9993,-4.9654,-4.8923,-4.8278,-4.7676,-4.6919,-4.6722,-4.6797,-4.704,-4.7719,-4.8306,-4.8306,-4.737,-4.6305,-4.548,-4.4672,-4.3993,-4.3552,-4.3463,-4.3393,-4.3251,-4.3178,-4.3068,-4.2938,-4.2882,-4.2882,-4.2882,-4.2882,-4.2882,-4.2882,-4.2882,-4.2882,-4.2882,-4.2882,-4.2882,-4.2882,-4.2882,-4.2976,-4.3142,-4.2995,-4.3142,-4.3656,-4.3656,-4.3912,-4.4383,-4.4584,-4.4648,-4.2025,-4.3397,-4.4825,-4.49,-4.5099,-4.5304,-4.5507,-4.5558,-4.561,-4.5766,-4.58,-4.58,-4.58,-4.5917,-4.6017,-4.6083,-4.6158,-4.621,-4.6253,-4.6164,-4.6084,0.0,-4.5902,0.0,-4.5757,0.0,0.0,0.0,0.0,0.0,-4.9644,-5.0317,-5.0702,-5.0702,-5.0702,-5.0702,-5.0702,-5.0702,-5.0702,-5.0702,-5.0702,-5.0702,-5.0702,-5.0702,-5.0702,-5.0702,-5.0702,0.0,0.0,-5.0702,-5.0702,-5.0702,-5.0702,-5.0702,-5.0702,-5.0702,-5.0702,-5.0683,-5.0624,-5.0421,-5.0183,-5.0135,-5.0092,-5.0111,-5.0019,-4.9625,-4.9025,-4.8044,-4.74,-4.6771,-4.5864,-4.5645,-4.5883,-4.6893,-4.759,-4.8104,-4.8269,-4.7682,-4.6874,-4.6067,-4.5259,-4.4452,-4.3644,-4.3446,-4.334,-4.3178,-4.3123,-4.3049,-4.2938,-4.2882,-4.2882,-4.2882,-4.2882,-4.2882,-4.2882,-4.2882,-4.2882,-4.2882,-4.2882,-4.2882,-4.2882,-4.2957,-4.3142,-4.3406,-4.3213,-4.3406,-4.4004,-4.4004,-4.4154,-4.4476,-4.4777,-4.477,-4.2281,-4.3545,-4.4896,-4.5323,-4.5454,-4.5543,-4.5723,0.0,-4.5786,-4.58,-4.58,-4.58,-4.58,-4.5924,-4.6021,-4.6093,-4.615,-4.6189,-4.6131,-4.6099,-4.6027,-4.5848,0.0,0.0,-4.5637,0.0,0.0,0.0,0.0,0.0,-5.0567,-5.0644,-5.0702,-5.0702,-5.0702,-5.0702,-5.0702,-5.0702,-5.0702,-5.0702,-5.0702,-5.0702,-5.0702,-5.0702,-5.0702,-5.0702,-5.0702,0.0,0.0,-5.0702,-5.0702,-5.0702,-5.0702,-5.0702,-5.0702,-5.0702,-5.0702,-5.0663,-5.0358,-5.0249,-5.0159,-4.9936,-4.9857,-4.9757,-4.9412,-4.8721,-4.7951,-4.7494,-4.6211,-4.4946,-4.4837,-4.4819,-4.5204,-4.6746,-4.7186,-4.7425,-4.8141,-4.7682,-4.6874,-4.6067,-4.5259,-4.4435,-4.3558,-4.3376,-4.3323,-4.3141,-4.3104,-4.3049,-4.2938,-4.2882,-4.2882,-4.2882,-4.2882,-4.2882,-4.2882,-4.2882,-4.2882,-4.2882,-4.2882,-4.2882,-4.2882,-4.3178,-4.3371,-4.3406,-4.3656,-4.4004,-4.4355,-4.4355,-4.4476,-4.4667,-4.4821,-4.4821,-4.2219,-4.3395,-4.4614,-4.532,-4.5594,-4.5708,-4.5766,-4.58,-4.58,-4.58,-4.58,-4.5819,-4.591,-4.5969,-4.6035,-4.6143,-4.6182,-4.6201,-4.6217,-4.6137,-4.6249,-4.659,-4.6148,0.0,0.0,0.0,0.0,0.0,0.0,0.0,-5.0399,-5.0604,-5.0702,-5.0702,-5.0702,-5.0702,-5.0702,-5.0702,-5.0702,-5.0702,-5.0702,-5.0702,-5.0702,-5.0702,-5.0702,-5.0702,-5.0702,0.0,0.0,-5.0702,-5.0702,-5.0702,-5.0702,-5.0702,-5.0683,-5.0483,-5.0095,-4.9633,-4.9344,-4.8802,-4.8207,-4.8089,-4.7935,-4.7897,-4.8347,-4.7732,-4.6728,-4.6043,-4.5294,-4.4599,-4.4103,-4.4342,-4.4874,-4.5516,-4.6416,-4.7205,-4.7517,-4.7719,-4.7443,-4.6159,-4.5645,-4.5021,-4.3701,-4.3358,-4.3251,-4.3178,-4.3068,-4.2938,-4.29,-4.2882,-4.2882,-4.2882,-4.2882,-4.2882,-4.2882,-4.2882,-4.2882,-4.2882,-4.2882,-4.2882,-4.2882,-4.3213,-4.3406,-4.3406,-4.3721,-4.4046,-4.4383,-4.4383,-4.4503,-4.4712,-4.4821,-4.477,-4.1982,-4.3178,-4.4372,-4.5057,-4.5534,-4.58,-4.58,-4.58,-4.58,-4.58,-4.5819,-4.5877,-4.5988,-4.6027,-4.6085,-4.6181,-4.623,-4.6238,-4.623,-4.6137,-4.626,0.0,0.0,0.0,0.0,0.0,0.0,0.0,0.0,0.0,0.0,-5.0336,-5.0462,-5.0544,-5.0663,-5.0702,-5.0702,-5.0702,-5.0663,-5.0544,-5.0525,-5.0563,-5.0699,-5.0563,-5.0585,-5.0683,0.0,0.0,0.0,-5.0462,-5.0349,-5.0179,-5.0097,-4.9965,-4.9756,-4.9461,-4.8986,-4.8467,-4.8193,-4.757,-4.6899,-4.6829,-4.6483,-4.6267,-4.693,-4.6513,-4.569,-4.5033,-4.4579,-4.4213,-4.3644,-4.392,-4.4415,-4.4654,-4.5755,-4.6819,-4.7076,-4.7737,-4.7829,-4.6214,-4.5902,-4.5388,-4.3703,-4.3322,-4.3251,-4.3178,-4.3068,-4.2938,-4.2938,-4.2938,-4.2882,-4.2882,-4.2882,-4.2882,-4.2882,-4.2882,-4.2882,-4.2882,-4.2882,-4.2882,-4.2882,-4.3213,-4.3406,-4.3406,-4.3849,-4.4154,-4.4383,-4.4484,-4.4602,-4.4712,-4.4821,-4.4789,-4.1601,-4.2931,-4.4254,-4.4539,-4.522,-4.58,-4.58,-4.58,-4.58,-4.58,-4.591,-4.6007,-4.6007,-4.6104,-4.6201,-4.6201,-4.6261,-4.6249,-4.6127,-4.6041,-4.5946,0.0,0.0,0.0,0.0,0.0,0.0,0.0,0.0,0.0,0.0,-4.9943,-4.9917,-5.0206,-5.0544,-5.0702,-5.0702,-5.0702,-5.0525,-5.0206,-5.0149,-5.0302,-5.0688,-5.0283,-5.0323,0.0,0.0,0.0,0.0,-4.9936,-4.9486,-4.8999,-4.872,-4.8256,-4.7701,-4.7433,-4.7315,-4.7264,-4.7024,-4.6928,-4.6869,-4.6605,-4.5955,-4.5273,-4.509,-4.5023,-4.497,-4.4744,-4.4121,-4.3497,-4.3497,-4.3497,-4.3699,-4.4525,-4.5333,-4.614,-4.6948,-4.7737,-4.7829,-4.6214,-4.5902,-4.5315,-4.3506,-4.3305,-4.3323,-4.3141,-4.3104,-4.3104,-4.3104,-4.2994,-4.2882,-4.2882,-4.2882,-4.2882,-4.2882,-4.2882,-4.2882,-4.2882,-4.2882,-4.2882,-4.2882,-4.3213,-4.3406,-4.3406,-4.4046,-4.4402,-4.4383,-4.4732,-4.4821,-4.4712,-4.4821,-4.4821,-4.2208,-4.3085,-4.3887,-4.5109,-4.5606,-4.5819,-4.593,-4.5858,-4.5838,-4.5988,-4.6007,-4.6027,-4.6123,-4.6181,-4.622,-4.6259,-4.628,-4.6276,0.0,0.0,0.0,0.0,0.0,0.0,0.0,0.0,0.0,0.0,0.0,0.0,0.0,-4.9569,-4.9721,-5.0183,-5.013,-5.0062,-5.0062,-5.0062,-5.0038,-4.9917,-4.9784,-4.9765,-4.9879,-5.0016,0.0,0.0,0.0,0.0,0.0,-4.9231,-4.8897,-4.8644,-4.7985,-4.7593,-4.739,-4.7124,-4.6675,-4.6177,-4.5884,-4.5407,-4.4904,-4.4817,-4.4605,-4.4337,-4.4206,-4.4192,-4.414,-4.3952,-4.3699,-4.3497,-4.3497,-4.3497,-4.3552,-4.3809,-4.4911,-4.5975,-4.6232,-4.7352,-4.7829,-4.6214,-4.5902,-4.5388,-4.3703,-4.3411,-4.3394,-4.3323,-4.3178,-4.3104,-4.3104,-4.2994,-4.2882,-4.2882,-4.2882,-4.2882,-4.2882,-4.2882,-4.2882,-4.2882,-4.2882,-4.2882,-4.2882,-4.3213,-4.3406,-4.3406,-4.4046,-4.4383,-4.4383,-4.4751,-4.487,-4.484,-4.4789,-4.477,-4.2206,-4.2946,-4.3634,-4.5007,-4.5606,-4.5896,-4.5988,-4.5951,-4.5949,-4.606,-4.6085,-4.6104,-4.6181,-4.6227,-4.6254,-4.6296,-4.6284,-4.6242,0.0,0.0,0.0,0.0,0.0,0.0,0.0,0.0,0.0,0.0,0.0,0.0,0.0,-4.9289,-4.9439,-4.9922,-4.983,-4.9803,-4.9803,-4.9803,-4.9749,-4.9655,-4.9523,-4.9438,-4.9485,-4.9709,0.0,0.0,0.0,0.0,0.0,-4.8164,-4.7664,-4.7408,-4.6797,-4.641,-4.618,-4.5913,-4.5496,-4.5036,-4.4879,-4.4451,-4.4005,-4.4005,-4.3929,-4.3851,-4.3753,-4.3719,-4.3652,-4.3532,-4.3497,-4.3497,-4.3497,-4.3497,-4.3497,-4.3497,-4.4727,-4.5902,-4.5902,-4.6929,-4.7462,-4.6159,-4.5645,-4.5039,-4.3701,-4.3446,-4.3411,-4.3376,-4.3233,-4.3123,-4.3123,-4.2975,-4.2882,-4.2882,-4.2882,-4.2882,-4.2882,-4.2882,-4.2882,-4.2882,-4.2882,-4.2882,-4.2882,-4.3124,-4.3266,-4.3406,-4.3924,-4.427,-4.4383,-4.4751,-4.4895,-4.4895,-4.4796,-4.4821,0.0,-4.2686,-4.3537,-4.4465,-4.5355,-4.6007,-4.6007,-4.6065,0.0,-4.6111,-4.617,-4.6195,-4.6216,-4.6245,-4.6296,-4.628,-4.6234,0.0,0.0,0.0,0.0,0.0,0.0,0.0,0.0,0.0,0.0,0.0,0.0,0.0,0.0,-4.9079,-4.9079,-4.9459,-4.9646,-4.9749,-4.9749,-4.9749,-4.9627,-4.9365,-4.9365,-4.9365,-4.9384,-4.9384,0.0,0.0,0.0,0.0,0.0,-4.6848,-4.6091,-4.5565,-4.5301,-4.486,-4.4346,-4.4091,-4.4005,-4.4005,-4.4005,-4.4005,-4.4005,-4.4005,-4.3915,-4.3753,-4.3634,-4.3548,-4.3497,-4.3497,-4.3497,-4.3497,-4.3497,-4.3497,-4.3497,-4.3497,-4.4727,-4.5902,-4.5902,-4.6544,-4.6874,-4.6067,-4.5259,-4.4416,-4.3558,-4.3463,-4.3463,-4.3429,-4.3305,-4.3214,-4.3214,-4.3013,-4.2882,-4.2882,-4.2882,-4.2882,-4.2882,-4.2882,-4.2882,-4.2882,-4.2882,-4.292,-4.292,-4.292,-4.3105,-4.3456,-4.3818,-4.4125,-4.443,-4.4751,-4.4895,-4.4895,-4.4895,-4.4895,-4.275,0.0,-4.3672,-4.5258,-4.5852,-4.6027,0.0,-4.6124,-4.6118,-4.6238,-4.6221,-4.6232,-4.626,-4.6245,-4.6224,-4.6228,0.0,0.0,0.0,0.0,0.0,0.0,0.0,0.0,0.0,0.0,0.0,0.0,0.0,0.0,0.0,-4.8943,-4.8943,-4.9046,-4.9094,-4.909,-4.909,-4.909,-4.9075,-4.9027,-4.9027,-4.9027,-4.9027,-4.9289,0.0,0.0,0.0,0.0,-4.681,-4.5932,-4.5518,-4.532,-4.4575,-4.4234,-4.4109,-4.4017,-4.4005,-4.4005,-4.4005,-4.4005,-4.4005,-4.3961,-4.3883,-4.3753,-4.3634,-4.3548,-4.3497,-4.3497,-4.3497,-4.3497,-4.3497,-4.3497,-4.3497,-4.3497,-4.4727,-4.5902,-4.5902,-4.6544,-4.6874,-4.6067,-4.5259,-4.4452,-4.3609,-4.3497,-4.3479,-4.3463,-4.3322,-4.3214,-4.3214,-4.3013,-4.2882,-4.2882,-4.2882,-4.2882,-4.2882,-4.2882,-4.2882,-4.2882,-4.2882,-4.3014,-4.3266,-4.3266,-4.3557,-4.4136,-4.4484,-4.4707,-4.4777,-4.487,-4.4895,-4.4895,-4.4895,-4.4895,-4.3092,-4.3634,-4.4272,-4.5659,-4.6046,-4.6104,-4.6181,-4.6199,-4.6209,-4.6289,-4.6249,-4.621,-4.624,-4.6072,-4.5984,0.0,-4.5873,0.0,0.0,0.0,0.0,0.0,0.0,0.0,0.0,0.0,0.0,0.0,0.0,0.0,0.0,-4.8909,-4.8909,-4.8909,-4.8909,-4.8909,-4.8909,-4.8909,-4.8909,-4.8909,-4.8909,-4.8909,-4.889,-4.8702,-4.8259,0.0,0.0,0.0,-4.5881,-4.5045,-4.4692,-4.4655,-4.4191,-4.4005,-4.4005,-4.4005,-4.4005,-4.4005,-4.4005,-4.4005,-4.3974,-4.3883,-4.3837,-4.3771,-4.36,-4.3513,-4.3497,-4.3497,-4.3497,-4.3497,-4.3497,-4.3497,-4.3497,-4.3497,-4.4727,-4.5902,-4.5902,-4.625,-4.6434,-4.5975,-4.4947,-4.4011,-4.3571,-4.3497,-4.3497,-4.3497,-4.3393,-4.3305,-4.3305,-4.3105,-4.2994,-4.2994,-4.2938,-4.2882,-4.2882,-4.2882,-4.2957,-4.3105,-4.3142,-4.3266,-4.3623,-4.3623,-4.3862,-4.4383,-4.4732,-4.4895,-4.4895,-4.4895,-4.4895,-4.4895,-4.4895,-4.4895,-4.3183,-4.4136,-4.5084,-4.5827,-4.6113,-4.6185,-4.6202,-4.623,-4.6267,-4.6267,-4.6227,-4.617,-4.6109,-4.5866,0.0,0.0,0.0,0.0,0.0,0.0,0.0,0.0,0.0,0.0,0.0,0.0,0.0,0.0,0.0,0.0,0.0,-4.8909,-4.8909,-4.8909,-4.8909,-4.8834,-4.8723,-4.8834,-4.8909,-4.8909,-4.8779,-4.8723,-4.8686,-4.7887,-4.746,0.0,0.0,0.0,-4.5026,-4.4302,-4.4005,-4.4005,-4.4005,-4.4005,-4.4005,-4.4005,-4.4005,-4.4005,-4.4005,-4.4005,-4.3992,-4.3851,-4.3786,-4.3738,-4.3566,-4.3532,-4.3497,-4.3497,-4.3497,-4.3497,-4.3497,-4.3497,-4.3516,-4.3644,-4.4819,-4.5902,-4.5902,-4.5902,-4.5865,-4.5736,-4.4507,-4.3497,-4.3497,-4.3497,-4.3497,-4.3497,-4.3446,-4.3394,-4.3376,-4.3215,-4.3104,-4.3049,-4.2956,-4.2882,-4.2882,-4.2957,-4.3105,-4.3474,-4.344,-4.3557,-4.3974,-4.4035,-4.4184,-4.4457,-4.4751,-4.4895,-4.4895,-4.4895,-4.4895,-4.4895,-4.4895,-4.4895,-4.3357,-4.4628,-4.5921,-4.6123,-4.6146,-4.6133,-4.6185,-4.6154,-4.6131,-4.6131,-4.6118,-4.6025,-4.5745,-4.5834,-4.5862,0.0,0.0,0.0,0.0,0.0,0.0,0.0,0.0,0.0,0.0,0.0,0.0,0.0,0.0,0.0,0.0,0.0,-4.8909,-4.8909,-4.8909,-4.8574,-4.7887,-4.8556,-4.8909,-4.889,-4.8203,-4.7887,-4.7868,-4.7051,-4.6308,0.0,0.0,-4.4878,-4.4191,-4.4061,-4.4005,-4.4005,-4.4005,-4.4005,-4.4005,-4.4005,-4.4005,-4.4005,-4.4005,-4.3942,-4.3897,-4.3897,-4.3767,-4.3615,-4.3582,-4.3566,-4.3497,-4.3497,-4.3497,-4.3497,-4.3497,-4.3497,-4.3663,-4.436,-4.5223,-4.5902,-4.5902,-4.5902,-4.57,-4.5021,-4.4121,-4.3497,-4.3497,-4.3497,-4.3497,-4.3497,-4.3446,-4.334,-4.3251,-4.316,-4.3067,-4.2938,-4.292,-4.2882,-4.2882,-4.3142,-4.3474,-4.3818,-4.3557,-4.3689,-4.4299,-4.4584,-4.4777,-4.4827,-4.487,-4.4895,-4.4895,-4.4895,-4.4895,-4.4895,-4.4895,-4.4895,-4.3442,-4.4748,-4.6113,-4.619,-4.6158,-4.6103,-4.6138,-4.604,-4.5964,-4.608,-4.598,0.0,0.0,0.0,-4.5244,-4.4758,0.0,0.0,0.0,0.0,0.0,0.0,0.0,0.0,0.0,0.0,0.0,0.0,0.0,0.0,0.0,0.0,-4.7608,-4.7608,-4.7315,-4.7129,-4.7051,-4.7423,-4.7608,-4.7608,-4.7237,-4.7051,-4.7014,-4.6215,-4.5639,-4.5268,0.0,-4.4376,-4.4005,-4.4005,-4.4005,-4.4005,-4.4005,-4.4005,-4.4005,-4.4005,-4.4005,-4.4005,-4.3961,-4.3929,-4.3865,-4.3767,-4.3701,-4.3582,-4.3548,-4.3513,-4.3497,-4.3497,-4.3497,-4.3497,-4.3497,-4.3497,-4.3699,-4.4525,-4.4984,-4.5369,-4.581,-4.5571,-4.5149,-4.4782,-4.4048,-4.3497,-4.3497,-4.3497,-4.3497,-4.3497,-4.3463,-4.3411,-4.334,-4.3233,-4.3123,-4.2994,-4.2938,-4.2882,-4.2882,-4.305,-4.3422,-4.4125,-4.4184,-4.4346,-4.4655,-4.4802,-4.4895,-4.4895,-4.4895,-4.4895,-4.4895,-4.4895,-4.4895,-4.4895,-4.4895,-4.4895,-4.3481,-4.478,-4.6105,-4.6143,-4.6119,-4.6056,-4.6027,-4.5885,-4.5799,-4.5908,0.0,0.0,0.0,-4.5071,0.0,0.0,0.0,0.0,0.0,0.0,0.0,0.0,0.0,0.0,0.0,0.0,0.0,0.0,0.0,0.0,0.0,0.0,-4.6327,-4.6327,-4.6052,-4.5997,-4.6215,-4.6215,-4.6308,-4.6494,-4.6308,-4.6215,-4.6197,-4.5361,-4.4989,-4.4952,-4.4283,-4.4005,-4.4005,-4.4005,-4.4005,-4.4005,-4.4005,-4.4005,-4.4005,-4.4005,-4.4005,-4.4005,-4.3961,-4.3897,-4.3851,-4.3701,-4.3615,-4.3548,-4.3532,-4.3497,-4.3497,-4.3497,-4.3497,-4.3497,-4.3497,-4.3626,-4.3938,-4.4562,-4.4856,-4.5112,-4.5535,-4.5131,-4.4654,-4.447,-4.392,-4.3497,-4.3497,-4.3497,-4.3497,-4.3497,-4.3497,-4.3446,-4.3376,-4.3269,-4.3142,-4.3049,-4.2938,-4.2957,-4.3105,-4.3142,-4.3523,-4.4457,-4.4751,-4.4895,-4.4895,-4.4895,-4.4895,-4.4895,-4.4895,-4.4895,-4.4895,-4.4895,-4.4895,-4.4895,-4.4895,-4.4895,-4.3525,-4.4777,-4.6096,-4.6035,-4.6021,-4.5955,-4.577,-4.5676,-4.5582,-4.5457,0.0,0.0,0.0,-4.4819,0.0,0.0,0.0,0.0,0.0,0.0,0.0,0.0,0.0,0.0,0.0,0.0,0.0,0.0,0.0,0.0,0.0,0.0,0.0,-4.576,-4.6201,-4.6104,-4.5379,-4.5379,-4.5751,-4.6494,-4.5732,-4.5379,-4.5361,-4.4488,-4.4098,-4.4098,-4.4023,-4.4005,-4.4005,-4.4005,-4.4005,-4.4005,-4.4005,-4.4005,-4.4005,-4.4005,-4.4005,-4.4005,-4.4005,-4.3897,-4.3804,-4.3804,-4.3652,-4.3532,-4.3497,-4.3497,-4.3497,-4.3497,-4.3497,-4.3497,-4.3497,-4.4048,-4.4635,-4.469,-4.5278,-4.5626,-4.4947,-4.4745,-4.4488,-4.3718,-4.3534,-4.3497,-4.3497,-4.3497,-4.3497,-4.3497,-4.3483,-4.3449,-4.3251,-4.316,-4.3049,-4.2938,-4.29,-4.3142,-4.3786,-4.3818,-4.4125,-4.4802,-4.4895,-4.4895,-4.4895,-4.4895,-4.4895,-4.4895,-4.4895,-4.4895,-4.4895,-4.4895,-4.4895,-4.4895,-4.4895,-4.4895,-4.3516,-4.465,-4.5886,-4.5988,-4.5873,-4.5738,-4.5654,-4.5547,-4.5456,-4.5419,-4.5301,0.0,0.0,0.0,0.0,0.0,0.0,0.0,0.0,0.0,0.0,0.0,0.0,0.0,0.0,0.0,0.0,0.0,0.0,0.0,0.0,0.0,0.0,-4.4642,-4.4841,-4.4804,-4.4488,-4.4488,-4.4636,-4.4934,-4.4636,-4.4488,-4.4488,-4.4153,-4.4005,-4.4005,-4.4005,-4.4005,-4.4005,-4.4005,-4.4005,-4.4005,-4.4005,-4.4005,-4.4005,-4.4005,-4.4005,-4.3974,-4.3897,-4.3851,-4.3771,-4.3652,-4.3566,-4.3497,-4.3497,-4.3497,-4.3497,-4.3497,-4.3497,-4.3497,-4.3497,-4.3718,-4.4085,-4.458,-4.4544,-4.4452,-4.4672,-4.4305,-4.3864,-4.3552,-4.3497,-4.3497,-4.3497,-4.3497,-4.3497,-4.3497,-4.3465,-4.3395,-4.3269,-4.3178,-4.3049,-4.292,-4.2882,-4.3014,-4.3249,-4.3456,-4.3786,-4.426,-4.4681,-4.4895,-4.4895,-4.4895,-4.4895,-4.4895,-4.4895,-4.4895,-4.4895,-4.4895,-4.4895,-4.4895,-4.4895,-4.4895,-4.3344,-4.4304,-4.5339,-4.5722,-4.5671,-4.5528,-4.5475,-4.5438,-4.5381,-4.5262,-4.5173,-4.4995,-4.4676,0.0,0.0,0.0,0.0,0.0,0.0,0.0,0.0,0.0,0.0,0.0,0.0,0.0,0.0,0.0,0.0,0.0,0.0,0.0,0.0,0.0,-4.4005,-4.4005,-4.4005,-4.4005,-4.4005,-4.4005,-4.4005,-4.4005,-4.4005,-4.4005,-4.4005,-4.4005,-4.4005,-4.4005,-4.4005,-4.4005,-4.4005,-4.4005,-4.4005,-4.4005,-4.4005,-4.3974,-4.3974,-4.3942,-4.3818,-4.3771,-4.3719,-4.3566,-4.3532,-4.3497,-4.3497,-4.3497,-4.3497,-4.3497,-4.3497,-4.3497,-4.3497,-4.3681,-4.3956,-4.425,-4.4085,-4.3956,-4.4268,-4.3883,-4.3497,-4.3497,-4.3497,-4.3497,-4.3497,-4.3497,-4.3497,-4.3497,-4.3411,-4.3305,-4.3251,-4.3141,-4.2994,-4.29,-4.2882,-4.2957,-4.305,-4.3284,-4.359,-4.4035,-4.4503,-4.4802,-4.4895,-4.4895,-4.4895,-4.4895,-4.4895,-4.4895,-4.4895,-4.4895,-4.4895,-4.4895,-4.4895,-4.4895,-4.3001,-4.3732,-4.4479,-4.5208,-4.54,-4.5361,-4.5235,-4.53,-4.5302,-4.4967,-4.4895,-4.4707,-4.4106,0.0,0.0,0.0,0.0,0.0,0.0,0.0,0.0,0.0,0.0,0.0,0.0,0.0,0.0,0.0,0.0,0.0,0.0,0.0,0.0,0.0,-4.4005,-4.4005,-4.4005,-4.4005,-4.4005,-4.4005,-4.4005,-4.4005,-4.4005,-4.4005,-4.4005,-4.4005,-4.4005,-4.4005,-4.4005,-4.4005,-4.4005,-4.4005,-4.4005,-4.4005,-4.4005,-4.3929,-4.3897,-4.3883,-4.3837,-4.3719,-4.3582,-4.3582,-4.3548,-4.3497,-4.3497,-4.3497,-4.3497,-4.3497,-4.3497,-4.3497,-4.3497,-4.4085,-4.4488,-4.3681,-4.4103,-4.447,-4.3663,-4.3497,-4.3497,-4.3497,-4.3497,-4.3497,-4.3497,-4.3497,-4.3497,-4.3497,-4.3339,-4.3214,-4.3214,-4.3013,-4.2882,-4.2882,-4.2882,-4.3014,-4.3371,-4.3406,-4.367,-4.4355,-4.4383,-4.4557,-4.4895,-4.4895,-4.4895,-4.4895,-4.4895,-4.4895,-4.4895,-4.4895,-4.4895,-4.4895,-4.4895,-4.4895,-4.3284,-4.4182,0.0,-4.5453,0.0,0.0,0.0,-4.5068,-4.5194,0.0,-4.4707,-4.4484,-4.4242,0.0,0.0,0.0,0.0,0.0,0.0,0.0,0.0,0.0,0.0,0.0,0.0,0.0,0.0,0.0,0.0,0.0,0.0,0.0,0.0,0.0,-4.4005,-4.4005,-4.4005,-4.4005,-4.4005,-4.4005,-4.4005,-4.4005,-4.4005,-4.4005,-4.4005,-4.4005,-4.4005,-4.4005,-4.4005,-4.4005,-4.4005,-4.4005,-4.4005,-4.3974,-4.3929,-4.3942,-4.3897,-4.3837,-4.3804,-4.3719,-4.3582,-4.3548,-4.3532,-4.3497,-4.3497,-4.3497,-4.3497,-4.3497,-4.3497,-4.3497,-4.3497,-4.3663,-4.3791,-4.3552,-4.3681,-4.3791,-4.3534,-4.3497,-4.3497,-4.3497,-4.3497,-4.3497,-4.3497,-4.3497,-4.3497,-4.3497,-4.3411,-4.3305,-4.316,-4.3086,-4.2994,-4.292,-4.2882,-4.2957,-4.305,-4.305,-4.3231,-4.367,-4.3912,-4.4299,-4.487,-4.4895,-4.4895,-4.4895,-4.4895,-4.4895,-4.4895,-4.4895,-4.4895,-4.4895,-4.4895,-4.4895,-4.2852,-4.3636,0.0,-4.515,-4.5218,-4.4995,-4.465,0.0,0.0,0.0,-4.4327,-4.4106,-4.3862,0.0,0.0,0.0,0.0,0.0,0.0,0.0,0.0,0.0,0.0,0.0,0.0,0.0,0.0,0.0,0.0,0.0,0.0,0.0,0.0,0.0,-4.4005,-4.4005,-4.4005,-4.4005,-4.4005,-4.4005,-4.4005,-4.4005,-4.4005,-4.4005,-4.4005,-4.4005,-4.4005,-4.4005,-4.4005,-4.4005,-4.4005,-4.4005,-4.4005,-4.3974,-4.3961,-4.3961,-4.3897,-4.3804,-4.3753,-4.3634,-4.3548,-4.3513,-4.3497,-4.3497,-4.3497,-4.3497,-4.3497,-4.3497,-4.3497,-4.3497,-4.3497,-4.3497,-4.3497,-4.3497,-4.3497,-4.3497,-4.3497,-4.3497,-4.3497,-4.3497,-4.3497,-4.3497,-4.3497,-4.3497,-4.3497,-4.3497,-4.3393,-4.3269,-4.3104,-4.3049,-4.2994,-4.29,-4.2882,-4.2882,-4.2882,-4.2882,-4.305,-4.3371,-4.359,-4.3986,-4.4681,-4.4827,-4.4895,-4.4895,-4.4895,-4.4895,-4.4895,-4.4895,-4.4895,-4.4895,-4.4895,-4.4895,-4.2048,-4.2588,-4.2909,-4.4497,-4.4827,0.0,-4.4383,-4.4065,-4.3818,-4.3881,0.0,-4.3689,0.0,0.0,0.0,0.0,0.0,0.0,0.0,0.0,0.0,0.0,0.0,0.0,0.0,0.0,0.0,0.0,0.0,0.0,0.0,0.0,0.0,0.0,-4.4005,-4.4005,-4.4005,-4.4005,-4.4005,0.0,-4.4005,-4.4005,-4.4005,-4.4005,-4.4005,-4.4005,-4.4005,-4.4005,-4.4005,-4.4005,-4.4005,-4.4005,-4.4005,-4.4005,-4.3974,-4.3929,-4.3851,-4.3771,-4.3634,-4.3513,-4.3444,-4.3497,-4.3497,-4.3444,-4.3497,-4.3497,-4.3497,-4.3497,-4.3497,-4.3497,-4.3497,-4.3497,-4.3497,-4.3497,-4.3497,-4.3497,-4.3497,-4.3497,-4.3497,-4.3497,-4.3497,-4.3497,-4.3497,-4.3497,-4.3497,-4.3497,-4.3304,-4.3178,-4.3104,-4.2994,-4.292,-4.2882,-4.2882,-4.2882,-4.2882,-4.2882,-4.3014,-4.3336,-4.3371,-4.3689,-4.4327,-4.4681,-4.487,-4.4895,-4.4895,-4.4895,-4.4895,-4.4895,-4.4895,-4.4895,-4.4895,-4.4895,-4.2687,-4.3274,0.0,-4.4549,-4.4233,-4.3703,-4.3623,-4.3371,-4.3266,-4.3786,-4.3642,0.0,0.0,0.0,0.0,0.0,0.0,0.0,0.0,0.0,0.0,0.0,0.0,0.0,0.0,0.0,0.0,0.0,0.0,0.0,0.0,0.0,0.0,-4.3697,-4.3892,-4.4005,-4.4005,-4.4005,-4.4005,0.0,-4.4005,-4.4005,-4.4005,-4.4005,-4.4005,-4.4005,-4.4005,-4.4005,-4.4005,-4.4005,-4.4005,-4.4005,-4.4005,-4.3929,-4.3851,-4.3883,-4.3767,-4.3566,-4.3582,-4.3375,-4.3069,-4.341,-4.3304,-4.3087,-4.341,-4.3497,-4.3497,-4.3497,-4.3497,-4.3497,-4.3497,-4.3497,-4.3497,-4.3497,-4.3497,-4.3497,-4.3497,-4.3497,-4.3497,-4.3497,-4.3497,-4.3497,-4.3497,-4.3497,-4.3497,-4.3411,-4.3286,-4.3178,-4.3104,-4.3049,-4.3012,-4.292,-4.2882,-4.2882,-4.2882,-4.2882,-4.292,-4.3014,-4.3231,-4.359,-4.4004,-4.4327,-4.4636,-4.4895,-4.4895,-4.4895,-4.4895,-4.4895,-4.4895,-4.4895,-4.4895,-4.4895,-4.2428,-4.3022,0.0,-4.4322,0.0,-4.3406,-4.3406,-4.3142,-4.2976,-4.3336,0.0,0.0,0.0,0.0,0.0,0.0,0.0,0.0,0.0,0.0,0.0,0.0,0.0,0.0,0.0,0.0,0.0,0.0,0.0,0.0,0.0,-4.4215,-4.4186,-4.4186,-4.4082,-4.4005,-4.4005,-4.4005,-4.4005,-4.4005,-4.386,-4.3795,-4.3828,-4.3923,-4.3923,-4.3828,-4.3923,-4.3942,-4.3795,-4.3795,-4.3795,-4.3795,-4.3664,-4.3582,-4.3516,-4.3566,-4.3356,-4.3124,-4.316,-4.3069,-4.292,-4.3142,-4.3069,-4.2975,-4.3375,-4.3375,-4.3268,-4.3463,-4.3497,-4.3463,-4.3268,-4.3339,-4.3444,-4.3268,-4.3375,-4.3497,-4.3497,-4.3497,-4.3497,-4.3497,-4.3497,-4.3497,-4.3497,-4.3497,-4.3497,-4.3446,-4.3376,-4.3269,-4.316,-4.3141,-4.3049,-4.292,-4.2882,-4.2882,-4.2882,-4.2882,-4.2882,-4.2882,-4.305,-4.3301,-4.3656,-4.3986,-4.4402,-4.4895,-4.4895,-4.4895,-4.4895,-4.4895,-4.4895,-4.4895,-4.4895,-4.4895,-4.1857,-4.2446,-4.2725,-4.3924,-4.3767,0.0,-4.3301,-4.3124,-4.2882,0.0,0.0,0.0,0.0,0.0,0.0,0.0,0.0,0.0,0.0,0.0,0.0,0.0,0.0,0.0,0.0,0.0,0.0,0.0,0.0,0.0,-4.4956,-4.4638,-4.4435,-4.4435,-4.4048,-4.386,-4.386,-4.386,-4.386,-4.386,-4.3631,-4.3529,-4.3529,-4.3763,-4.3763,-4.3612,-4.3795,-4.373,-4.3529,-4.3529,-4.3529,-4.3529,-4.3304,-4.3214,-4.316,-4.3123,-4.292,-4.2655,-4.2616,-4.2616,-4.2673,-4.275,-4.2711,-4.275,-4.3124,-4.3014,-4.2844,-4.3178,-4.3286,-4.3214,-4.2882,-4.3032,-4.3214,-4.2957,-4.3142,-4.341,-4.3497,-4.3497,-4.3497,-4.3497,-4.3497,-4.3497,-4.3497,-4.3497,-4.3497,-4.3497,-4.3411,-4.334,-4.3196,-4.316,-4.3086,-4.2938,-4.2938,-4.2938,-4.2882,-4.2882,-4.2882,-4.2882,-4.2882,-4.305,-4.3406,-4.3656,-4.4095,-4.4726,-4.4846,-4.487,-4.4802,-4.487,-4.4895,-4.4895,-4.4895,-4.4895,-4.1453,0.0,-4.2809,0.0,-4.3249,-4.2957,0.0,0.0,-4.2882,0.0,0.0,0.0,0.0,0.0,0.0,0.0,0.0,0.0,0.0,0.0,0.0,0.0,0.0,0.0,0.0,0.0,0.0,0.0,0.0,0.0,-4.2749,-4.2907,-4.2971,-4.2971,-4.3196,-4.3304,-4.3304,-4.3304,-4.3304,-4.3304,-4.3268,-4.3232,-4.3232,-4.3304,-4.3391,-4.3597,-4.3391,-4.3268,-4.3232,-4.3232,-4.3232,-4.3232,-4.3196,-4.3123,-4.2995,-4.2826,-4.2655,-4.248,-4.232,-4.2032,-4.1735,-4.2157,-4.2032,-4.1778,-4.2239,-4.2338,-4.2279,-4.236,-4.236,-4.236,-4.2338,-4.232,-4.244,-4.2806,-4.292,-4.3087,-4.341,-4.3497,-4.3497,-4.3497,-4.3497,-4.3497,-4.3497,-4.3446,-4.3411,-4.3411,-4.3305,-4.3214,-4.3214,-4.3214,-4.3142,-4.3086,-4.3049,-4.3049,-4.29,-4.2882,-4.2882,-4.2882,-4.2882,-4.305,-4.3406,-4.3422,-4.3656,-4.4035,-4.4584,-4.4751,-4.4457,-4.4777,-4.4895,-4.4895,-4.4895,-4.4895,-4.1518,-4.2224,-4.2804,0.0,-4.3142,-4.2882,-4.2882,0.0,0.0,0.0,0.0,0.0,0.0,0.0,0.0,0.0,0.0,0.0,0.0,0.0,0.0,0.0,0.0,0.0,0.0,0.0,0.0,0.0,0.0,-4.3964,-4.3607,-4.3432,-4.3379,-4.3379,-4.3268,-4.3214,-4.3214,-4.3214,-4.3123,-4.292,-4.292,-4.292,-4.2902,-4.2768,-4.2844,-4.3105,-4.316,-4.3087,-4.292,-4.292,-4.292,-4.292,-4.2729,-4.2573,-4.2356,-4.2274,-4.205,-4.1778,-4.1666,-4.1578,-4.1516,-4.1735,-4.1648,-4.1604,-4.2074,-4.2032,-4.1864,-4.2115,-4.2198,-4.2115,-4.1864,-4.2126,-4.2429,-4.248,-4.2864,-4.3304,-4.3444,-4.3497,-4.3497,-4.3497,-4.3497,-4.3497,-4.3497,-4.3446,-4.3394,-4.3394,-4.3305,-4.3178,-4.316,-4.316,-4.3105,-4.2994,-4.2994,-4.2938,-4.29,-4.2882,-4.2882,-4.2882,-4.2882,-4.2957,-4.3105,-4.3301,-4.3371,-4.3336,-4.4184,-4.4557,-4.4383,-4.4751,-4.4895,-4.4895,-4.4895,-4.4895,-4.1361,0.0,-4.2322,-4.2956,-4.2921,-4.274,0.0,0.0,0.0,0.0,0.0,0.0,0.0,0.0,0.0,0.0,0.0,0.0,0.0,0.0,0.0,0.0,0.0,0.0,0.0,0.0,0.0,0.0,0.0,-4.4036,-4.4036,-4.3696,-4.3494,-4.3494,-4.317,-4.2975,-4.2975,-4.2975,-4.2862,-4.2595,-4.2595,-4.2595,-4.2595,-4.2391,-4.2391,-4.2595,-4.2844,-4.2806,-4.2595,-4.2595,-4.2595,-4.2555,-4.2391,-4.2187,-4.2002,-4.1934,-4.1657,-4.13,-4.1209,-4.1283,-4.1373,-4.1373,-4.1373,-4.1401,-4.1735,-4.1622,-4.1401,-4.1796,-4.1881,-4.1796,-4.1445,-4.1817,-4.2315,-4.2221,-4.277,-4.3375,-4.3497,-4.3497,-4.3497,-4.3497,-4.3497,-4.3463,-4.3463,-4.3393,-4.334,-4.334,-4.3251,-4.3178,-4.3123,-4.3141,-4.3086,-4.2938,-4.2938,-4.2938,-4.2882,-4.2882,-4.2882,-4.2882,-4.2882,-4.2882,-4.2882,-4.3142,-4.3142,-4.2882,-4.3703,-4.4184,-4.427,-4.461,-4.4802,-4.4895,-4.4895,-4.4895,0.0,-4.0765,0.0,-4.2032,-4.2237,-4.2335,0.0,0.0,0.0,0.0,0.0,0.0,0.0,0.0,0.0,0.0,0.0,0.0,0.0,0.0,0.0,0.0,0.0,0.0,0.0,0.0,0.0,0.0,0.0,-4.2412,-4.2412,-4.2417,-4.2382,-4.2382,-4.2346,-4.2328,-4.2328,-4.2328,-4.2328,-4.2328,-4.2328,-4.2328,-4.2328,-4.2328,-4.2328,-4.2328,-4.2328,-4.2328,-4.2328,-4.2328,-4.2328,-4.2328,-4.2287,-4.2287,-4.2246,-4.2002,-4.1762,-4.1542,-4.13,-4.1088,-4.0918,-4.0918,-4.0918,-4.0918,-4.0965,-4.0965,-4.0918,-4.0965,-4.0965,-4.0965,-4.0918,-4.1237,-4.1692,-4.2115,-4.2577,-4.305,-4.341,-4.3497,-4.3497,-4.3497,-4.3446,-4.3394,-4.3394,-4.3305,-4.3214,-4.3214,-4.3196,-4.3214,-4.3214,-4.3196,-4.3178,-4.3104,-4.3104,-4.3049,-4.292,-4.2882,-4.2882,-4.2882,-4.2882,-4.2882,-4.2882,-4.292,-4.292,-4.2882,-4.3266,-4.3623,-4.3943,-4.427,-4.4584,-4.4895,-4.4895,-4.4895,0.0,0.0,0.0,-4.1232,-4.1661,-4.1923,-4.2104,0.0,0.0,0.0,0.0,0.0,0.0,0.0,0.0,0.0,0.0,0.0,0.0,0.0,0.0,0.0,0.0,0.0,0.0,0.0,0.0,0.0,0.0,0.0,-4.2287,-4.2287,-4.2287,-4.2287,-4.2287,-4.2287,-4.2287,-4.2287,-4.2287,-4.2287,-4.2287,-4.2287,-4.2287,-4.2287,-4.2287,-4.2287,-4.2287,-4.2287,-4.2287,-4.2287,-4.2287,-4.2287,-4.2287,-4.2187,-4.2019,-4.1805,-4.1542,-4.1318,-4.1088,-4.0965,-4.0888,-4.0888,-4.0888,-4.0888,-4.0888,-4.0888,-4.0888,-4.0888,-4.0888,-4.0965,-4.1209,-4.1473,-4.1937,-4.281,-4.3178,-4.3339,-4.3463,-4.3497,-4.3497,-4.3497,-4.3446,-4.3394,-4.3394,-4.3233,-4.3123,-4.3123,-4.3068,-4.3013,-4.3013,-4.3013,-4.3013,-4.2975,-4.2994,-4.2938,-4.2882,-4.2882,-4.2882,-4.2882,-4.2882,-4.2882,-4.2882,-4.2882,-4.2882,-4.2882,-4.3014,-4.3336,-4.3912,-4.4242,-4.4584,-4.4895,-4.4895,-4.4895,-4.0209,-4.0136,0.0,0.0,0.0,-4.1178,-4.1596,0.0,0.0,0.0,0.0,0.0,0.0,0.0,0.0,0.0,0.0,0.0,0.0,0.0,0.0,0.0,0.0,0.0,0.0,0.0,0.0,0.0,0.0,0.0,-4.2287,-4.2287,-4.2287,-4.2287,-4.2287,-4.2287,-4.2287,-4.2287,-4.2287,-4.2287,-4.2287,-4.2287,-4.2287,-4.2287,-4.2287,-4.2287,-4.2287,-4.2287,-4.2287,-4.2287,-4.2287,-4.2287,-4.2287,-4.2187,-4.2019,-4.1762,-4.1542,-4.13,-4.1088,-4.0965,-4.0888,-4.0888,-4.0888,-4.0888,-4.0888,-4.0888,-4.0888,-4.0888,-4.0888,-4.0965,-4.1237,-4.1516,-4.1979,-4.3051,-4.3304,-4.3339,-4.3479,-4.3497,-4.3497,-4.3497,-4.3446,-4.3394,-4.3394,-4.3233,-4.3123,-4.3123,-4.3031,-4.2956,-4.2956,-4.2938,-4.2882,-4.2882,-4.2882,-4.2882,-4.2882,-4.2882,-4.2882,-4.2882,-4.2882,-4.2882,-4.2882,-4.2882,-4.2882,-4.2882,-4.2882,-4.3178,-4.3721,-4.4065,-4.4402,-4.4732,-4.4846,-4.5066,0.0,0.0,0.0,0.0,0.0,0.0,-4.1361,0.0,0.0,0.0,0.0,0.0,0.0,0.0,0.0,0.0,0.0,0.0,0.0,0.0,0.0,0.0,0.0,0.0,0.0,0.0,0.0,0.0,0.0,-4.2287,-4.2287,-4.2287,-4.2287,-4.2287,-4.2287,-4.2287,-4.2287,-4.2287,-4.2287,-4.2287,-4.2287,-4.2287,-4.2287,-4.2287,-4.2287,-4.2287,-4.2287,-4.2287,-4.2287,-4.2287,-4.2287,-4.2287,-4.2287,-4.2287,-4.2287,-4.2019,-4.1762,-4.156,-4.13,-4.1088,-4.0888,-4.0888,-4.0888,-4.0888,-4.0888,-4.0888,-4.0888,-4.0888,-4.0888,-4.0871,-4.0918,-4.1209,-4.1735,-4.2673,-4.2882,-4.2995,-4.341,-4.3497,-4.3497,-4.3497,-4.3446,-4.3394,-4.3394,-4.3305,-4.3214,-4.3214,-4.316,-4.3104,-4.3104,-4.2994,-4.2882,-4.2882,-4.2882,-4.2882,-4.2882,-4.2882,-4.2882,-4.2882,-4.2882,-4.2882,-4.2882,-4.2882,-4.2882,-4.2882,-4.2882,-4.305,-4.3406,-4.3721,-4.4065,-4.4383,-4.4726,-4.5363,-3.9526,0.0,0.0,0.0,0.0,0.0,0.0,0.0,0.0,0.0,0.0,0.0,0.0,0.0,0.0,0.0,0.0,0.0,0.0,0.0,0.0,0.0,0.0,0.0,0.0,0.0,0.0,0.0,-4.2287,-4.2287,-4.2287,-4.2287,-4.2287,-4.2287,-4.2287,-4.2287,-4.2287,-4.2287,-4.2287,-4.2287,-4.2287,-4.2287,-4.2287,-4.2287,-4.2287,-4.2287,-4.2287,-4.2287,-4.2287,-4.2287,-4.2287,-4.2287,-4.2287,-4.2287,-4.2287,-4.2019,-4.1762,-4.156,-4.13,-4.1088,-4.0888,-4.0888,-4.0888,-4.0888,-4.0888,-4.0888,-4.0888,-4.0888,-4.0888,-4.0965,-4.1237,-4.1648,-4.2157,-4.2768,-4.2882,-4.2995,-4.341,-4.3497,-4.3497,-4.3497,-4.3446,-4.3394,-4.3394,-4.3305,-4.3214,-4.3214,-4.3178,-4.3142,-4.3104,-4.3067,-4.3012,-4.292,-4.2882,-4.2882,-4.2882,-4.2882,-4.2882,-4.2882,-4.2882,-4.2882,-4.2882,-4.2882,-4.2882,-4.2882,-4.2882,-4.2957,-4.305,-4.3371,-4.3721,-4.4035,-4.4741,-4.5518,-3.9154,-3.8865,-3.8554,0.0,0.0,0.0,-3.9315,-3.9731,0.0,0.0,0.0,0.0,0.0,0.0,0.0,0.0,0.0,0.0,0.0,0.0,0.0,0.0,0.0,0.0,0.0,0.0,0.0,-4.2287,-4.2287,-4.2287,-4.2287,-4.2287,-4.2287,-4.2287,-4.2287,-4.2287,-4.2287,-4.2287,-4.2287,-4.2287,-4.2287,-4.2287,-4.2287,-4.2287,-4.2287,-4.2287,-4.2287,-4.2287,-4.2287,-4.2287,-4.2287,-4.2287,-4.2287,-4.2287,-4.2287,-4.2019,-4.1849,-4.1675,-4.1453,-4.1244,-4.1093,-4.0943,-4.0913,-4.0888,-4.0888,-4.0888,-4.0888,-4.0888,-4.0888,-4.0965,-4.1209,-4.1445,-4.1753,-4.2198,-4.2458,-4.2711,-4.3142,-4.3375,-4.3497,-4.3497,-4.3463,-4.3446,-4.3446,-4.3393,-4.3322,-4.3322,-4.3286,-4.3269,-4.316,-4.305,-4.3013,-4.2994,-4.2938,-4.292,-4.2884,-4.2902,-4.2882,-4.2882,-4.2882,-4.2882,-4.2882,-4.2882,-4.2882,-4.2882,-4.2882,-4.2882,-4.2882,-4.3249,-4.3723,-4.44,-4.4883,-4.5755,-3.8658,-3.8585,-3.851,0.0,0.0,0.0,-3.9097,-3.926,-3.9478,0.0,0.0,0.0,0.0,0.0,0.0,0.0,0.0,0.0,0.0,0.0,0.0,0.0,0.0,0.0,0.0,-4.2216,-4.2162,-4.2162,-4.2162,-4.2198,-4.2287,-4.2287,-4.2287,-4.2287,-4.2287,-4.2287,-4.2287,-4.2287,-4.2287,-4.2287,-4.2287,-4.2287,-4.2287,-4.2287,-4.2287,-4.2287,-4.2287,-4.2287,-4.2287,-4.2287,-4.2287,-4.2287,-4.2287,-4.2287,-4.2287,-4.2019,-4.1934,-4.1866,-4.171,-4.1541,-4.1348,-4.0995,-4.0874,-4.0888,-4.0888,-4.0888,-4.0888,-4.0888,-4.0888,-4.0888,-4.0888,-4.0888,-4.0995,-4.1401,-4.1864,-4.2338,-4.2806,-4.3232,-4.3497,-4.3497,-4.3497,-4.3497,-4.3497,-4.3497,-4.3497,-4.3497,-4.3446,-4.3376,-4.3251,-4.3069,-4.2995,-4.3104,-4.2994,-4.2902,-4.2922,-4.2884,-4.2882,-4.2882,-4.2882,-4.2882,-4.2882,-4.2882,-4.2882,-4.2882,-4.2882,-4.2955,-4.3101,-4.3359,-4.4005,-4.4975,-4.516,-4.603,0.0,0.0,0.0,0.0,0.0,0.0,-3.8391,-3.8427,-3.8645,0.0,0.0,0.0,0.0,0.0,0.0,0.0,0.0,0.0,0.0,0.0,0.0,0.0,0.0,0.0,0.0,-4.1698,-4.1324,-4.1324,-4.1324,-4.1609,-4.2251,-4.2287,-4.2287,-4.2287,-4.2287,-4.2287,-4.2287,-4.2287,-4.2287,-4.2287,-4.2287,-4.2287,-4.2287,-4.2287,-4.2287,-4.2287,-4.2287,-4.2287,-4.2287,-4.2287,-4.2287,-4.2287,-4.2287,-4.2287,-4.2287,-4.2246,-4.2048,-4.1816,-4.1771,-4.159,-4.1353,-4.1,-4.0901,-4.0888,-4.0888,-4.0888,-4.0888,-4.0888,-4.0888,-4.0888,-4.0888,-4.0888,-4.0995,-4.1401,-4.1864,-4.2338,-4.2806,-4.3232,-4.3497,-4.3497,-4.3497,-4.3497,-4.3497,-4.3497,-4.3497,-4.3497,-4.3497,-4.3463,-4.3376,-4.334,-4.3251,-4.3104,-4.3067,-4.2994,-4.2902,-4.2882,-4.2882,-4.2882,-4.2882,-4.2882,-4.2882,-4.2882,-4.2882,-4.2882,-4.2882,-4.3337,-4.417,-4.4066,-4.4068,-4.4325,-4.5636,-4.64,0.0,0.0,0.0,-3.8192,0.0,0.0,0.0,-3.8192,-3.8301,0.0,0.0,0.0,0.0,0.0,0.0,0.0,0.0,0.0,0.0,0.0,0.0,0.0,0.0,0.0,0.0,-4.1341,-4.0931,-4.0538,-4.0503,-4.086,-4.1645,-4.1698,-4.1877,-4.2269,-4.2287,-4.2287,-4.2287,-4.2287,-4.2287,-4.2287,-4.2287,-4.2287,-4.2287,-4.2287,-4.2287,-4.2287,-4.2287,-4.2287,-4.2287,-4.2287,-4.2287,-4.2287,-4.2287,-4.2287,-4.2287,-4.2287,-4.2097,-4.178,-4.163,-4.1595,-4.1533,-4.1157,-4.1076,-4.1111,-4.0935,-4.0888,-4.0888,-4.0888,-4.0888,-4.0888,-4.0888,-4.0888,-4.0965,-4.1163,-4.1534,-4.199,-4.2458,-4.2902,-4.3268,-4.3444,-4.3497,-4.3497,-4.3497,-4.3497,-4.3497,-4.3497,-4.3497,-4.3463,-4.3429,-4.3394,-4.3359,-4.316,-4.305,-4.2995,-4.2994,-4.2938,-4.2882,-4.2882,-4.2882,-4.2882,-4.2882,-4.2882,-4.2882,-4.2882,-4.2882,-4.3445,-4.4517,-4.4642,-4.4892,-4.5309,-4.5974,-4.6571,0.0,0.0,0.0,0.0,0.0,-3.8192,0.0,0.0,0.0,0.0,0.0,0.0,0.0,0.0,0.0,0.0,0.0,0.0,0.0,0.0,0.0,0.0,0.0,0.0,0.0,-4.0753,-4.0396,-3.9753,-3.97,-4.0039,-4.0842,-4.0877,-4.1234,-4.2037,-4.2055,-4.2126,-4.2287,-4.2287,-4.2287,-4.2287,-4.2287,-4.2287,-4.2287,-4.2287,-4.2287,-4.2287,-4.2287,-4.2287,-4.2287,-4.2287,-4.2287,-4.2287,-4.2287,-4.2287,-4.2287,-4.2287,-4.2145,-4.1856,-4.1637,-4.163,-4.1655,-4.1353,-4.1279,-4.1238,-4.1,-4.0888,-4.0888,-4.0888,-4.0888,-4.0888,-4.0888,-4.0888,-4.0888,-4.0888,-4.1209,-4.1604,-4.199,-4.2498,-4.3013,-4.3339,-4.3444,-4.3497,-4.3497,-4.3497,-4.3497,-4.3497,-4.3497,-4.3463,-4.3411,-4.3411,-4.3376,-4.3269,-4.3069,-4.3032,-4.3141,-4.3012,-4.2938,-4.2938,-4.292,-4.2882,-4.2882,-4.2882,-4.2882,-4.2882,-4.321,-4.3645,-4.4204,-4.4925,-4.5703,-4.6504,-4.6445,-4.6861,0.0,0.0,0.0,0.0,-3.8192,0.0,0.0,0.0,0.0,0.0,0.0,0.0,0.0,0.0,0.0,0.0,0.0,0.0,0.0,0.0,0.0,0.0,0.0,0.0,0.0,0.0,-3.9022,-3.8933,-3.8933,-3.9254,-4.0003,-4.0057,-4.0414,-4.1217,-4.1234,-4.1573,-4.2287,-4.2287,-4.2287,-4.2287,-4.2287,-4.2287,-4.2287,-4.2287,-4.2287,-4.2287,-4.2287,-4.2287,-4.2287,-4.2287,-4.2287,-4.2287,-4.2287,-4.2287,-4.2287,-4.2287,-4.227,-4.2243,-4.2225,-4.1868,-4.1457,-4.1394,-4.1175,-4.0935,-4.0935,-4.0888,-4.0888,-4.0888,-4.0888,-4.0888,-4.0888,-4.0888,-4.0888,-4.0888,-4.1209,-4.1516,-4.1561,-4.2297,-4.292,-4.2957,-4.3268,-4.3497,-4.3497,-4.3497,-4.3497,-4.3497,-4.3497,-4.3497,-4.3497,-4.3497,-4.3481,-4.3467,-4.3322,-4.3268,-4.3287,-4.3141,-4.3067,-4.3067,-4.2956,-4.2882,-4.2882,-4.2882,-4.2882,-4.2882,-4.4302,-4.4385,-4.3077,-4.4566,-4.5694,-4.6522,-4.721,-4.7591,0.0,0.0,0.0,0.0,0.0,0.0,-3.8249,0.0,-3.8192,0.0,0.0,0.0,0.0,0.0,0.0,0.0,0.0,0.0,0.0,0.0,0.0,0.0,0.0,0.0,0.0,0.0,0.0,0.0,0.0,-3.847,-3.9218,-3.9272,-3.9611,-4.0396,-4.086,-4.1252,-4.1591,-4.2055,-4.2287,-4.2287,-4.2287,-4.2287,-4.2287,-4.2287,-4.2287,-4.2287,-4.2287,-4.2287,-4.2287,-4.2287,-4.2287,-4.2287,-4.2287,-4.2287,-4.2287,-4.2287,-4.2287,-4.2278,-4.2076,-4.1789,-4.1478,-4.1324,-4.1123,-4.0888,-4.0888,-4.0888,-4.0888,-4.0888,-4.0888,-4.0888,-4.0888,-4.0888,-4.0888,-4.0888,-4.1041,-4.1209,-4.1445,-4.1821,-4.2257,-4.2806,-4.2826,-4.2921,-4.341,-4.3497,-4.3497,-4.3497,-4.3497,-4.3497,-4.3497,-4.3497,-4.3481,-4.3466,-4.3376,-4.3322,-4.3251,-4.3196,-4.316,-4.3104,-4.2994,-4.2882,-4.2882,-4.2882,-4.2882,-4.2882,-4.357,-4.4476,-4.5675,-4.6364,-4.6866,-4.721,-4.7554,-4.7717,-4.078,0.0,0.0,0.0,0.0,0.0,0.0,0.0,0.0,0.0,0.0,0.0,0.0,0.0,0.0,0.0,0.0,0.0,0.0,0.0,0.0,0.0,0.0,0.0,0.0,0.0,0.0,-3.7363,-3.7381,-3.7703,-3.8433,-3.8469,-3.8826,-3.9575,-4.0182,-4.0574,-4.077,-4.1573,-4.1966,-4.1966,-4.218,-4.2287,-4.2287,-4.2287,-4.2287,-4.2287,-4.2287,-4.2287,-4.2287,-4.2287,-4.2287,-4.2287,-4.2287,-4.2287,-4.2287,-4.2287,-4.2294,-4.2257,-4.1917,-4.1709,-4.156,-4.13,-4.1071,-4.0965,-4.0935,-4.0888,-4.0888,-4.0888,-4.0888,-4.0888,-4.0888,-4.0888,-4.0888,-4.0888,-4.0888,-4.0965,-4.1283,-4.1445,-4.1692,-4.2378,-4.2338,-4.24,-4.3032,-4.325,-4.3339,-4.3339,-4.3339,-4.3339,-4.3339,-4.3339,-4.3358,-4.3411,-4.3411,-4.3376,-4.3268,-4.3251,-4.3214,-4.3123,-4.3031,-4.2957,-4.2957,-4.2902,-4.2902,-4.2902,-4.3312,-4.4932,-4.77,-4.7684,-4.771,-4.7717,-4.7717,-4.7717,0.0,0.0,0.0,-4.0402,0.0,0.0,0.0,0.0,-3.9351,0.0,0.0,0.0,0.0,0.0,-3.7938,-3.7192,0.0,0.0,0.0,0.0,0.0,0.0,0.0,0.0,0.0,0.0,0.0,-3.6503,-3.6557,-3.6862,-3.7613,-3.763,-3.8005,-3.8826,-3.8879,-3.9236,-3.995,-4.0753,-4.1145,-4.1145,-4.1912,-4.2287,-4.2287,-4.2287,-4.2287,-4.2287,-4.2287,-4.2287,-4.2287,-4.2287,-4.2287,-4.2287,-4.2287,-4.2287,-4.2287,-4.2287,-4.2287,-4.2246,-4.1906,-4.1709,-4.156,-4.13,-4.1209,-4.1163,-4.0965,-4.0888,-4.0888,-4.0888,-4.0888,-4.0888,-4.0888,-4.0888,-4.0888,-4.0888,-4.0888,-4.0871,-4.0935,-4.1255,-4.1516,-4.1516,-4.1906,-4.2198,-4.2239,-4.2634,-4.292,-4.292,-4.292,-4.292,-4.292,-4.292,-4.3069,-4.3463,-4.3497,-4.3497,-4.3479,-4.3446,-4.334,-4.3214,-4.3196,-4.3178,-4.3087,-4.2996,-4.2904,-4.2904,-4.4442,-4.6045,-4.77,-4.7715,-4.7699,-4.7717,-4.7717,-4.7717,0.0,0.0,-4.0768,-4.0651,0.0,0.0,0.0,0.0,0.0,0.0,0.0,0.0,0.0,0.0,-3.815,-3.7863,-3.8077,-3.815,0.0,0.0,0.0,0.0,0.0,0.0,0.0,0.0,0.0,-3.6588,-3.6592,-3.6862,0.0,-3.7577,-3.7702,-3.7987,-3.8522,-3.8933,-3.9182,-3.9932,-4.0574,-4.1092,-4.1377,-4.177,-4.2287,-4.2287,-4.2287,-4.2287,-4.2287,-4.2287,-4.2287,-4.2287,-4.2287,-4.2287,-4.2287,-4.2287,-4.2287,-4.2287,-4.2287,-4.2246,-4.1959,-4.1744,-4.156,-4.13,-4.1117,-4.1012,-4.0918,-4.0888,-4.0888,-4.0888,-4.0888,-4.0888,-4.0888,-4.0888,-4.0888,-4.0888,-4.0888,-4.0888,-4.0888,-4.1012,-4.1163,-4.1445,-4.1401,-4.1507,-4.2074,-4.2074,-4.2074,-4.2378,-4.2418,-4.2418,-4.2418,-4.2711,-4.2957,-4.3087,-4.3339,-4.3497,-4.3497,-4.3446,-4.3394,-4.334,-4.3251,-4.3178,-4.3105,-4.305,-4.2995,-4.2884,-4.4129,-4.5381,-4.6652,-4.7342,-4.7717,-4.7717,-4.7717,-4.7717,-4.1372,-4.1323,0.0,-4.1075,-4.0994,0.0,-4.0547,0.0,0.0,0.0,0.0,0.0,0.0,0.0,-3.8036,-3.802,-3.8174,-3.8074,0.0,-3.6453,0.0,0.0,0.0,0.0,0.0,0.0,-3.5151,-3.5762,-3.58,-3.6199,0.0,0.0,-3.7291,-3.7577,-3.8094,-3.838,-3.838,-3.9129,-3.9771,-4.0289,-4.0842,-4.1359,-4.1877,-4.2162,-4.2287,-4.2287,-4.2287,-4.2287,-4.2287,-4.2287,-4.2287,-4.2287,-4.2287,-4.2287,-4.2287,-4.2287,-4.2246,-4.2163,-4.2061,-4.1849,-4.156,-4.1408,-4.118,-4.0995,-4.0918,-4.0888,-4.0991,-4.1543,-4.1302,-4.1009,-4.1609,-4.1285,-4.0888,-4.0888,-4.0888,-4.0888,-4.0888,-4.0888,-4.0965,-4.1255,-4.1041,-4.1041,-4.1622,-4.1445,-4.1401,-4.1864,-4.1948,-4.1948,-4.1948,-4.2216,-4.2537,-4.2844,-4.3105,-4.3339,-4.3497,-4.3463,-4.3411,-4.3394,-4.3305,-4.3233,-4.3123,-4.3104,-4.3194,-4.3393,-4.4129,-4.5088,-4.6259,-4.721,-4.7717,-4.7717,-4.7717,-4.7717]}]]